<?xml version="1.0" encoding="UTF-8" standalone="no" ?>
<gpx xmlns="http://www.topografix.com/GPX/1/1" xmlns:xsi="http://www.w3.org/2001/XMLSchema-instance" xsi:schemaLocation="http://www.topografix.com/GPX/1/1 http://www.topografix.com/GPX/1/1/gpx.xsd" version="1.1" creator="VisuGPX - https://www.visugpx.com">
  <metadata>
    <name>Reco Labatie dAndaure 2021-02-23</name>
    <desc><![CDATA[File with points/tracks from Locus Map/3.50.1]]></desc>
  </metadata>
  <trk>
    <name><![CDATA[2021-02-23 08:49:32]]></name>
    <extensions>
      <line xmlns="http://www.topografix.com/GPX/gpx_style/0/2">
        <color>FF0000</color>
        <opacity>0.59</opacity>
        <width>9.0</width>
      </line>
    </extensions>
    <trkseg>
      <trkpt lat="45.02686" lon="4.49533">
        <ele>491.01</ele>
        <time>2021-02-23T07:49:36.000Z</time>
      </trkpt>
      <trkpt lat="45.02688" lon="4.49525">
        <ele>491.42</ele>
        <time>2021-02-23T07:49:46.000Z</time>
      </trkpt>
      <trkpt lat="45.02689" lon="4.49514">
        <ele>492.32</ele>
        <time>2021-02-23T07:49:56.000Z</time>
      </trkpt>
      <trkpt lat="45.02693" lon="4.495">
        <ele>493.97</ele>
        <time>2021-02-23T07:50:06.000Z</time>
      </trkpt>
      <trkpt lat="45.02691" lon="4.4949">
        <ele>495.75</ele>
        <time>2021-02-23T07:50:16.000Z</time>
      </trkpt>
      <trkpt lat="45.02695" lon="4.49479">
        <ele>497.71</ele>
        <time>2021-02-23T07:50:26.000Z</time>
      </trkpt>
      <trkpt lat="45.027" lon="4.49464">
        <ele>500.85</ele>
        <time>2021-02-23T07:50:36.000Z</time>
      </trkpt>
      <trkpt lat="45.02705" lon="4.4945">
        <ele>503.72</ele>
        <time>2021-02-23T07:50:46.000Z</time>
      </trkpt>
      <trkpt lat="45.02715" lon="4.49436">
        <ele>505.5</ele>
        <time>2021-02-23T07:50:56.000Z</time>
      </trkpt>
      <trkpt lat="45.02726" lon="4.49427">
        <ele>505.28</ele>
        <time>2021-02-23T07:51:06.000Z</time>
      </trkpt>
      <trkpt lat="45.02738" lon="4.49434">
        <ele>501.41</ele>
        <time>2021-02-23T07:51:16.000Z</time>
      </trkpt>
      <trkpt lat="45.0275" lon="4.49448">
        <ele>497.36</ele>
        <time>2021-02-23T07:51:26.000Z</time>
      </trkpt>
      <trkpt lat="45.02757" lon="4.49464">
        <ele>494.88</ele>
        <time>2021-02-23T07:51:36.000Z</time>
      </trkpt>
      <trkpt lat="45.02761" lon="4.49477">
        <ele>493.49</ele>
        <time>2021-02-23T07:51:46.000Z</time>
      </trkpt>
      <trkpt lat="45.02765" lon="4.49486">
        <ele>492.9</ele>
        <time>2021-02-23T07:51:56.000Z</time>
      </trkpt>
      <trkpt lat="45.02771" lon="4.49499">
        <ele>492.58</ele>
        <time>2021-02-23T07:52:06.000Z</time>
      </trkpt>
      <trkpt lat="45.02779" lon="4.49509">
        <ele>492.9</ele>
        <time>2021-02-23T07:52:16.000Z</time>
      </trkpt>
      <trkpt lat="45.02779" lon="4.49526">
        <ele>493.31</ele>
        <time>2021-02-23T07:52:26.000Z</time>
      </trkpt>
      <trkpt lat="45.02781" lon="4.49546">
        <ele>494.47</ele>
        <time>2021-02-23T07:52:36.000Z</time>
      </trkpt>
      <trkpt lat="45.02787" lon="4.49563">
        <ele>496.49</ele>
        <time>2021-02-23T07:52:46.000Z</time>
      </trkpt>
      <trkpt lat="45.02789" lon="4.49577">
        <ele>498.09</ele>
        <time>2021-02-23T07:52:56.000Z</time>
      </trkpt>
      <trkpt lat="45.02798" lon="4.49584">
        <ele>500.53</ele>
        <time>2021-02-23T07:53:06.000Z</time>
      </trkpt>
      <trkpt lat="45.02804" lon="4.49598">
        <ele>503.75</ele>
        <time>2021-02-23T07:53:16.000Z</time>
      </trkpt>
      <trkpt lat="45.02808" lon="4.4961">
        <ele>506.88</ele>
        <time>2021-02-23T07:53:26.000Z</time>
      </trkpt>
      <trkpt lat="45.02801" lon="4.49623">
        <ele>506.99</ele>
        <time>2021-02-23T07:53:36.000Z</time>
      </trkpt>
      <trkpt lat="45.02797" lon="4.49635">
        <ele>507.86</ele>
        <time>2021-02-23T07:53:46.000Z</time>
      </trkpt>
      <trkpt lat="45.02796" lon="4.49647">
        <ele>509.54</ele>
        <time>2021-02-23T07:53:56.000Z</time>
      </trkpt>
      <trkpt lat="45.02796" lon="4.49659">
        <ele>511.82</ele>
        <time>2021-02-23T07:54:06.000Z</time>
      </trkpt>
      <trkpt lat="45.02791" lon="4.49671">
        <ele>512.39</ele>
        <time>2021-02-23T07:54:16.000Z</time>
      </trkpt>
      <trkpt lat="45.02786" lon="4.49682">
        <ele>513.15</ele>
        <time>2021-02-23T07:54:26.000Z</time>
      </trkpt>
      <trkpt lat="45.02781" lon="4.49682">
        <ele>511</ele>
        <time>2021-02-23T07:54:36.000Z</time>
      </trkpt>
      <trkpt lat="45.02778" lon="4.49695">
        <ele>513.37</ele>
        <time>2021-02-23T07:54:46.000Z</time>
      </trkpt>
      <trkpt lat="45.02776" lon="4.49713">
        <ele>517.97</ele>
        <time>2021-02-23T07:54:56.000Z</time>
      </trkpt>
      <trkpt lat="45.02773" lon="4.49722">
        <ele>518.9</ele>
        <time>2021-02-23T07:55:06.000Z</time>
      </trkpt>
      <trkpt lat="45.02771" lon="4.49737">
        <ele>522.02</ele>
        <time>2021-02-23T07:55:16.000Z</time>
      </trkpt>
      <trkpt lat="45.02766" lon="4.49755">
        <ele>523.51</ele>
        <time>2021-02-23T07:55:26.000Z</time>
      </trkpt>
      <trkpt lat="45.02757" lon="4.49763">
        <ele>521.61</ele>
        <time>2021-02-23T07:55:36.000Z</time>
      </trkpt>
      <trkpt lat="45.0275" lon="4.49772">
        <ele>520.11</ele>
        <time>2021-02-23T07:55:46.000Z</time>
      </trkpt>
      <trkpt lat="45.02742" lon="4.49778">
        <ele>518.48</ele>
        <time>2021-02-23T07:55:56.000Z</time>
      </trkpt>
      <trkpt lat="45.02737" lon="4.49791">
        <ele>517.96</ele>
        <time>2021-02-23T07:56:06.000Z</time>
      </trkpt>
      <trkpt lat="45.02732" lon="4.49805">
        <ele>518.03</ele>
        <time>2021-02-23T07:56:16.000Z</time>
      </trkpt>
      <trkpt lat="45.02738" lon="4.49816">
        <ele>520.63</ele>
        <time>2021-02-23T07:56:26.000Z</time>
      </trkpt>
      <trkpt lat="45.02739" lon="4.49837">
        <ele>522.55</ele>
        <time>2021-02-23T07:56:36.000Z</time>
      </trkpt>
      <trkpt lat="45.02741" lon="4.49857">
        <ele>524.56</ele>
        <time>2021-02-23T07:56:46.000Z</time>
      </trkpt>
      <trkpt lat="45.02749" lon="4.49873">
        <ele>527.67</ele>
        <time>2021-02-23T07:56:56.000Z</time>
      </trkpt>
      <trkpt lat="45.02753" lon="4.49888">
        <ele>529.5</ele>
        <time>2021-02-23T07:57:06.000Z</time>
      </trkpt>
      <trkpt lat="45.02758" lon="4.49903">
        <ele>531.35</ele>
        <time>2021-02-23T07:57:16.000Z</time>
      </trkpt>
      <trkpt lat="45.02762" lon="4.4992">
        <ele>533.02</ele>
        <time>2021-02-23T07:57:26.000Z</time>
      </trkpt>
      <trkpt lat="45.02756" lon="4.49918">
        <ele>530.8</ele>
        <time>2021-02-23T07:57:36.000Z</time>
      </trkpt>
      <trkpt lat="45.02759" lon="4.49931">
        <ele>531.92</ele>
        <time>2021-02-23T07:57:46.000Z</time>
      </trkpt>
      <trkpt lat="45.02763" lon="4.49946">
        <ele>532.96</ele>
        <time>2021-02-23T07:57:56.000Z</time>
      </trkpt>
      <trkpt lat="45.02769" lon="4.4996">
        <ele>534.88</ele>
        <time>2021-02-23T07:58:06.000Z</time>
      </trkpt>
      <trkpt lat="45.02776" lon="4.49972">
        <ele>537.45</ele>
        <time>2021-02-23T07:58:16.000Z</time>
      </trkpt>
      <trkpt lat="45.02782" lon="4.49978">
        <ele>539.79</ele>
        <time>2021-02-23T07:58:26.000Z</time>
      </trkpt>
      <trkpt lat="45.02783" lon="4.49986">
        <ele>540.08</ele>
        <time>2021-02-23T07:58:36.000Z</time>
      </trkpt>
      <trkpt lat="45.02785" lon="4.5">
        <ele>541.05</ele>
        <time>2021-02-23T07:58:46.000Z</time>
      </trkpt>
      <trkpt lat="45.02789" lon="4.50014">
        <ele>543.13</ele>
        <time>2021-02-23T07:58:56.000Z</time>
      </trkpt>
      <trkpt lat="45.02791" lon="4.50031">
        <ele>544.53</ele>
        <time>2021-02-23T07:59:06.000Z</time>
      </trkpt>
      <trkpt lat="45.02796" lon="4.50045">
        <ele>547.12</ele>
        <time>2021-02-23T07:59:16.000Z</time>
      </trkpt>
      <trkpt lat="45.028" lon="4.50061">
        <ele>549.44</ele>
        <time>2021-02-23T07:59:26.000Z</time>
      </trkpt>
      <trkpt lat="45.02806" lon="4.50073">
        <ele>552.24</ele>
        <time>2021-02-23T07:59:36.000Z</time>
      </trkpt>
      <trkpt lat="45.02809" lon="4.50086">
        <ele>554.06</ele>
        <time>2021-02-23T07:59:46.000Z</time>
      </trkpt>
      <trkpt lat="45.0281" lon="4.501">
        <ele>554.62</ele>
        <time>2021-02-23T07:59:56.000Z</time>
      </trkpt>
      <trkpt lat="45.02811" lon="4.50111">
        <ele>555.37</ele>
        <time>2021-02-23T08:00:06.000Z</time>
      </trkpt>
      <trkpt lat="45.02809" lon="4.50128">
        <ele>555.22</ele>
        <time>2021-02-23T08:00:16.000Z</time>
      </trkpt>
      <trkpt lat="45.0281" lon="4.50141">
        <ele>555.91</ele>
        <time>2021-02-23T08:00:26.000Z</time>
      </trkpt>
      <trkpt lat="45.02808" lon="4.50157">
        <ele>555.81</ele>
        <time>2021-02-23T08:00:36.000Z</time>
      </trkpt>
      <trkpt lat="45.02814" lon="4.50172">
        <ele>557.61</ele>
        <time>2021-02-23T08:00:46.000Z</time>
      </trkpt>
      <trkpt lat="45.02819" lon="4.50172">
        <ele>558.97</ele>
        <time>2021-02-23T08:00:56.000Z</time>
      </trkpt>
      <trkpt lat="45.02814" lon="4.50153">
        <ele>557.38</ele>
        <time>2021-02-23T08:01:06.000Z</time>
      </trkpt>
      <trkpt lat="45.02813" lon="4.50137">
        <ele>556.72</ele>
        <time>2021-02-23T08:01:16.000Z</time>
      </trkpt>
      <trkpt lat="45.02815" lon="4.50123">
        <ele>557.1</ele>
        <time>2021-02-23T08:01:26.000Z</time>
      </trkpt>
      <trkpt lat="45.02823" lon="4.50132">
        <ele>560.1</ele>
        <time>2021-02-23T08:01:36.000Z</time>
      </trkpt>
      <trkpt lat="45.02827" lon="4.50143">
        <ele>561.31</ele>
        <time>2021-02-23T08:01:46.000Z</time>
      </trkpt>
      <trkpt lat="45.02828" lon="4.5015">
        <ele>561.4</ele>
        <time>2021-02-23T08:02:05.000Z</time>
      </trkpt>
      <trkpt lat="45.02831" lon="4.50158">
        <ele>562.27</ele>
        <time>2021-02-23T08:02:15.000Z</time>
      </trkpt>
      <trkpt lat="45.02835" lon="4.50168">
        <ele>563.54</ele>
        <time>2021-02-23T08:02:25.000Z</time>
      </trkpt>
      <trkpt lat="45.02836" lon="4.50179">
        <ele>563.5</ele>
        <time>2021-02-23T08:02:35.000Z</time>
      </trkpt>
      <trkpt lat="45.02841" lon="4.50191">
        <ele>564.17</ele>
        <time>2021-02-23T08:02:45.000Z</time>
      </trkpt>
      <trkpt lat="45.02846" lon="4.50204">
        <ele>564.64</ele>
        <time>2021-02-23T08:02:55.000Z</time>
      </trkpt>
      <trkpt lat="45.02853" lon="4.50216">
        <ele>566.24</ele>
        <time>2021-02-23T08:03:05.000Z</time>
      </trkpt>
      <trkpt lat="45.02858" lon="4.50227">
        <ele>567.35</ele>
        <time>2021-02-23T08:03:15.000Z</time>
      </trkpt>
      <trkpt lat="45.02861" lon="4.50215">
        <ele>569.09</ele>
        <time>2021-02-23T08:03:25.000Z</time>
      </trkpt>
      <trkpt lat="45.02854" lon="4.50198">
        <ele>568.06</ele>
        <time>2021-02-23T08:03:35.000Z</time>
      </trkpt>
      <trkpt lat="45.02855" lon="4.50181">
        <ele>569.91</ele>
        <time>2021-02-23T08:03:45.000Z</time>
      </trkpt>
      <trkpt lat="45.02857" lon="4.50167">
        <ele>571.5</ele>
        <time>2021-02-23T08:03:55.000Z</time>
      </trkpt>
      <trkpt lat="45.0286" lon="4.50151">
        <ele>573.1</ele>
        <time>2021-02-23T08:04:05.000Z</time>
      </trkpt>
      <trkpt lat="45.02861" lon="4.50134">
        <ele>574.36</ele>
        <time>2021-02-23T08:04:15.000Z</time>
      </trkpt>
      <trkpt lat="45.02862" lon="4.50117">
        <ele>574.92</ele>
        <time>2021-02-23T08:04:25.000Z</time>
      </trkpt>
      <trkpt lat="45.02862" lon="4.501">
        <ele>575.43</ele>
        <time>2021-02-23T08:04:35.000Z</time>
      </trkpt>
      <trkpt lat="45.02865" lon="4.50087">
        <ele>576.69</ele>
        <time>2021-02-23T08:04:45.000Z</time>
      </trkpt>
      <trkpt lat="45.02865" lon="4.50074">
        <ele>576.66</ele>
        <time>2021-02-23T08:04:55.000Z</time>
      </trkpt>
      <trkpt lat="45.02872" lon="4.50064">
        <ele>579.56</ele>
        <time>2021-02-23T08:05:05.000Z</time>
      </trkpt>
      <trkpt lat="45.02876" lon="4.50075">
        <ele>581.23</ele>
        <time>2021-02-23T08:05:15.000Z</time>
      </trkpt>
      <trkpt lat="45.02877" lon="4.50082">
        <ele>582.03</ele>
        <time>2021-02-23T08:05:25.000Z</time>
      </trkpt>
      <trkpt lat="45.02886" lon="4.50094">
        <ele>585.71</ele>
        <time>2021-02-23T08:05:35.000Z</time>
      </trkpt>
      <trkpt lat="45.0289" lon="4.50108">
        <ele>587.57</ele>
        <time>2021-02-23T08:05:45.000Z</time>
      </trkpt>
      <trkpt lat="45.02893" lon="4.50119">
        <ele>588.77</ele>
        <time>2021-02-23T08:05:55.000Z</time>
      </trkpt>
      <trkpt lat="45.02896" lon="4.50133">
        <ele>589.77</ele>
        <time>2021-02-23T08:06:05.000Z</time>
      </trkpt>
      <trkpt lat="45.02899" lon="4.50147">
        <ele>591.18</ele>
        <time>2021-02-23T08:06:15.000Z</time>
      </trkpt>
      <trkpt lat="45.02904" lon="4.50152">
        <ele>593.23</ele>
        <time>2021-02-23T08:06:25.000Z</time>
      </trkpt>
      <trkpt lat="45.02898" lon="4.50148">
        <ele>590.59</ele>
        <time>2021-02-23T08:06:35.000Z</time>
      </trkpt>
      <trkpt lat="45.02902" lon="4.50151">
        <ele>592.3</ele>
        <time>2021-02-23T08:07:43.000Z</time>
      </trkpt>
      <trkpt lat="45.02901" lon="4.50158">
        <ele>591.62</ele>
        <time>2021-02-23T08:08:08.000Z</time>
      </trkpt>
      <trkpt lat="45.02905" lon="4.5017">
        <ele>592.92</ele>
        <time>2021-02-23T08:08:18.000Z</time>
      </trkpt>
      <trkpt lat="45.0291" lon="4.50183">
        <ele>594.13</ele>
        <time>2021-02-23T08:08:28.000Z</time>
      </trkpt>
      <trkpt lat="45.02914" lon="4.50196">
        <ele>594.58</ele>
        <time>2021-02-23T08:08:38.000Z</time>
      </trkpt>
      <trkpt lat="45.02918" lon="4.50192">
        <ele>596.57</ele>
        <time>2021-02-23T08:08:48.000Z</time>
      </trkpt>
      <trkpt lat="45.02916" lon="4.50177">
        <ele>597.08</ele>
        <time>2021-02-23T08:08:58.000Z</time>
      </trkpt>
      <trkpt lat="45.02916" lon="4.50162">
        <ele>598.08</ele>
        <time>2021-02-23T08:09:08.000Z</time>
      </trkpt>
      <trkpt lat="45.02921" lon="4.50146">
        <ele>600.51</ele>
        <time>2021-02-23T08:09:18.000Z</time>
      </trkpt>
      <trkpt lat="45.02917" lon="4.50127">
        <ele>599.19</ele>
        <time>2021-02-23T08:09:28.000Z</time>
      </trkpt>
      <trkpt lat="45.02921" lon="4.50113">
        <ele>600.95</ele>
        <time>2021-02-23T08:09:38.000Z</time>
      </trkpt>
      <trkpt lat="45.02928" lon="4.501">
        <ele>603.99</ele>
        <time>2021-02-23T08:09:48.000Z</time>
      </trkpt>
      <trkpt lat="45.02923" lon="4.50087">
        <ele>601.61</ele>
        <time>2021-02-23T08:09:58.000Z</time>
      </trkpt>
      <trkpt lat="45.02923" lon="4.50068">
        <ele>601.38</ele>
        <time>2021-02-23T08:10:08.000Z</time>
      </trkpt>
      <trkpt lat="45.02931" lon="4.50056">
        <ele>604.4</ele>
        <time>2021-02-23T08:10:18.000Z</time>
      </trkpt>
      <trkpt lat="45.02939" lon="4.5004">
        <ele>607.29</ele>
        <time>2021-02-23T08:10:28.000Z</time>
      </trkpt>
      <trkpt lat="45.02943" lon="4.50027">
        <ele>608.43</ele>
        <time>2021-02-23T08:10:38.000Z</time>
      </trkpt>
      <trkpt lat="45.02944" lon="4.50013">
        <ele>608.01</ele>
        <time>2021-02-23T08:10:48.000Z</time>
      </trkpt>
      <trkpt lat="45.02951" lon="4.50003">
        <ele>610.34</ele>
        <time>2021-02-23T08:10:58.000Z</time>
      </trkpt>
      <trkpt lat="45.02961" lon="4.49992">
        <ele>613.61</ele>
        <time>2021-02-23T08:11:08.000Z</time>
      </trkpt>
      <trkpt lat="45.02971" lon="4.49981">
        <ele>616.33</ele>
        <time>2021-02-23T08:11:18.000Z</time>
      </trkpt>
      <trkpt lat="45.02976" lon="4.49968">
        <ele>616.92</ele>
        <time>2021-02-23T08:11:28.000Z</time>
      </trkpt>
      <trkpt lat="45.02985" lon="4.49961">
        <ele>619.12</ele>
        <time>2021-02-23T08:11:38.000Z</time>
      </trkpt>
      <trkpt lat="45.0299" lon="4.49943">
        <ele>618.05</ele>
        <time>2021-02-23T08:11:48.000Z</time>
      </trkpt>
      <trkpt lat="45.02995" lon="4.49928">
        <ele>617.15</ele>
        <time>2021-02-23T08:11:58.000Z</time>
      </trkpt>
      <trkpt lat="45.03004" lon="4.49919">
        <ele>617.24</ele>
        <time>2021-02-23T08:12:08.000Z</time>
      </trkpt>
      <trkpt lat="45.03006" lon="4.49906">
        <ele>614.86</ele>
        <time>2021-02-23T08:12:18.000Z</time>
      </trkpt>
      <trkpt lat="45.0302" lon="4.49907">
        <ele>616.58</ele>
        <time>2021-02-23T08:12:28.000Z</time>
      </trkpt>
      <trkpt lat="45.03031" lon="4.4991">
        <ele>618.34</ele>
        <time>2021-02-23T08:12:38.000Z</time>
      </trkpt>
      <trkpt lat="45.03029" lon="4.49918">
        <ele>620.3</ele>
        <time>2021-02-23T08:12:48.000Z</time>
      </trkpt>
      <trkpt lat="45.03022" lon="4.49923">
        <ele>620.75</ele>
        <time>2021-02-23T08:12:58.000Z</time>
      </trkpt>
      <trkpt lat="45.03016" lon="4.49934">
        <ele>622.38</ele>
        <time>2021-02-23T08:13:08.000Z</time>
      </trkpt>
      <trkpt lat="45.03015" lon="4.49947">
        <ele>624.92</ele>
        <time>2021-02-23T08:13:18.000Z</time>
      </trkpt>
      <trkpt lat="45.03016" lon="4.49962">
        <ele>627.92</ele>
        <time>2021-02-23T08:13:28.000Z</time>
      </trkpt>
      <trkpt lat="45.03013" lon="4.49977">
        <ele>629.95</ele>
        <time>2021-02-23T08:13:38.000Z</time>
      </trkpt>
      <trkpt lat="45.03012" lon="4.49992">
        <ele>631.98</ele>
        <time>2021-02-23T08:13:48.000Z</time>
      </trkpt>
      <trkpt lat="45.03007" lon="4.50007">
        <ele>632.48</ele>
        <time>2021-02-23T08:13:58.000Z</time>
      </trkpt>
      <trkpt lat="45.03007" lon="4.50022">
        <ele>634.31</ele>
        <time>2021-02-23T08:14:08.000Z</time>
      </trkpt>
      <trkpt lat="45.0301" lon="4.50038">
        <ele>637.1</ele>
        <time>2021-02-23T08:14:18.000Z</time>
      </trkpt>
      <trkpt lat="45.03005" lon="4.50052">
        <ele>636.56</ele>
        <time>2021-02-23T08:14:28.000Z</time>
      </trkpt>
      <trkpt lat="45.03002" lon="4.50066">
        <ele>636.22</ele>
        <time>2021-02-23T08:14:38.000Z</time>
      </trkpt>
      <trkpt lat="45.03002" lon="4.5008">
        <ele>636.91</ele>
        <time>2021-02-23T08:14:48.000Z</time>
      </trkpt>
      <trkpt lat="45.03006" lon="4.50092">
        <ele>638.46</ele>
        <time>2021-02-23T08:14:58.000Z</time>
      </trkpt>
      <trkpt lat="45.0301" lon="4.50105">
        <ele>639.96</ele>
        <time>2021-02-23T08:15:08.000Z</time>
      </trkpt>
      <trkpt lat="45.03014" lon="4.50118">
        <ele>641.34</ele>
        <time>2021-02-23T08:15:18.000Z</time>
      </trkpt>
      <trkpt lat="45.03018" lon="4.50133">
        <ele>642.09</ele>
        <time>2021-02-23T08:15:28.000Z</time>
      </trkpt>
      <trkpt lat="45.03025" lon="4.50145">
        <ele>644.09</ele>
        <time>2021-02-23T08:15:38.000Z</time>
      </trkpt>
      <trkpt lat="45.03033" lon="4.50154">
        <ele>646.76</ele>
        <time>2021-02-23T08:15:48.000Z</time>
      </trkpt>
      <trkpt lat="45.03041" lon="4.50165">
        <ele>648.96</ele>
        <time>2021-02-23T08:15:58.000Z</time>
      </trkpt>
      <trkpt lat="45.03049" lon="4.50173">
        <ele>651.35</ele>
        <time>2021-02-23T08:16:08.000Z</time>
      </trkpt>
      <trkpt lat="45.03057" lon="4.5018">
        <ele>653.93</ele>
        <time>2021-02-23T08:16:18.000Z</time>
      </trkpt>
      <trkpt lat="45.03068" lon="4.50187">
        <ele>657.09</ele>
        <time>2021-02-23T08:16:28.000Z</time>
      </trkpt>
      <trkpt lat="45.03077" lon="4.50184">
        <ele>661.17</ele>
        <time>2021-02-23T08:16:38.000Z</time>
      </trkpt>
      <trkpt lat="45.03087" lon="4.50193">
        <ele>663.44</ele>
        <time>2021-02-23T08:16:48.000Z</time>
      </trkpt>
      <trkpt lat="45.03097" lon="4.50202">
        <ele>665.85</ele>
        <time>2021-02-23T08:16:58.000Z</time>
      </trkpt>
      <trkpt lat="45.03104" lon="4.50209">
        <ele>667.5</ele>
        <time>2021-02-23T08:17:08.000Z</time>
      </trkpt>
      <trkpt lat="45.03108" lon="4.50218">
        <ele>667.99</ele>
        <time>2021-02-23T08:17:18.000Z</time>
      </trkpt>
      <trkpt lat="45.03107" lon="4.5023">
        <ele>666.47</ele>
        <time>2021-02-23T08:17:28.000Z</time>
      </trkpt>
      <trkpt lat="45.03111" lon="4.50238">
        <ele>667.92</ele>
        <time>2021-02-23T08:17:38.000Z</time>
      </trkpt>
      <trkpt lat="45.03111" lon="4.50252">
        <ele>667.37</ele>
        <time>2021-02-23T08:17:48.000Z</time>
      </trkpt>
      <trkpt lat="45.03114" lon="4.50268">
        <ele>668.71</ele>
        <time>2021-02-23T08:17:58.000Z</time>
      </trkpt>
      <trkpt lat="45.03118" lon="4.50283">
        <ele>671.18</ele>
        <time>2021-02-23T08:18:08.000Z</time>
      </trkpt>
      <trkpt lat="45.03123" lon="4.50293">
        <ele>674.19</ele>
        <time>2021-02-23T08:18:18.000Z</time>
      </trkpt>
      <trkpt lat="45.0313" lon="4.50298">
        <ele>677.69</ele>
        <time>2021-02-23T08:18:28.000Z</time>
      </trkpt>
      <trkpt lat="45.03132" lon="4.50311">
        <ele>679.44</ele>
        <time>2021-02-23T08:18:38.000Z</time>
      </trkpt>
      <trkpt lat="45.03128" lon="4.50325">
        <ele>679.12</ele>
        <time>2021-02-23T08:18:48.000Z</time>
      </trkpt>
      <trkpt lat="45.0313" lon="4.50336">
        <ele>681</ele>
        <time>2021-02-23T08:18:58.000Z</time>
      </trkpt>
      <trkpt lat="45.03134" lon="4.50348">
        <ele>684.07</ele>
        <time>2021-02-23T08:19:08.000Z</time>
      </trkpt>
      <trkpt lat="45.03135" lon="4.50361">
        <ele>686.02</ele>
        <time>2021-02-23T08:19:18.000Z</time>
      </trkpt>
      <trkpt lat="45.03133" lon="4.50369">
        <ele>686.28</ele>
        <time>2021-02-23T08:19:28.000Z</time>
      </trkpt>
      <trkpt lat="45.03136" lon="4.50364">
        <ele>686.89</ele>
        <time>2021-02-23T08:19:45.000Z</time>
      </trkpt>
      <trkpt lat="45.03131" lon="4.50357">
        <ele>683.81</ele>
        <time>2021-02-23T08:19:55.000Z</time>
      </trkpt>
      <trkpt lat="45.03138" lon="4.50352">
        <ele>686.4</ele>
        <time>2021-02-23T08:20:05.000Z</time>
      </trkpt>
      <trkpt lat="45.03141" lon="4.50347">
        <ele>686.96</ele>
        <time>2021-02-23T08:20:15.000Z</time>
      </trkpt>
      <trkpt lat="45.03142" lon="4.50334">
        <ele>685.91</ele>
        <time>2021-02-23T08:20:25.000Z</time>
      </trkpt>
      <trkpt lat="45.0315" lon="4.50323">
        <ele>688.06</ele>
        <time>2021-02-23T08:20:35.000Z</time>
      </trkpt>
      <trkpt lat="45.03153" lon="4.50313">
        <ele>688.24</ele>
        <time>2021-02-23T08:20:45.000Z</time>
      </trkpt>
      <trkpt lat="45.03162" lon="4.50307">
        <ele>690.68</ele>
        <time>2021-02-23T08:20:55.000Z</time>
      </trkpt>
      <trkpt lat="45.03173" lon="4.50296">
        <ele>693.08</ele>
        <time>2021-02-23T08:21:05.000Z</time>
      </trkpt>
      <trkpt lat="45.03184" lon="4.50289">
        <ele>695.78</ele>
        <time>2021-02-23T08:21:15.000Z</time>
      </trkpt>
      <trkpt lat="45.03181" lon="4.50269">
        <ele>693.02</ele>
        <time>2021-02-23T08:21:25.000Z</time>
      </trkpt>
      <trkpt lat="45.03178" lon="4.5025">
        <ele>690.97</ele>
        <time>2021-02-23T08:21:35.000Z</time>
      </trkpt>
      <trkpt lat="45.03182" lon="4.50234">
        <ele>691.23</ele>
        <time>2021-02-23T08:21:45.000Z</time>
      </trkpt>
      <trkpt lat="45.03177" lon="4.50217">
        <ele>689.91</ele>
        <time>2021-02-23T08:21:55.000Z</time>
      </trkpt>
      <trkpt lat="45.03179" lon="4.50199">
        <ele>690.53</ele>
        <time>2021-02-23T08:22:05.000Z</time>
      </trkpt>
      <trkpt lat="45.03181" lon="4.50187">
        <ele>690.87</ele>
        <time>2021-02-23T08:22:15.000Z</time>
      </trkpt>
      <trkpt lat="45.03187" lon="4.50179">
        <ele>691.89</ele>
        <time>2021-02-23T08:22:25.000Z</time>
      </trkpt>
      <trkpt lat="45.0319" lon="4.50183">
        <ele>692.48</ele>
        <time>2021-02-23T08:22:36.000Z</time>
      </trkpt>
      <trkpt lat="45.03196" lon="4.50199">
        <ele>693.68</ele>
        <time>2021-02-23T08:22:46.000Z</time>
      </trkpt>
      <trkpt lat="45.03199" lon="4.50213">
        <ele>694.31</ele>
        <time>2021-02-23T08:22:56.000Z</time>
      </trkpt>
      <trkpt lat="45.03206" lon="4.50224">
        <ele>695.88</ele>
        <time>2021-02-23T08:23:06.000Z</time>
      </trkpt>
      <trkpt lat="45.03208" lon="4.5023">
        <ele>696.42</ele>
        <time>2021-02-23T08:23:16.000Z</time>
      </trkpt>
      <trkpt lat="45.03218" lon="4.50237">
        <ele>698.16</ele>
        <time>2021-02-23T08:23:26.000Z</time>
      </trkpt>
      <trkpt lat="45.0322" lon="4.5025">
        <ele>699.39</ele>
        <time>2021-02-23T08:23:36.000Z</time>
      </trkpt>
      <trkpt lat="45.03219" lon="4.5026">
        <ele>700.19</ele>
        <time>2021-02-23T08:23:46.000Z</time>
      </trkpt>
      <trkpt lat="45.03226" lon="4.50269">
        <ele>702.23</ele>
        <time>2021-02-23T08:23:56.000Z</time>
      </trkpt>
      <trkpt lat="45.03233" lon="4.50281">
        <ele>704.74</ele>
        <time>2021-02-23T08:24:06.000Z</time>
      </trkpt>
      <trkpt lat="45.03242" lon="4.50284">
        <ele>705.65</ele>
        <time>2021-02-23T08:24:16.000Z</time>
      </trkpt>
      <trkpt lat="45.0325" lon="4.50293">
        <ele>707.41</ele>
        <time>2021-02-23T08:24:26.000Z</time>
      </trkpt>
      <trkpt lat="45.03248" lon="4.503">
        <ele>708.62</ele>
        <time>2021-02-23T08:24:38.000Z</time>
      </trkpt>
      <trkpt lat="45.03248" lon="4.50317">
        <ele>711.47</ele>
        <time>2021-02-23T08:24:48.000Z</time>
      </trkpt>
      <trkpt lat="45.03244" lon="4.5033">
        <ele>713.39</ele>
        <time>2021-02-23T08:24:58.000Z</time>
      </trkpt>
      <trkpt lat="45.03245" lon="4.50344">
        <ele>715.38</ele>
        <time>2021-02-23T08:25:08.000Z</time>
      </trkpt>
      <trkpt lat="45.03248" lon="4.50357">
        <ele>717.08</ele>
        <time>2021-02-23T08:25:18.000Z</time>
      </trkpt>
      <trkpt lat="45.03253" lon="4.50369">
        <ele>718.51</ele>
        <time>2021-02-23T08:25:28.000Z</time>
      </trkpt>
      <trkpt lat="45.03255" lon="4.5038">
        <ele>719.79</ele>
        <time>2021-02-23T08:25:38.000Z</time>
      </trkpt>
      <trkpt lat="45.03255" lon="4.50387">
        <ele>720.74</ele>
        <time>2021-02-23T08:25:51.000Z</time>
      </trkpt>
      <trkpt lat="45.03258" lon="4.50398">
        <ele>722.07</ele>
        <time>2021-02-23T08:26:01.000Z</time>
      </trkpt>
      <trkpt lat="45.03259" lon="4.50407">
        <ele>723.38</ele>
        <time>2021-02-23T08:26:11.000Z</time>
      </trkpt>
      <trkpt lat="45.0326" lon="4.50424">
        <ele>726.16</ele>
        <time>2021-02-23T08:26:21.000Z</time>
      </trkpt>
      <trkpt lat="45.0326" lon="4.50438">
        <ele>729.03</ele>
        <time>2021-02-23T08:26:31.000Z</time>
      </trkpt>
      <trkpt lat="45.03262" lon="4.50449">
        <ele>731.23</ele>
        <time>2021-02-23T08:26:41.000Z</time>
      </trkpt>
      <trkpt lat="45.03267" lon="4.50455">
        <ele>732.28</ele>
        <time>2021-02-23T08:26:51.000Z</time>
      </trkpt>
      <trkpt lat="45.0327" lon="4.50465">
        <ele>734.32</ele>
        <time>2021-02-23T08:27:01.000Z</time>
      </trkpt>
      <trkpt lat="45.03269" lon="4.50479">
        <ele>737.61</ele>
        <time>2021-02-23T08:27:11.000Z</time>
      </trkpt>
      <trkpt lat="45.03266" lon="4.50495">
        <ele>741.35</ele>
        <time>2021-02-23T08:27:21.000Z</time>
      </trkpt>
      <trkpt lat="45.03268" lon="4.50505">
        <ele>743.16</ele>
        <time>2021-02-23T08:27:31.000Z</time>
      </trkpt>
      <trkpt lat="45.03268" lon="4.50518">
        <ele>745.71</ele>
        <time>2021-02-23T08:27:41.000Z</time>
      </trkpt>
      <trkpt lat="45.03269" lon="4.50531">
        <ele>748.16</ele>
        <time>2021-02-23T08:27:51.000Z</time>
      </trkpt>
      <trkpt lat="45.03273" lon="4.50542">
        <ele>750.03</ele>
        <time>2021-02-23T08:28:01.000Z</time>
      </trkpt>
      <trkpt lat="45.03275" lon="4.50554">
        <ele>752.16</ele>
        <time>2021-02-23T08:28:11.000Z</time>
      </trkpt>
      <trkpt lat="45.03276" lon="4.50564">
        <ele>754.11</ele>
        <time>2021-02-23T08:28:21.000Z</time>
      </trkpt>
      <trkpt lat="45.03279" lon="4.50575">
        <ele>755.96</ele>
        <time>2021-02-23T08:28:31.000Z</time>
      </trkpt>
      <trkpt lat="45.03284" lon="4.50579">
        <ele>756.37</ele>
        <time>2021-02-23T08:28:41.000Z</time>
      </trkpt>
      <trkpt lat="45.03283" lon="4.50592">
        <ele>758.66</ele>
        <time>2021-02-23T08:28:51.000Z</time>
      </trkpt>
      <trkpt lat="45.0328" lon="4.50603">
        <ele>760.73</ele>
        <time>2021-02-23T08:29:01.000Z</time>
      </trkpt>
      <trkpt lat="45.03278" lon="4.50611">
        <ele>762.05</ele>
        <time>2021-02-23T08:29:11.000Z</time>
      </trkpt>
      <trkpt lat="45.03287" lon="4.50617">
        <ele>762.73</ele>
        <time>2021-02-23T08:29:21.000Z</time>
      </trkpt>
      <trkpt lat="45.03288" lon="4.50629">
        <ele>764.57</ele>
        <time>2021-02-23T08:29:31.000Z</time>
      </trkpt>
      <trkpt lat="45.03287" lon="4.50643">
        <ele>766.74</ele>
        <time>2021-02-23T08:29:41.000Z</time>
      </trkpt>
      <trkpt lat="45.03289" lon="4.50654">
        <ele>768.34</ele>
        <time>2021-02-23T08:29:51.000Z</time>
      </trkpt>
      <trkpt lat="45.03293" lon="4.50661">
        <ele>769.18</ele>
        <time>2021-02-23T08:30:01.000Z</time>
      </trkpt>
      <trkpt lat="45.03293" lon="4.50674">
        <ele>771.21</ele>
        <time>2021-02-23T08:30:11.000Z</time>
      </trkpt>
      <trkpt lat="45.03296" lon="4.50684">
        <ele>772.53</ele>
        <time>2021-02-23T08:30:21.000Z</time>
      </trkpt>
      <trkpt lat="45.03292" lon="4.50698">
        <ele>774.77</ele>
        <time>2021-02-23T08:30:31.000Z</time>
      </trkpt>
      <trkpt lat="45.03291" lon="4.50709">
        <ele>776.43</ele>
        <time>2021-02-23T08:30:41.000Z</time>
      </trkpt>
      <trkpt lat="45.03295" lon="4.50713">
        <ele>776.76</ele>
        <time>2021-02-23T08:30:51.000Z</time>
      </trkpt>
      <trkpt lat="45.03293" lon="4.50731">
        <ele>779.44</ele>
        <time>2021-02-23T08:31:01.000Z</time>
      </trkpt>
      <trkpt lat="45.03292" lon="4.50737">
        <ele>780.3</ele>
        <time>2021-02-23T08:31:11.000Z</time>
      </trkpt>
      <trkpt lat="45.03292" lon="4.5075">
        <ele>781.78</ele>
        <time>2021-02-23T08:31:21.000Z</time>
      </trkpt>
      <trkpt lat="45.03291" lon="4.50763">
        <ele>783.34</ele>
        <time>2021-02-23T08:31:31.000Z</time>
      </trkpt>
      <trkpt lat="45.03293" lon="4.50777">
        <ele>784.66</ele>
        <time>2021-02-23T08:31:41.000Z</time>
      </trkpt>
      <trkpt lat="45.03292" lon="4.50792">
        <ele>786.1</ele>
        <time>2021-02-23T08:31:51.000Z</time>
      </trkpt>
      <trkpt lat="45.03291" lon="4.50807">
        <ele>787.44</ele>
        <time>2021-02-23T08:32:01.000Z</time>
      </trkpt>
      <trkpt lat="45.03293" lon="4.50821">
        <ele>788.69</ele>
        <time>2021-02-23T08:32:11.000Z</time>
      </trkpt>
      <trkpt lat="45.03292" lon="4.50837">
        <ele>790.4</ele>
        <time>2021-02-23T08:32:21.000Z</time>
      </trkpt>
      <trkpt lat="45.03293" lon="4.5085">
        <ele>791.86</ele>
        <time>2021-02-23T08:32:31.000Z</time>
      </trkpt>
      <trkpt lat="45.03291" lon="4.50864">
        <ele>793.57</ele>
        <time>2021-02-23T08:32:41.000Z</time>
      </trkpt>
      <trkpt lat="45.03291" lon="4.50873">
        <ele>794.76</ele>
        <time>2021-02-23T08:32:51.000Z</time>
      </trkpt>
      <trkpt lat="45.03289" lon="4.50867">
        <ele>793.98</ele>
        <time>2021-02-23T08:33:09.000Z</time>
      </trkpt>
      <trkpt lat="45.03291" lon="4.50861">
        <ele>793.19</ele>
        <time>2021-02-23T08:33:19.000Z</time>
      </trkpt>
      <trkpt lat="45.03294" lon="4.50866">
        <ele>793.76</ele>
        <time>2021-02-23T08:33:34.000Z</time>
      </trkpt>
      <trkpt lat="45.03292" lon="4.50877">
        <ele>795.23</ele>
        <time>2021-02-23T08:33:44.000Z</time>
      </trkpt>
      <trkpt lat="45.0329" lon="4.50883">
        <ele>796.01</ele>
        <time>2021-02-23T08:33:55.000Z</time>
      </trkpt>
      <trkpt lat="45.03293" lon="4.50894">
        <ele>797.36</ele>
        <time>2021-02-23T08:34:05.000Z</time>
      </trkpt>
      <trkpt lat="45.03292" lon="4.50908">
        <ele>799.15</ele>
        <time>2021-02-23T08:34:15.000Z</time>
      </trkpt>
      <trkpt lat="45.03293" lon="4.50915">
        <ele>800.1</ele>
        <time>2021-02-23T08:34:25.000Z</time>
      </trkpt>
      <trkpt lat="45.03295" lon="4.50925">
        <ele>801.27</ele>
        <time>2021-02-23T08:34:35.000Z</time>
      </trkpt>
      <trkpt lat="45.03298" lon="4.50938">
        <ele>802.86</ele>
        <time>2021-02-23T08:34:45.000Z</time>
      </trkpt>
      <trkpt lat="45.033" lon="4.50951">
        <ele>804.45</ele>
        <time>2021-02-23T08:34:55.000Z</time>
      </trkpt>
      <trkpt lat="45.03304" lon="4.50963">
        <ele>805.99</ele>
        <time>2021-02-23T08:35:05.000Z</time>
      </trkpt>
      <trkpt lat="45.03305" lon="4.50977">
        <ele>807.73</ele>
        <time>2021-02-23T08:35:15.000Z</time>
      </trkpt>
      <trkpt lat="45.03299" lon="4.50982">
        <ele>808.78</ele>
        <time>2021-02-23T08:35:25.000Z</time>
      </trkpt>
      <trkpt lat="45.03301" lon="4.50976">
        <ele>807.86</ele>
        <time>2021-02-23T08:36:05.000Z</time>
      </trkpt>
      <trkpt lat="45.03298" lon="4.50971">
        <ele>807.24</ele>
        <time>2021-02-23T08:36:17.000Z</time>
      </trkpt>
      <trkpt lat="45.03295" lon="4.50966">
        <ele>806.62</ele>
        <time>2021-02-23T08:36:34.000Z</time>
      </trkpt>
      <trkpt lat="45.03291" lon="4.50963">
        <ele>806.35</ele>
        <time>2021-02-23T08:36:51.000Z</time>
      </trkpt>
      <trkpt lat="45.03297" lon="4.50967">
        <ele>806.8</ele>
        <time>2021-02-23T08:37:01.000Z</time>
      </trkpt>
      <trkpt lat="45.03308" lon="4.50978">
        <ele>807.85</ele>
        <time>2021-02-23T08:37:11.000Z</time>
      </trkpt>
      <trkpt lat="45.03318" lon="4.50984">
        <ele>807.89</ele>
        <time>2021-02-23T08:37:21.000Z</time>
      </trkpt>
      <trkpt lat="45.0332" lon="4.50999">
        <ele>810.18</ele>
        <time>2021-02-23T08:37:31.000Z</time>
      </trkpt>
      <trkpt lat="45.0332" lon="4.51013">
        <ele>812.79</ele>
        <time>2021-02-23T08:37:41.000Z</time>
      </trkpt>
      <trkpt lat="45.0332" lon="4.51029">
        <ele>816.06</ele>
        <time>2021-02-23T08:37:51.000Z</time>
      </trkpt>
      <trkpt lat="45.03323" lon="4.51047">
        <ele>819.64</ele>
        <time>2021-02-23T08:38:01.000Z</time>
      </trkpt>
      <trkpt lat="45.03328" lon="4.51061">
        <ele>822.19</ele>
        <time>2021-02-23T08:38:11.000Z</time>
      </trkpt>
      <trkpt lat="45.0333" lon="4.51076">
        <ele>824.97</ele>
        <time>2021-02-23T08:38:21.000Z</time>
      </trkpt>
      <trkpt lat="45.03328" lon="4.51089">
        <ele>827.2</ele>
        <time>2021-02-23T08:38:31.000Z</time>
      </trkpt>
      <trkpt lat="45.03323" lon="4.51102">
        <ele>829.13</ele>
        <time>2021-02-23T08:38:41.000Z</time>
      </trkpt>
      <trkpt lat="45.03324" lon="4.51115">
        <ele>831.01</ele>
        <time>2021-02-23T08:38:51.000Z</time>
      </trkpt>
      <trkpt lat="45.03327" lon="4.51128">
        <ele>832.74</ele>
        <time>2021-02-23T08:39:01.000Z</time>
      </trkpt>
      <trkpt lat="45.03329" lon="4.51143">
        <ele>834.33</ele>
        <time>2021-02-23T08:39:11.000Z</time>
      </trkpt>
      <trkpt lat="45.03328" lon="4.51157">
        <ele>835.42</ele>
        <time>2021-02-23T08:39:21.000Z</time>
      </trkpt>
      <trkpt lat="45.03322" lon="4.51173">
        <ele>835.6</ele>
        <time>2021-02-23T08:39:31.000Z</time>
      </trkpt>
      <trkpt lat="45.03314" lon="4.51181">
        <ele>834.92</ele>
        <time>2021-02-23T08:39:41.000Z</time>
      </trkpt>
      <trkpt lat="45.03313" lon="4.51193">
        <ele>834.49</ele>
        <time>2021-02-23T08:39:51.000Z</time>
      </trkpt>
      <trkpt lat="45.03314" lon="4.51203">
        <ele>834.09</ele>
        <time>2021-02-23T08:40:01.000Z</time>
      </trkpt>
      <trkpt lat="45.03324" lon="4.51213">
        <ele>834.55</ele>
        <time>2021-02-23T08:40:11.000Z</time>
      </trkpt>
      <trkpt lat="45.03335" lon="4.5122">
        <ele>835</ele>
        <time>2021-02-23T08:40:21.000Z</time>
      </trkpt>
      <trkpt lat="45.03347" lon="4.51228">
        <ele>835.48</ele>
        <time>2021-02-23T08:40:31.000Z</time>
      </trkpt>
      <trkpt lat="45.03358" lon="4.51237">
        <ele>835.79</ele>
        <time>2021-02-23T08:40:41.000Z</time>
      </trkpt>
      <trkpt lat="45.03368" lon="4.51243">
        <ele>836.24</ele>
        <time>2021-02-23T08:40:51.000Z</time>
      </trkpt>
      <trkpt lat="45.03377" lon="4.51251">
        <ele>836.62</ele>
        <time>2021-02-23T08:41:01.000Z</time>
      </trkpt>
      <trkpt lat="45.03387" lon="4.51263">
        <ele>837.03</ele>
        <time>2021-02-23T08:41:11.000Z</time>
      </trkpt>
      <trkpt lat="45.03398" lon="4.51274">
        <ele>837.69</ele>
        <time>2021-02-23T08:41:21.000Z</time>
      </trkpt>
      <trkpt lat="45.03407" lon="4.51278">
        <ele>838.41</ele>
        <time>2021-02-23T08:41:31.000Z</time>
      </trkpt>
      <trkpt lat="45.03409" lon="4.51284">
        <ele>838.59</ele>
        <time>2021-02-23T08:41:41.000Z</time>
      </trkpt>
      <trkpt lat="45.03414" lon="4.51285">
        <ele>838.97</ele>
        <time>2021-02-23T08:41:55.000Z</time>
      </trkpt>
      <trkpt lat="45.03421" lon="4.51299">
        <ele>839.53</ele>
        <time>2021-02-23T08:42:05.000Z</time>
      </trkpt>
      <trkpt lat="45.03427" lon="4.51313">
        <ele>840.29</ele>
        <time>2021-02-23T08:42:15.000Z</time>
      </trkpt>
      <trkpt lat="45.03435" lon="4.51323">
        <ele>841.38</ele>
        <time>2021-02-23T08:42:25.000Z</time>
      </trkpt>
      <trkpt lat="45.03441" lon="4.5133">
        <ele>842.38</ele>
        <time>2021-02-23T08:42:35.000Z</time>
      </trkpt>
      <trkpt lat="45.03444" lon="4.51345">
        <ele>842.96</ele>
        <time>2021-02-23T08:42:45.000Z</time>
      </trkpt>
      <trkpt lat="45.0345" lon="4.5136">
        <ele>844.19</ele>
        <time>2021-02-23T08:42:55.000Z</time>
      </trkpt>
      <trkpt lat="45.03454" lon="4.51377">
        <ele>844.88</ele>
        <time>2021-02-23T08:43:05.000Z</time>
      </trkpt>
      <trkpt lat="45.03459" lon="4.51392">
        <ele>846.38</ele>
        <time>2021-02-23T08:43:15.000Z</time>
      </trkpt>
      <trkpt lat="45.03464" lon="4.51405">
        <ele>847.98</ele>
        <time>2021-02-23T08:43:25.000Z</time>
      </trkpt>
      <trkpt lat="45.0347" lon="4.51418">
        <ele>850.01</ele>
        <time>2021-02-23T08:43:35.000Z</time>
      </trkpt>
      <trkpt lat="45.03481" lon="4.5142">
        <ele>854.05</ele>
        <time>2021-02-23T08:43:45.000Z</time>
      </trkpt>
      <trkpt lat="45.03488" lon="4.51434">
        <ele>856.76</ele>
        <time>2021-02-23T08:43:55.000Z</time>
      </trkpt>
      <trkpt lat="45.03491" lon="4.51451">
        <ele>858.73</ele>
        <time>2021-02-23T08:44:05.000Z</time>
      </trkpt>
      <trkpt lat="45.03498" lon="4.5147">
        <ele>861.51</ele>
        <time>2021-02-23T08:44:15.000Z</time>
      </trkpt>
      <trkpt lat="45.03504" lon="4.51484">
        <ele>863.73</ele>
        <time>2021-02-23T08:44:25.000Z</time>
      </trkpt>
      <trkpt lat="45.0351" lon="4.51492">
        <ele>865.6</ele>
        <time>2021-02-23T08:44:35.000Z</time>
      </trkpt>
      <trkpt lat="45.03512" lon="4.51508">
        <ele>865.65</ele>
        <time>2021-02-23T08:44:45.000Z</time>
      </trkpt>
      <trkpt lat="45.03516" lon="4.51521">
        <ele>866.34</ele>
        <time>2021-02-23T08:44:55.000Z</time>
      </trkpt>
      <trkpt lat="45.0352" lon="4.51531">
        <ele>866.77</ele>
        <time>2021-02-23T08:45:05.000Z</time>
      </trkpt>
      <trkpt lat="45.03526" lon="4.51534">
        <ele>868.37</ele>
        <time>2021-02-23T08:45:15.000Z</time>
      </trkpt>
      <trkpt lat="45.03532" lon="4.51537">
        <ele>869.95</ele>
        <time>2021-02-23T08:45:25.000Z</time>
      </trkpt>
      <trkpt lat="45.03538" lon="4.51535">
        <ele>871.87</ele>
        <time>2021-02-23T08:45:35.000Z</time>
      </trkpt>
      <trkpt lat="45.03539" lon="4.51542">
        <ele>871.29</ele>
        <time>2021-02-23T08:45:45.000Z</time>
      </trkpt>
      <trkpt lat="45.03545" lon="4.5155">
        <ele>872.25</ele>
        <time>2021-02-23T08:45:55.000Z</time>
      </trkpt>
      <trkpt lat="45.03553" lon="4.51555">
        <ele>873.81</ele>
        <time>2021-02-23T08:46:05.000Z</time>
      </trkpt>
      <trkpt lat="45.03564" lon="4.51564">
        <ele>875.66</ele>
        <time>2021-02-23T08:46:15.000Z</time>
      </trkpt>
      <trkpt lat="45.03573" lon="4.51573">
        <ele>876.78</ele>
        <time>2021-02-23T08:46:25.000Z</time>
      </trkpt>
      <trkpt lat="45.03583" lon="4.51577">
        <ele>878.74</ele>
        <time>2021-02-23T08:46:35.000Z</time>
      </trkpt>
      <trkpt lat="45.03593" lon="4.51583">
        <ele>880.19</ele>
        <time>2021-02-23T08:46:45.000Z</time>
      </trkpt>
      <trkpt lat="45.03597" lon="4.51598">
        <ele>878.91</ele>
        <time>2021-02-23T08:46:55.000Z</time>
      </trkpt>
      <trkpt lat="45.0361" lon="4.51597">
        <ele>881.83</ele>
        <time>2021-02-23T08:47:05.000Z</time>
      </trkpt>
      <trkpt lat="45.03619" lon="4.51591">
        <ele>884.38</ele>
        <time>2021-02-23T08:47:15.000Z</time>
      </trkpt>
      <trkpt lat="45.03626" lon="4.51595">
        <ele>885.29</ele>
        <time>2021-02-23T08:47:25.000Z</time>
      </trkpt>
      <trkpt lat="45.03633" lon="4.51607">
        <ele>885.31</ele>
        <time>2021-02-23T08:47:35.000Z</time>
      </trkpt>
      <trkpt lat="45.03643" lon="4.51608">
        <ele>887.01</ele>
        <time>2021-02-23T08:47:45.000Z</time>
      </trkpt>
      <trkpt lat="45.03652" lon="4.51613">
        <ele>888.18</ele>
        <time>2021-02-23T08:47:55.000Z</time>
      </trkpt>
      <trkpt lat="45.03657" lon="4.51613">
        <ele>888.89</ele>
        <time>2021-02-23T08:48:05.000Z</time>
      </trkpt>
      <trkpt lat="45.03667" lon="4.51617">
        <ele>890.08</ele>
        <time>2021-02-23T08:48:15.000Z</time>
      </trkpt>
      <trkpt lat="45.03675" lon="4.51622">
        <ele>890.97</ele>
        <time>2021-02-23T08:48:25.000Z</time>
      </trkpt>
      <trkpt lat="45.03684" lon="4.51621">
        <ele>892.16</ele>
        <time>2021-02-23T08:48:35.000Z</time>
      </trkpt>
      <trkpt lat="45.03689" lon="4.51621">
        <ele>892.69</ele>
        <time>2021-02-23T08:48:45.000Z</time>
      </trkpt>
      <trkpt lat="45.03697" lon="4.51616">
        <ele>893.22</ele>
        <time>2021-02-23T08:48:55.000Z</time>
      </trkpt>
      <trkpt lat="45.03704" lon="4.51628">
        <ele>894.48</ele>
        <time>2021-02-23T08:49:05.000Z</time>
      </trkpt>
      <trkpt lat="45.03703" lon="4.51642">
        <ele>895.1</ele>
        <time>2021-02-23T08:49:15.000Z</time>
      </trkpt>
      <trkpt lat="45.0371" lon="4.51652">
        <ele>896.6</ele>
        <time>2021-02-23T08:49:25.000Z</time>
      </trkpt>
      <trkpt lat="45.03719" lon="4.51658">
        <ele>898.19</ele>
        <time>2021-02-23T08:49:35.000Z</time>
      </trkpt>
      <trkpt lat="45.03725" lon="4.51666">
        <ele>899.66</ele>
        <time>2021-02-23T08:49:45.000Z</time>
      </trkpt>
      <trkpt lat="45.03734" lon="4.51672">
        <ele>901.2</ele>
        <time>2021-02-23T08:49:55.000Z</time>
      </trkpt>
      <trkpt lat="45.03739" lon="4.51682">
        <ele>902.6</ele>
        <time>2021-02-23T08:50:05.000Z</time>
      </trkpt>
      <trkpt lat="45.03746" lon="4.51683">
        <ele>903.07</ele>
        <time>2021-02-23T08:50:15.000Z</time>
      </trkpt>
      <trkpt lat="45.0375" lon="4.51695">
        <ele>904.5</ele>
        <time>2021-02-23T08:50:25.000Z</time>
      </trkpt>
      <trkpt lat="45.03755" lon="4.51706">
        <ele>905.72</ele>
        <time>2021-02-23T08:50:35.000Z</time>
      </trkpt>
      <trkpt lat="45.03756" lon="4.51717">
        <ele>906.99</ele>
        <time>2021-02-23T08:50:45.000Z</time>
      </trkpt>
      <trkpt lat="45.03762" lon="4.51725">
        <ele>908.01</ele>
        <time>2021-02-23T08:50:55.000Z</time>
      </trkpt>
      <trkpt lat="45.03767" lon="4.51731">
        <ele>908.95</ele>
        <time>2021-02-23T08:51:05.000Z</time>
      </trkpt>
      <trkpt lat="45.03772" lon="4.51739">
        <ele>910.02</ele>
        <time>2021-02-23T08:51:15.000Z</time>
      </trkpt>
      <trkpt lat="45.03778" lon="4.51747">
        <ele>911.29</ele>
        <time>2021-02-23T08:51:25.000Z</time>
      </trkpt>
      <trkpt lat="45.03784" lon="4.51752">
        <ele>912.31</ele>
        <time>2021-02-23T08:51:35.000Z</time>
      </trkpt>
      <trkpt lat="45.03786" lon="4.51763">
        <ele>914.17</ele>
        <time>2021-02-23T08:51:45.000Z</time>
      </trkpt>
      <trkpt lat="45.03789" lon="4.51772">
        <ele>915.89</ele>
        <time>2021-02-23T08:51:55.000Z</time>
      </trkpt>
      <trkpt lat="45.0379" lon="4.51779">
        <ele>917.14</ele>
        <time>2021-02-23T08:52:09.000Z</time>
      </trkpt>
      <trkpt lat="45.03794" lon="4.51788">
        <ele>919.24</ele>
        <time>2021-02-23T08:52:19.000Z</time>
      </trkpt>
      <trkpt lat="45.03799" lon="4.51787">
        <ele>919.68</ele>
        <time>2021-02-23T08:57:09.000Z</time>
      </trkpt>
      <trkpt lat="45.03804" lon="4.51795">
        <ele>921.75</ele>
        <time>2021-02-23T08:57:19.000Z</time>
      </trkpt>
      <trkpt lat="45.03807" lon="4.51804">
        <ele>924.17</ele>
        <time>2021-02-23T08:57:29.000Z</time>
      </trkpt>
      <trkpt lat="45.0381" lon="4.51811">
        <ele>926.28</ele>
        <time>2021-02-23T08:57:39.000Z</time>
      </trkpt>
      <trkpt lat="45.03812" lon="4.51819">
        <ele>928.31</ele>
        <time>2021-02-23T08:57:49.000Z</time>
      </trkpt>
      <trkpt lat="45.03813" lon="4.51829">
        <ele>930.72</ele>
        <time>2021-02-23T08:57:59.000Z</time>
      </trkpt>
      <trkpt lat="45.0382" lon="4.51833">
        <ele>932.69</ele>
        <time>2021-02-23T08:58:09.000Z</time>
      </trkpt>
      <trkpt lat="45.03822" lon="4.51842">
        <ele>935.31</ele>
        <time>2021-02-23T08:58:19.000Z</time>
      </trkpt>
      <trkpt lat="45.0382" lon="4.51853">
        <ele>937.56</ele>
        <time>2021-02-23T08:58:29.000Z</time>
      </trkpt>
      <trkpt lat="45.03822" lon="4.51863">
        <ele>940.07</ele>
        <time>2021-02-23T08:58:39.000Z</time>
      </trkpt>
      <trkpt lat="45.03824" lon="4.51872">
        <ele>942.7</ele>
        <time>2021-02-23T08:58:49.000Z</time>
      </trkpt>
      <trkpt lat="45.0383" lon="4.51874">
        <ele>944.07</ele>
        <time>2021-02-23T08:58:59.000Z</time>
      </trkpt>
      <trkpt lat="45.03829" lon="4.51887">
        <ele>946.86</ele>
        <time>2021-02-23T08:59:09.000Z</time>
      </trkpt>
      <trkpt lat="45.03833" lon="4.51894">
        <ele>948.88</ele>
        <time>2021-02-23T08:59:19.000Z</time>
      </trkpt>
      <trkpt lat="45.03837" lon="4.51898">
        <ele>950.31</ele>
        <time>2021-02-23T08:59:30.000Z</time>
      </trkpt>
      <trkpt lat="45.03838" lon="4.51904">
        <ele>951.72</ele>
        <time>2021-02-23T08:59:40.000Z</time>
      </trkpt>
      <trkpt lat="45.03841" lon="4.51912">
        <ele>953.59</ele>
        <time>2021-02-23T08:59:50.000Z</time>
      </trkpt>
      <trkpt lat="45.03845" lon="4.51918">
        <ele>955.15</ele>
        <time>2021-02-23T09:00:00.000Z</time>
      </trkpt>
      <trkpt lat="45.03843" lon="4.51924">
        <ele>955.9</ele>
        <time>2021-02-23T09:00:10.000Z</time>
      </trkpt>
      <trkpt lat="45.03839" lon="4.51927">
        <ele>955.72</ele>
        <time>2021-02-23T09:00:23.000Z</time>
      </trkpt>
      <trkpt lat="45.0384" lon="4.51934">
        <ele>956.99</ele>
        <time>2021-02-23T09:00:35.000Z</time>
      </trkpt>
      <trkpt lat="45.03844" lon="4.51939">
        <ele>958.58</ele>
        <time>2021-02-23T09:00:45.000Z</time>
      </trkpt>
      <trkpt lat="45.03842" lon="4.51946">
        <ele>958.99</ele>
        <time>2021-02-23T09:00:56.000Z</time>
      </trkpt>
      <trkpt lat="45.03843" lon="4.51952">
        <ele>960.24</ele>
        <time>2021-02-23T09:01:08.000Z</time>
      </trkpt>
      <trkpt lat="45.03844" lon="4.51959">
        <ele>961.31</ele>
        <time>2021-02-23T09:01:18.000Z</time>
      </trkpt>
      <trkpt lat="45.03844" lon="4.51966">
        <ele>962.05</ele>
        <time>2021-02-23T09:01:29.000Z</time>
      </trkpt>
      <trkpt lat="45.03849" lon="4.51969">
        <ele>964.07</ele>
        <time>2021-02-23T09:01:39.000Z</time>
      </trkpt>
      <trkpt lat="45.03853" lon="4.51973">
        <ele>965.82</ele>
        <time>2021-02-23T09:01:50.000Z</time>
      </trkpt>
      <trkpt lat="45.03857" lon="4.51976">
        <ele>967.54</ele>
        <time>2021-02-23T09:02:25.000Z</time>
      </trkpt>
      <trkpt lat="45.03864" lon="4.51977">
        <ele>969.85</ele>
        <time>2021-02-23T09:02:35.000Z</time>
      </trkpt>
      <trkpt lat="45.03869" lon="4.51976">
        <ele>971.26</ele>
        <time>2021-02-23T09:02:53.000Z</time>
      </trkpt>
      <trkpt lat="45.03876" lon="4.51978">
        <ele>973.65</ele>
        <time>2021-02-23T09:03:03.000Z</time>
      </trkpt>
      <trkpt lat="45.03879" lon="4.51973">
        <ele>973.55</ele>
        <time>2021-02-23T09:03:41.000Z</time>
      </trkpt>
      <trkpt lat="45.03883" lon="4.5197">
        <ele>973.58</ele>
        <time>2021-02-23T09:03:54.000Z</time>
      </trkpt>
      <trkpt lat="45.0388" lon="4.51974">
        <ele>973.95</ele>
        <time>2021-02-23T09:04:07.000Z</time>
      </trkpt>
      <trkpt lat="45.03882" lon="4.51981">
        <ele>976</ele>
        <time>2021-02-23T09:04:17.000Z</time>
      </trkpt>
      <trkpt lat="45.03888" lon="4.51984">
        <ele>978.14</ele>
        <time>2021-02-23T09:04:27.000Z</time>
      </trkpt>
      <trkpt lat="45.03884" lon="4.51988">
        <ele>977.93</ele>
        <time>2021-02-23T09:05:29.000Z</time>
      </trkpt>
      <trkpt lat="45.03889" lon="4.51986">
        <ele>978.68</ele>
        <time>2021-02-23T09:05:59.000Z</time>
      </trkpt>
      <trkpt lat="45.03891" lon="4.51992">
        <ele>980.29</ele>
        <time>2021-02-23T09:06:29.000Z</time>
      </trkpt>
      <trkpt lat="45.03889" lon="4.51997">
        <ele>980.34</ele>
        <time>2021-02-23T09:07:01.000Z</time>
      </trkpt>
      <trkpt lat="45.03888" lon="4.51991">
        <ele>979.42</ele>
        <time>2021-02-23T09:07:40.000Z</time>
      </trkpt>
      <trkpt lat="45.03888" lon="4.51985">
        <ele>978.19</ele>
        <time>2021-02-23T09:08:05.000Z</time>
      </trkpt>
      <trkpt lat="45.03892" lon="4.51989">
        <ele>979.98</ele>
        <time>2021-02-23T09:08:37.000Z</time>
      </trkpt>
      <trkpt lat="45.03894" lon="4.51995">
        <ele>981.38</ele>
        <time>2021-02-23T09:09:11.000Z</time>
      </trkpt>
      <trkpt lat="45.03898" lon="4.51999">
        <ele>982.83</ele>
        <time>2021-02-23T09:09:22.000Z</time>
      </trkpt>
      <trkpt lat="45.03905" lon="4.52006">
        <ele>984.64</ele>
        <time>2021-02-23T09:09:32.000Z</time>
      </trkpt>
      <trkpt lat="45.03913" lon="4.52015">
        <ele>985.68</ele>
        <time>2021-02-23T09:09:42.000Z</time>
      </trkpt>
      <trkpt lat="45.03922" lon="4.52015">
        <ele>985.81</ele>
        <time>2021-02-23T09:09:52.000Z</time>
      </trkpt>
      <trkpt lat="45.03928" lon="4.52027">
        <ele>984.87</ele>
        <time>2021-02-23T09:10:02.000Z</time>
      </trkpt>
      <trkpt lat="45.03928" lon="4.52038">
        <ele>983.75</ele>
        <time>2021-02-23T09:10:12.000Z</time>
      </trkpt>
      <trkpt lat="45.03929" lon="4.52055">
        <ele>981.04</ele>
        <time>2021-02-23T09:10:22.000Z</time>
      </trkpt>
      <trkpt lat="45.0393" lon="4.52072">
        <ele>978.13</ele>
        <time>2021-02-23T09:10:32.000Z</time>
      </trkpt>
      <trkpt lat="45.03934" lon="4.52085">
        <ele>976.13</ele>
        <time>2021-02-23T09:10:42.000Z</time>
      </trkpt>
      <trkpt lat="45.0394" lon="4.52095">
        <ele>974.35</ele>
        <time>2021-02-23T09:10:52.000Z</time>
      </trkpt>
      <trkpt lat="45.0394" lon="4.52111">
        <ele>972.04</ele>
        <time>2021-02-23T09:11:02.000Z</time>
      </trkpt>
      <trkpt lat="45.03944" lon="4.52124">
        <ele>969.79</ele>
        <time>2021-02-23T09:11:12.000Z</time>
      </trkpt>
      <trkpt lat="45.03948" lon="4.52135">
        <ele>967.81</ele>
        <time>2021-02-23T09:11:22.000Z</time>
      </trkpt>
      <trkpt lat="45.03952" lon="4.52147">
        <ele>965.87</ele>
        <time>2021-02-23T09:11:32.000Z</time>
      </trkpt>
      <trkpt lat="45.03954" lon="4.52162">
        <ele>964.13</ele>
        <time>2021-02-23T09:11:42.000Z</time>
      </trkpt>
      <trkpt lat="45.03956" lon="4.52174">
        <ele>963.19</ele>
        <time>2021-02-23T09:11:52.000Z</time>
      </trkpt>
      <trkpt lat="45.03959" lon="4.52186">
        <ele>962.36</ele>
        <time>2021-02-23T09:12:02.000Z</time>
      </trkpt>
      <trkpt lat="45.03965" lon="4.52198">
        <ele>961.67</ele>
        <time>2021-02-23T09:12:12.000Z</time>
      </trkpt>
      <trkpt lat="45.03966" lon="4.52215">
        <ele>961.31</ele>
        <time>2021-02-23T09:12:22.000Z</time>
      </trkpt>
      <trkpt lat="45.03962" lon="4.5223">
        <ele>961.28</ele>
        <time>2021-02-23T09:12:32.000Z</time>
      </trkpt>
      <trkpt lat="45.0396" lon="4.52247">
        <ele>961.44</ele>
        <time>2021-02-23T09:12:42.000Z</time>
      </trkpt>
      <trkpt lat="45.03961" lon="4.52256">
        <ele>961.68</ele>
        <time>2021-02-23T09:12:52.000Z</time>
      </trkpt>
      <trkpt lat="45.03958" lon="4.52261">
        <ele>961.75</ele>
        <time>2021-02-23T09:13:50.000Z</time>
      </trkpt>
      <trkpt lat="45.03956" lon="4.52267">
        <ele>961.95</ele>
        <time>2021-02-23T09:14:03.000Z</time>
      </trkpt>
      <trkpt lat="45.03954" lon="4.52275">
        <ele>962.31</ele>
        <time>2021-02-23T09:14:13.000Z</time>
      </trkpt>
      <trkpt lat="45.03956" lon="4.52285">
        <ele>963.12</ele>
        <time>2021-02-23T09:14:23.000Z</time>
      </trkpt>
      <trkpt lat="45.03955" lon="4.52297">
        <ele>963.99</ele>
        <time>2021-02-23T09:14:33.000Z</time>
      </trkpt>
      <trkpt lat="45.03955" lon="4.52309">
        <ele>964.87</ele>
        <time>2021-02-23T09:14:43.000Z</time>
      </trkpt>
      <trkpt lat="45.03947" lon="4.52322">
        <ele>965.02</ele>
        <time>2021-02-23T09:14:53.000Z</time>
      </trkpt>
      <trkpt lat="45.03941" lon="4.52336">
        <ele>964.79</ele>
        <time>2021-02-23T09:15:03.000Z</time>
      </trkpt>
      <trkpt lat="45.03935" lon="4.52353">
        <ele>964.17</ele>
        <time>2021-02-23T09:15:13.000Z</time>
      </trkpt>
      <trkpt lat="45.03927" lon="4.52365">
        <ele>962.52</ele>
        <time>2021-02-23T09:15:23.000Z</time>
      </trkpt>
      <trkpt lat="45.03921" lon="4.52379">
        <ele>960.82</ele>
        <time>2021-02-23T09:15:33.000Z</time>
      </trkpt>
      <trkpt lat="45.03919" lon="4.52395">
        <ele>959.72</ele>
        <time>2021-02-23T09:15:43.000Z</time>
      </trkpt>
      <trkpt lat="45.0392" lon="4.52409">
        <ele>959.64</ele>
        <time>2021-02-23T09:15:53.000Z</time>
      </trkpt>
      <trkpt lat="45.03927" lon="4.52426">
        <ele>960.96</ele>
        <time>2021-02-23T09:16:03.000Z</time>
      </trkpt>
      <trkpt lat="45.03935" lon="4.52441">
        <ele>962.61</ele>
        <time>2021-02-23T09:16:13.000Z</time>
      </trkpt>
      <trkpt lat="45.03944" lon="4.52451">
        <ele>965.68</ele>
        <time>2021-02-23T09:16:23.000Z</time>
      </trkpt>
      <trkpt lat="45.03952" lon="4.52467">
        <ele>967.6</ele>
        <time>2021-02-23T09:16:33.000Z</time>
      </trkpt>
      <trkpt lat="45.0396" lon="4.52481">
        <ele>970.09</ele>
        <time>2021-02-23T09:16:43.000Z</time>
      </trkpt>
      <trkpt lat="45.03966" lon="4.52497">
        <ele>972.2</ele>
        <time>2021-02-23T09:16:53.000Z</time>
      </trkpt>
      <trkpt lat="45.0397" lon="4.52512">
        <ele>973.69</ele>
        <time>2021-02-23T09:17:03.000Z</time>
      </trkpt>
      <trkpt lat="45.03973" lon="4.5253">
        <ele>974.3</ele>
        <time>2021-02-23T09:17:13.000Z</time>
      </trkpt>
      <trkpt lat="45.03974" lon="4.52548">
        <ele>974.5</ele>
        <time>2021-02-23T09:17:23.000Z</time>
      </trkpt>
      <trkpt lat="45.03975" lon="4.52566">
        <ele>974.49</ele>
        <time>2021-02-23T09:17:33.000Z</time>
      </trkpt>
      <trkpt lat="45.03976" lon="4.52583">
        <ele>974.71</ele>
        <time>2021-02-23T09:17:43.000Z</time>
      </trkpt>
      <trkpt lat="45.03975" lon="4.52603">
        <ele>975.12</ele>
        <time>2021-02-23T09:17:53.000Z</time>
      </trkpt>
      <trkpt lat="45.03971" lon="4.5262">
        <ele>973.38</ele>
        <time>2021-02-23T09:18:03.000Z</time>
      </trkpt>
      <trkpt lat="45.03964" lon="4.52634">
        <ele>970.82</ele>
        <time>2021-02-23T09:18:13.000Z</time>
      </trkpt>
      <trkpt lat="45.03957" lon="4.52649">
        <ele>968.09</ele>
        <time>2021-02-23T09:18:23.000Z</time>
      </trkpt>
      <trkpt lat="45.03952" lon="4.52667">
        <ele>966.63</ele>
        <time>2021-02-23T09:18:33.000Z</time>
      </trkpt>
      <trkpt lat="45.03943" lon="4.52673">
        <ele>962.27</ele>
        <time>2021-02-23T09:18:43.000Z</time>
      </trkpt>
      <trkpt lat="45.0394" lon="4.5266">
        <ele>960.43</ele>
        <time>2021-02-23T09:18:53.000Z</time>
      </trkpt>
      <trkpt lat="45.03929" lon="4.52652">
        <ele>953.98</ele>
        <time>2021-02-23T09:19:03.000Z</time>
      </trkpt>
      <trkpt lat="45.03925" lon="4.52676">
        <ele>953.67</ele>
        <time>2021-02-23T09:19:13.000Z</time>
      </trkpt>
      <trkpt lat="45.03926" lon="4.52695">
        <ele>955.01</ele>
        <time>2021-02-23T09:19:23.000Z</time>
      </trkpt>
      <trkpt lat="45.03924" lon="4.52713">
        <ele>954.82</ele>
        <time>2021-02-23T09:19:33.000Z</time>
      </trkpt>
      <trkpt lat="45.03919" lon="4.52734">
        <ele>953.53</ele>
        <time>2021-02-23T09:19:43.000Z</time>
      </trkpt>
      <trkpt lat="45.03918" lon="4.5275">
        <ele>953.74</ele>
        <time>2021-02-23T09:19:53.000Z</time>
      </trkpt>
      <trkpt lat="45.03917" lon="4.52773">
        <ele>953.64</ele>
        <time>2021-02-23T09:20:03.000Z</time>
      </trkpt>
      <trkpt lat="45.03922" lon="4.52791">
        <ele>956.12</ele>
        <time>2021-02-23T09:20:13.000Z</time>
      </trkpt>
      <trkpt lat="45.03924" lon="4.52812">
        <ele>957.62</ele>
        <time>2021-02-23T09:20:23.000Z</time>
      </trkpt>
      <trkpt lat="45.03924" lon="4.52837">
        <ele>958.19</ele>
        <time>2021-02-23T09:20:33.000Z</time>
      </trkpt>
      <trkpt lat="45.03921" lon="4.52857">
        <ele>957.77</ele>
        <time>2021-02-23T09:20:43.000Z</time>
      </trkpt>
      <trkpt lat="45.03923" lon="4.52877">
        <ele>959.47</ele>
        <time>2021-02-23T09:20:53.000Z</time>
      </trkpt>
      <trkpt lat="45.03925" lon="4.52892">
        <ele>961.23</ele>
        <time>2021-02-23T09:21:03.000Z</time>
      </trkpt>
      <trkpt lat="45.03926" lon="4.5291">
        <ele>962.47</ele>
        <time>2021-02-23T09:21:13.000Z</time>
      </trkpt>
      <trkpt lat="45.03934" lon="4.52913">
        <ele>965.46</ele>
        <time>2021-02-23T09:21:23.000Z</time>
      </trkpt>
      <trkpt lat="45.03929" lon="4.52931">
        <ele>964.48</ele>
        <time>2021-02-23T09:21:33.000Z</time>
      </trkpt>
      <trkpt lat="45.03923" lon="4.52954">
        <ele>962.93</ele>
        <time>2021-02-23T09:21:43.000Z</time>
      </trkpt>
      <trkpt lat="45.03918" lon="4.52978">
        <ele>962.1</ele>
        <time>2021-02-23T09:21:53.000Z</time>
      </trkpt>
      <trkpt lat="45.03914" lon="4.52997">
        <ele>960.92</ele>
        <time>2021-02-23T09:22:03.000Z</time>
      </trkpt>
      <trkpt lat="45.03913" lon="4.53018">
        <ele>960.49</ele>
        <time>2021-02-23T09:22:13.000Z</time>
      </trkpt>
      <trkpt lat="45.03908" lon="4.53038">
        <ele>958.77</ele>
        <time>2021-02-23T09:22:23.000Z</time>
      </trkpt>
      <trkpt lat="45.03898" lon="4.53056">
        <ele>954.16</ele>
        <time>2021-02-23T09:22:33.000Z</time>
      </trkpt>
      <trkpt lat="45.03905" lon="4.53065">
        <ele>956.93</ele>
        <time>2021-02-23T09:22:43.000Z</time>
      </trkpt>
      <trkpt lat="45.039" lon="4.5308">
        <ele>953.78</ele>
        <time>2021-02-23T09:22:53.000Z</time>
      </trkpt>
      <trkpt lat="45.03898" lon="4.53105">
        <ele>951.31</ele>
        <time>2021-02-23T09:23:03.000Z</time>
      </trkpt>
      <trkpt lat="45.03898" lon="4.53123">
        <ele>949.71</ele>
        <time>2021-02-23T09:23:13.000Z</time>
      </trkpt>
      <trkpt lat="45.03901" lon="4.53147">
        <ele>948.92</ele>
        <time>2021-02-23T09:23:23.000Z</time>
      </trkpt>
      <trkpt lat="45.03902" lon="4.53169">
        <ele>947.22</ele>
        <time>2021-02-23T09:23:33.000Z</time>
      </trkpt>
      <trkpt lat="45.03894" lon="4.53176">
        <ele>942.98</ele>
        <time>2021-02-23T09:23:43.000Z</time>
      </trkpt>
      <trkpt lat="45.03886" lon="4.53158">
        <ele>940.7</ele>
        <time>2021-02-23T09:23:53.000Z</time>
      </trkpt>
      <trkpt lat="45.03876" lon="4.53149">
        <ele>937.11</ele>
        <time>2021-02-23T09:24:03.000Z</time>
      </trkpt>
      <trkpt lat="45.0387" lon="4.53148">
        <ele>934.51</ele>
        <time>2021-02-23T09:24:13.000Z</time>
      </trkpt>
      <trkpt lat="45.03886" lon="4.53158">
        <ele>940.93</ele>
        <time>2021-02-23T09:24:23.000Z</time>
      </trkpt>
      <trkpt lat="45.03895" lon="4.53174">
        <ele>943.62</ele>
        <time>2021-02-23T09:24:33.000Z</time>
      </trkpt>
      <trkpt lat="45.03903" lon="4.53189">
        <ele>945.3</ele>
        <time>2021-02-23T09:24:43.000Z</time>
      </trkpt>
      <trkpt lat="45.03909" lon="4.53205">
        <ele>946.24</ele>
        <time>2021-02-23T09:24:53.000Z</time>
      </trkpt>
      <trkpt lat="45.03915" lon="4.53219">
        <ele>947.25</ele>
        <time>2021-02-23T09:25:03.000Z</time>
      </trkpt>
      <trkpt lat="45.03921" lon="4.53231">
        <ele>948.74</ele>
        <time>2021-02-23T09:25:13.000Z</time>
      </trkpt>
      <trkpt lat="45.03923" lon="4.53254">
        <ele>947.32</ele>
        <time>2021-02-23T09:25:23.000Z</time>
      </trkpt>
      <trkpt lat="45.03926" lon="4.53276">
        <ele>946.92</ele>
        <time>2021-02-23T09:25:33.000Z</time>
      </trkpt>
      <trkpt lat="45.0393" lon="4.53295">
        <ele>947.21</ele>
        <time>2021-02-23T09:25:43.000Z</time>
      </trkpt>
      <trkpt lat="45.03936" lon="4.53311">
        <ele>948.39</ele>
        <time>2021-02-23T09:25:53.000Z</time>
      </trkpt>
      <trkpt lat="45.03942" lon="4.53327">
        <ele>950.15</ele>
        <time>2021-02-23T09:26:03.000Z</time>
      </trkpt>
      <trkpt lat="45.03944" lon="4.53348">
        <ele>950.93</ele>
        <time>2021-02-23T09:26:13.000Z</time>
      </trkpt>
      <trkpt lat="45.03944" lon="4.53367">
        <ele>951.23</ele>
        <time>2021-02-23T09:26:23.000Z</time>
      </trkpt>
      <trkpt lat="45.0394" lon="4.53384">
        <ele>951.08</ele>
        <time>2021-02-23T09:26:33.000Z</time>
      </trkpt>
      <trkpt lat="45.03931" lon="4.534">
        <ele>949.23</ele>
        <time>2021-02-23T09:26:43.000Z</time>
      </trkpt>
      <trkpt lat="45.0392" lon="4.5341">
        <ele>947.18</ele>
        <time>2021-02-23T09:26:53.000Z</time>
      </trkpt>
      <trkpt lat="45.0391" lon="4.53425">
        <ele>946.43</ele>
        <time>2021-02-23T09:27:03.000Z</time>
      </trkpt>
      <trkpt lat="45.03903" lon="4.5344">
        <ele>947.37</ele>
        <time>2021-02-23T09:27:13.000Z</time>
      </trkpt>
      <trkpt lat="45.03898" lon="4.53455">
        <ele>948.93</ele>
        <time>2021-02-23T09:27:23.000Z</time>
      </trkpt>
      <trkpt lat="45.03888" lon="4.53466">
        <ele>948.67</ele>
        <time>2021-02-23T09:27:33.000Z</time>
      </trkpt>
      <trkpt lat="45.0388" lon="4.53482">
        <ele>950</ele>
        <time>2021-02-23T09:27:43.000Z</time>
      </trkpt>
      <trkpt lat="45.03872" lon="4.53498">
        <ele>951.13</ele>
        <time>2021-02-23T09:27:53.000Z</time>
      </trkpt>
      <trkpt lat="45.03866" lon="4.53514">
        <ele>952.49</ele>
        <time>2021-02-23T09:28:03.000Z</time>
      </trkpt>
      <trkpt lat="45.03858" lon="4.53528">
        <ele>953.12</ele>
        <time>2021-02-23T09:28:13.000Z</time>
      </trkpt>
      <trkpt lat="45.03854" lon="4.53545">
        <ele>955.1</ele>
        <time>2021-02-23T09:28:23.000Z</time>
      </trkpt>
      <trkpt lat="45.03848" lon="4.53559">
        <ele>956.09</ele>
        <time>2021-02-23T09:28:33.000Z</time>
      </trkpt>
      <trkpt lat="45.03856" lon="4.53559">
        <ele>957.59</ele>
        <time>2021-02-23T09:28:43.000Z</time>
      </trkpt>
      <trkpt lat="45.03863" lon="4.53565">
        <ele>959.71</ele>
        <time>2021-02-23T09:28:53.000Z</time>
      </trkpt>
      <trkpt lat="45.03867" lon="4.53576">
        <ele>962</ele>
        <time>2021-02-23T09:29:03.000Z</time>
      </trkpt>
      <trkpt lat="45.03873" lon="4.53583">
        <ele>963.9</ele>
        <time>2021-02-23T09:29:13.000Z</time>
      </trkpt>
      <trkpt lat="45.03879" lon="4.5359">
        <ele>965.88</ele>
        <time>2021-02-23T09:29:23.000Z</time>
      </trkpt>
      <trkpt lat="45.03887" lon="4.53597">
        <ele>967.84</ele>
        <time>2021-02-23T09:29:33.000Z</time>
      </trkpt>
      <trkpt lat="45.03893" lon="4.53604">
        <ele>969.28</ele>
        <time>2021-02-23T09:29:43.000Z</time>
      </trkpt>
      <trkpt lat="45.03898" lon="4.53612">
        <ele>970.41</ele>
        <time>2021-02-23T09:29:53.000Z</time>
      </trkpt>
      <trkpt lat="45.03904" lon="4.53617">
        <ele>971.31</ele>
        <time>2021-02-23T09:30:03.000Z</time>
      </trkpt>
      <trkpt lat="45.03912" lon="4.53606">
        <ele>972.1</ele>
        <time>2021-02-23T09:30:13.000Z</time>
      </trkpt>
      <trkpt lat="45.03921" lon="4.53596">
        <ele>973.02</ele>
        <time>2021-02-23T09:30:23.000Z</time>
      </trkpt>
      <trkpt lat="45.03934" lon="4.53592">
        <ele>974.46</ele>
        <time>2021-02-23T09:30:33.000Z</time>
      </trkpt>
      <trkpt lat="45.03945" lon="4.53597">
        <ele>975.54</ele>
        <time>2021-02-23T09:30:43.000Z</time>
      </trkpt>
      <trkpt lat="45.03957" lon="4.53597">
        <ele>976.73</ele>
        <time>2021-02-23T09:30:53.000Z</time>
      </trkpt>
      <trkpt lat="45.03969" lon="4.53599">
        <ele>977.51</ele>
        <time>2021-02-23T09:31:03.000Z</time>
      </trkpt>
      <trkpt lat="45.0398" lon="4.53599">
        <ele>978.24</ele>
        <time>2021-02-23T09:31:13.000Z</time>
      </trkpt>
      <trkpt lat="45.03992" lon="4.53596">
        <ele>979.27</ele>
        <time>2021-02-23T09:31:23.000Z</time>
      </trkpt>
      <trkpt lat="45.04005" lon="4.53602">
        <ele>978.94</ele>
        <time>2021-02-23T09:31:33.000Z</time>
      </trkpt>
      <trkpt lat="45.04011" lon="4.53596">
        <ele>979.86</ele>
        <time>2021-02-23T09:31:43.000Z</time>
      </trkpt>
      <trkpt lat="45.04026" lon="4.53592">
        <ele>980.67</ele>
        <time>2021-02-23T09:31:53.000Z</time>
      </trkpt>
      <trkpt lat="45.0404" lon="4.53588">
        <ele>981.52</ele>
        <time>2021-02-23T09:32:03.000Z</time>
      </trkpt>
      <trkpt lat="45.04055" lon="4.53587">
        <ele>981.61</ele>
        <time>2021-02-23T09:32:13.000Z</time>
      </trkpt>
      <trkpt lat="45.04068" lon="4.53585">
        <ele>982.19</ele>
        <time>2021-02-23T09:32:23.000Z</time>
      </trkpt>
      <trkpt lat="45.04079" lon="4.53576">
        <ele>984.74</ele>
        <time>2021-02-23T09:32:33.000Z</time>
      </trkpt>
      <trkpt lat="45.04091" lon="4.53572">
        <ele>986.33</ele>
        <time>2021-02-23T09:32:43.000Z</time>
      </trkpt>
      <trkpt lat="45.04103" lon="4.53573">
        <ele>986.68</ele>
        <time>2021-02-23T09:32:53.000Z</time>
      </trkpt>
      <trkpt lat="45.04117" lon="4.53573">
        <ele>987.39</ele>
        <time>2021-02-23T09:33:03.000Z</time>
      </trkpt>
      <trkpt lat="45.04128" lon="4.53573">
        <ele>988.02</ele>
        <time>2021-02-23T09:33:13.000Z</time>
      </trkpt>
      <trkpt lat="45.04141" lon="4.53576">
        <ele>987.73</ele>
        <time>2021-02-23T09:33:23.000Z</time>
      </trkpt>
      <trkpt lat="45.04153" lon="4.53572">
        <ele>989.76</ele>
        <time>2021-02-23T09:33:33.000Z</time>
      </trkpt>
      <trkpt lat="45.04165" lon="4.53572">
        <ele>990.69</ele>
        <time>2021-02-23T09:33:43.000Z</time>
      </trkpt>
      <trkpt lat="45.04177" lon="4.5357">
        <ele>992.09</ele>
        <time>2021-02-23T09:33:53.000Z</time>
      </trkpt>
      <trkpt lat="45.04188" lon="4.53567">
        <ele>994.18</ele>
        <time>2021-02-23T09:34:03.000Z</time>
      </trkpt>
      <trkpt lat="45.04201" lon="4.53568">
        <ele>995.05</ele>
        <time>2021-02-23T09:34:13.000Z</time>
      </trkpt>
      <trkpt lat="45.04212" lon="4.53569">
        <ele>995.59</ele>
        <time>2021-02-23T09:34:23.000Z</time>
      </trkpt>
      <trkpt lat="45.04224" lon="4.53568">
        <ele>996.87</ele>
        <time>2021-02-23T09:34:33.000Z</time>
      </trkpt>
      <trkpt lat="45.04237" lon="4.5357">
        <ele>997.63</ele>
        <time>2021-02-23T09:34:43.000Z</time>
      </trkpt>
      <trkpt lat="45.04249" lon="4.53572">
        <ele>997.82</ele>
        <time>2021-02-23T09:34:53.000Z</time>
      </trkpt>
      <trkpt lat="45.04252" lon="4.5358">
        <ele>995.27</ele>
        <time>2021-02-23T09:35:03.000Z</time>
      </trkpt>
      <trkpt lat="45.04273" lon="4.53576">
        <ele>998.88</ele>
        <time>2021-02-23T09:35:13.000Z</time>
      </trkpt>
      <trkpt lat="45.04286" lon="4.53578">
        <ele>999.65</ele>
        <time>2021-02-23T09:35:23.000Z</time>
      </trkpt>
      <trkpt lat="45.04299" lon="4.53572">
        <ele>1002.86</ele>
        <time>2021-02-23T09:35:33.000Z</time>
      </trkpt>
      <trkpt lat="45.04312" lon="4.53575">
        <ele>1003.29</ele>
        <time>2021-02-23T09:35:43.000Z</time>
      </trkpt>
      <trkpt lat="45.04326" lon="4.53574">
        <ele>1004.39</ele>
        <time>2021-02-23T09:35:53.000Z</time>
      </trkpt>
      <trkpt lat="45.04337" lon="4.53577">
        <ele>1004.01</ele>
        <time>2021-02-23T09:36:03.000Z</time>
      </trkpt>
      <trkpt lat="45.04347" lon="4.53582">
        <ele>1003.04</ele>
        <time>2021-02-23T09:36:13.000Z</time>
      </trkpt>
      <trkpt lat="45.04358" lon="4.53588">
        <ele>1001.81</ele>
        <time>2021-02-23T09:36:23.000Z</time>
      </trkpt>
      <trkpt lat="45.04373" lon="4.53583">
        <ele>1004.03</ele>
        <time>2021-02-23T09:36:33.000Z</time>
      </trkpt>
      <trkpt lat="45.04384" lon="4.53578">
        <ele>1005.51</ele>
        <time>2021-02-23T09:36:43.000Z</time>
      </trkpt>
      <trkpt lat="45.04402" lon="4.5357">
        <ele>1007.12</ele>
        <time>2021-02-23T09:36:53.000Z</time>
      </trkpt>
      <trkpt lat="45.04414" lon="4.53563">
        <ele>1007.71</ele>
        <time>2021-02-23T09:37:03.000Z</time>
      </trkpt>
      <trkpt lat="45.04426" lon="4.53549">
        <ele>1009.2</ele>
        <time>2021-02-23T09:37:13.000Z</time>
      </trkpt>
      <trkpt lat="45.04439" lon="4.53544">
        <ele>1007.9</ele>
        <time>2021-02-23T09:37:23.000Z</time>
      </trkpt>
      <trkpt lat="45.04449" lon="4.53533">
        <ele>1008.26</ele>
        <time>2021-02-23T09:37:33.000Z</time>
      </trkpt>
      <trkpt lat="45.04452" lon="4.53527">
        <ele>1008.68</ele>
        <time>2021-02-23T09:37:43.000Z</time>
      </trkpt>
      <trkpt lat="45.04449" lon="4.53512">
        <ele>1012.09</ele>
        <time>2021-02-23T09:37:53.000Z</time>
      </trkpt>
      <trkpt lat="45.0446" lon="4.535">
        <ele>1012.18</ele>
        <time>2021-02-23T09:38:03.000Z</time>
      </trkpt>
      <trkpt lat="45.04472" lon="4.53486">
        <ele>1012.34</ele>
        <time>2021-02-23T09:38:13.000Z</time>
      </trkpt>
      <trkpt lat="45.04474" lon="4.53468">
        <ele>1014.82</ele>
        <time>2021-02-23T09:38:23.000Z</time>
      </trkpt>
      <trkpt lat="45.04472" lon="4.53453">
        <ele>1017.45</ele>
        <time>2021-02-23T09:38:33.000Z</time>
      </trkpt>
      <trkpt lat="45.0448" lon="4.53437">
        <ele>1018.41</ele>
        <time>2021-02-23T09:38:43.000Z</time>
      </trkpt>
      <trkpt lat="45.04485" lon="4.5342">
        <ele>1020.1</ele>
        <time>2021-02-23T09:38:53.000Z</time>
      </trkpt>
      <trkpt lat="45.04489" lon="4.53404">
        <ele>1022.11</ele>
        <time>2021-02-23T09:39:03.000Z</time>
      </trkpt>
      <trkpt lat="45.04496" lon="4.5339">
        <ele>1023.84</ele>
        <time>2021-02-23T09:39:13.000Z</time>
      </trkpt>
      <trkpt lat="45.04503" lon="4.53376">
        <ele>1025.78</ele>
        <time>2021-02-23T09:39:23.000Z</time>
      </trkpt>
      <trkpt lat="45.04511" lon="4.5336">
        <ele>1027.98</ele>
        <time>2021-02-23T09:39:33.000Z</time>
      </trkpt>
      <trkpt lat="45.04517" lon="4.53344">
        <ele>1029.99</ele>
        <time>2021-02-23T09:39:43.000Z</time>
      </trkpt>
      <trkpt lat="45.04518" lon="4.53327">
        <ele>1031.71</ele>
        <time>2021-02-23T09:39:53.000Z</time>
      </trkpt>
      <trkpt lat="45.04517" lon="4.5331">
        <ele>1032.96</ele>
        <time>2021-02-23T09:40:03.000Z</time>
      </trkpt>
      <trkpt lat="45.04518" lon="4.53291">
        <ele>1033.75</ele>
        <time>2021-02-23T09:40:13.000Z</time>
      </trkpt>
      <trkpt lat="45.04517" lon="4.53272">
        <ele>1034.22</ele>
        <time>2021-02-23T09:40:23.000Z</time>
      </trkpt>
      <trkpt lat="45.04519" lon="4.53254">
        <ele>1034.45</ele>
        <time>2021-02-23T09:40:33.000Z</time>
      </trkpt>
      <trkpt lat="45.0452" lon="4.53236">
        <ele>1034.58</ele>
        <time>2021-02-23T09:40:43.000Z</time>
      </trkpt>
      <trkpt lat="45.04522" lon="4.53216">
        <ele>1034.41</ele>
        <time>2021-02-23T09:40:53.000Z</time>
      </trkpt>
      <trkpt lat="45.04524" lon="4.53198">
        <ele>1034.03</ele>
        <time>2021-02-23T09:41:03.000Z</time>
      </trkpt>
      <trkpt lat="45.04527" lon="4.53182">
        <ele>1033.55</ele>
        <time>2021-02-23T09:41:13.000Z</time>
      </trkpt>
      <trkpt lat="45.04533" lon="4.53165">
        <ele>1032.82</ele>
        <time>2021-02-23T09:41:23.000Z</time>
      </trkpt>
      <trkpt lat="45.04536" lon="4.53147">
        <ele>1032.07</ele>
        <time>2021-02-23T09:41:33.000Z</time>
      </trkpt>
      <trkpt lat="45.04541" lon="4.53131">
        <ele>1031.16</ele>
        <time>2021-02-23T09:41:43.000Z</time>
      </trkpt>
      <trkpt lat="45.04544" lon="4.53113">
        <ele>1030.21</ele>
        <time>2021-02-23T09:41:53.000Z</time>
      </trkpt>
      <trkpt lat="45.04545" lon="4.53093">
        <ele>1029.37</ele>
        <time>2021-02-23T09:42:03.000Z</time>
      </trkpt>
      <trkpt lat="45.04544" lon="4.53073">
        <ele>1028.77</ele>
        <time>2021-02-23T09:42:13.000Z</time>
      </trkpt>
      <trkpt lat="45.04554" lon="4.53061">
        <ele>1028.31</ele>
        <time>2021-02-23T09:42:23.000Z</time>
      </trkpt>
      <trkpt lat="45.04564" lon="4.5307">
        <ele>1028.27</ele>
        <time>2021-02-23T09:42:33.000Z</time>
      </trkpt>
      <trkpt lat="45.04571" lon="4.53087">
        <ele>1028.44</ele>
        <time>2021-02-23T09:42:43.000Z</time>
      </trkpt>
      <trkpt lat="45.04579" lon="4.53104">
        <ele>1028.76</ele>
        <time>2021-02-23T09:42:53.000Z</time>
      </trkpt>
      <trkpt lat="45.04588" lon="4.53119">
        <ele>1029.06</ele>
        <time>2021-02-23T09:43:03.000Z</time>
      </trkpt>
      <trkpt lat="45.04596" lon="4.53136">
        <ele>1029.45</ele>
        <time>2021-02-23T09:43:13.000Z</time>
      </trkpt>
      <trkpt lat="45.04603" lon="4.53154">
        <ele>1029.83</ele>
        <time>2021-02-23T09:43:23.000Z</time>
      </trkpt>
      <trkpt lat="45.04614" lon="4.53165">
        <ele>1029.8</ele>
        <time>2021-02-23T09:43:33.000Z</time>
      </trkpt>
      <trkpt lat="45.04627" lon="4.53174">
        <ele>1029.62</ele>
        <time>2021-02-23T09:43:43.000Z</time>
      </trkpt>
      <trkpt lat="45.04639" lon="4.53186">
        <ele>1029.59</ele>
        <time>2021-02-23T09:43:53.000Z</time>
      </trkpt>
      <trkpt lat="45.04652" lon="4.53196">
        <ele>1029.45</ele>
        <time>2021-02-23T09:44:03.000Z</time>
      </trkpt>
      <trkpt lat="45.04665" lon="4.53206">
        <ele>1029.31</ele>
        <time>2021-02-23T09:44:13.000Z</time>
      </trkpt>
      <trkpt lat="45.04677" lon="4.53215">
        <ele>1029.15</ele>
        <time>2021-02-23T09:44:23.000Z</time>
      </trkpt>
      <trkpt lat="45.0469" lon="4.53221">
        <ele>1028.82</ele>
        <time>2021-02-23T09:44:33.000Z</time>
      </trkpt>
      <trkpt lat="45.04703" lon="4.53227">
        <ele>1028.45</ele>
        <time>2021-02-23T09:44:43.000Z</time>
      </trkpt>
      <trkpt lat="45.04715" lon="4.53235">
        <ele>1028.08</ele>
        <time>2021-02-23T09:44:53.000Z</time>
      </trkpt>
      <trkpt lat="45.04727" lon="4.53247">
        <ele>1027.68</ele>
        <time>2021-02-23T09:45:03.000Z</time>
      </trkpt>
      <trkpt lat="45.0474" lon="4.53254">
        <ele>1027.27</ele>
        <time>2021-02-23T09:45:13.000Z</time>
      </trkpt>
      <trkpt lat="45.04751" lon="4.5326">
        <ele>1026.97</ele>
        <time>2021-02-23T09:45:23.000Z</time>
      </trkpt>
      <trkpt lat="45.04765" lon="4.53264">
        <ele>1026.77</ele>
        <time>2021-02-23T09:45:33.000Z</time>
      </trkpt>
      <trkpt lat="45.04778" lon="4.53267">
        <ele>1026.7</ele>
        <time>2021-02-23T09:45:43.000Z</time>
      </trkpt>
      <trkpt lat="45.04791" lon="4.53276">
        <ele>1026.63</ele>
        <time>2021-02-23T09:45:53.000Z</time>
      </trkpt>
      <trkpt lat="45.04802" lon="4.53282">
        <ele>1026.52</ele>
        <time>2021-02-23T09:46:03.000Z</time>
      </trkpt>
      <trkpt lat="45.04813" lon="4.53294">
        <ele>1026.23</ele>
        <time>2021-02-23T09:46:13.000Z</time>
      </trkpt>
      <trkpt lat="45.04825" lon="4.53306">
        <ele>1025.78</ele>
        <time>2021-02-23T09:46:23.000Z</time>
      </trkpt>
      <trkpt lat="45.04837" lon="4.53312">
        <ele>1025.33</ele>
        <time>2021-02-23T09:46:33.000Z</time>
      </trkpt>
      <trkpt lat="45.04848" lon="4.53319">
        <ele>1025.1</ele>
        <time>2021-02-23T09:46:43.000Z</time>
      </trkpt>
      <trkpt lat="45.0486" lon="4.53326">
        <ele>1025.07</ele>
        <time>2021-02-23T09:46:53.000Z</time>
      </trkpt>
      <trkpt lat="45.04873" lon="4.53336">
        <ele>1025.05</ele>
        <time>2021-02-23T09:47:03.000Z</time>
      </trkpt>
      <trkpt lat="45.04883" lon="4.5335">
        <ele>1024.84</ele>
        <time>2021-02-23T09:47:13.000Z</time>
      </trkpt>
      <trkpt lat="45.04893" lon="4.53364">
        <ele>1024.34</ele>
        <time>2021-02-23T09:47:23.000Z</time>
      </trkpt>
      <trkpt lat="45.04899" lon="4.5338">
        <ele>1023.74</ele>
        <time>2021-02-23T09:47:33.000Z</time>
      </trkpt>
      <trkpt lat="45.04909" lon="4.53395">
        <ele>1022.83</ele>
        <time>2021-02-23T09:47:43.000Z</time>
      </trkpt>
      <trkpt lat="45.04916" lon="4.53411">
        <ele>1022.02</ele>
        <time>2021-02-23T09:47:53.000Z</time>
      </trkpt>
      <trkpt lat="45.04921" lon="4.5343">
        <ele>1021.73</ele>
        <time>2021-02-23T09:48:03.000Z</time>
      </trkpt>
      <trkpt lat="45.04929" lon="4.53447">
        <ele>1021.34</ele>
        <time>2021-02-23T09:48:13.000Z</time>
      </trkpt>
      <trkpt lat="45.0494" lon="4.5346">
        <ele>1020.85</ele>
        <time>2021-02-23T09:48:23.000Z</time>
      </trkpt>
      <trkpt lat="45.0495" lon="4.53474">
        <ele>1020.49</ele>
        <time>2021-02-23T09:48:33.000Z</time>
      </trkpt>
      <trkpt lat="45.0496" lon="4.53488">
        <ele>1020.34</ele>
        <time>2021-02-23T09:48:43.000Z</time>
      </trkpt>
      <trkpt lat="45.04971" lon="4.535">
        <ele>1019.99</ele>
        <time>2021-02-23T09:48:53.000Z</time>
      </trkpt>
      <trkpt lat="45.04984" lon="4.53506">
        <ele>1019.11</ele>
        <time>2021-02-23T09:49:03.000Z</time>
      </trkpt>
      <trkpt lat="45.04998" lon="4.53511">
        <ele>1018.02</ele>
        <time>2021-02-23T09:49:13.000Z</time>
      </trkpt>
      <trkpt lat="45.05005" lon="4.53523">
        <ele>1018.03</ele>
        <time>2021-02-23T09:49:23.000Z</time>
      </trkpt>
      <trkpt lat="45.0502" lon="4.5353">
        <ele>1016.68</ele>
        <time>2021-02-23T09:49:33.000Z</time>
      </trkpt>
      <trkpt lat="45.05034" lon="4.53539">
        <ele>1015.53</ele>
        <time>2021-02-23T09:49:43.000Z</time>
      </trkpt>
      <trkpt lat="45.05047" lon="4.53546">
        <ele>1014.11</ele>
        <time>2021-02-23T09:49:53.000Z</time>
      </trkpt>
      <trkpt lat="45.05061" lon="4.53557">
        <ele>1012.74</ele>
        <time>2021-02-23T09:50:03.000Z</time>
      </trkpt>
      <trkpt lat="45.0507" lon="4.53572">
        <ele>1011.8</ele>
        <time>2021-02-23T09:50:13.000Z</time>
      </trkpt>
      <trkpt lat="45.05076" lon="4.53585">
        <ele>1010.71</ele>
        <time>2021-02-23T09:50:23.000Z</time>
      </trkpt>
      <trkpt lat="45.0508" lon="4.53593">
        <ele>1009.85</ele>
        <time>2021-02-23T09:50:33.000Z</time>
      </trkpt>
      <trkpt lat="45.05096" lon="4.53596">
        <ele>1008</ele>
        <time>2021-02-23T09:50:43.000Z</time>
      </trkpt>
      <trkpt lat="45.0511" lon="4.53602">
        <ele>1006.24</ele>
        <time>2021-02-23T09:50:53.000Z</time>
      </trkpt>
      <trkpt lat="45.05121" lon="4.53612">
        <ele>1004.69</ele>
        <time>2021-02-23T09:51:03.000Z</time>
      </trkpt>
      <trkpt lat="45.05139" lon="4.53618">
        <ele>1003.47</ele>
        <time>2021-02-23T09:51:13.000Z</time>
      </trkpt>
      <trkpt lat="45.0515" lon="4.53627">
        <ele>1002.88</ele>
        <time>2021-02-23T09:51:23.000Z</time>
      </trkpt>
      <trkpt lat="45.0516" lon="4.53628">
        <ele>1002.89</ele>
        <time>2021-02-23T09:51:33.000Z</time>
      </trkpt>
      <trkpt lat="45.05172" lon="4.5364">
        <ele>1003</ele>
        <time>2021-02-23T09:51:43.000Z</time>
      </trkpt>
      <trkpt lat="45.05185" lon="4.53627">
        <ele>1003.54</ele>
        <time>2021-02-23T09:51:53.000Z</time>
      </trkpt>
      <trkpt lat="45.05198" lon="4.53618">
        <ele>1003.51</ele>
        <time>2021-02-23T09:52:03.000Z</time>
      </trkpt>
      <trkpt lat="45.05211" lon="4.53618">
        <ele>1003.99</ele>
        <time>2021-02-23T09:52:13.000Z</time>
      </trkpt>
      <trkpt lat="45.05222" lon="4.53612">
        <ele>1003.75</ele>
        <time>2021-02-23T09:52:23.000Z</time>
      </trkpt>
      <trkpt lat="45.05236" lon="4.53608">
        <ele>1003.64</ele>
        <time>2021-02-23T09:52:33.000Z</time>
      </trkpt>
      <trkpt lat="45.05246" lon="4.53605">
        <ele>1003.47</ele>
        <time>2021-02-23T09:52:43.000Z</time>
      </trkpt>
      <trkpt lat="45.05246" lon="4.53585">
        <ele>999.29</ele>
        <time>2021-02-23T09:52:53.000Z</time>
      </trkpt>
      <trkpt lat="45.05257" lon="4.53575">
        <ele>997.19</ele>
        <time>2021-02-23T09:53:03.000Z</time>
      </trkpt>
      <trkpt lat="45.0527" lon="4.53569">
        <ele>996.04</ele>
        <time>2021-02-23T09:53:13.000Z</time>
      </trkpt>
      <trkpt lat="45.05278" lon="4.53558">
        <ele>993.33</ele>
        <time>2021-02-23T09:53:23.000Z</time>
      </trkpt>
      <trkpt lat="45.05289" lon="4.5355">
        <ele>991.46</ele>
        <time>2021-02-23T09:53:33.000Z</time>
      </trkpt>
      <trkpt lat="45.05303" lon="4.53551">
        <ele>992.87</ele>
        <time>2021-02-23T09:53:43.000Z</time>
      </trkpt>
      <trkpt lat="45.05315" lon="4.53546">
        <ele>992.34</ele>
        <time>2021-02-23T09:53:53.000Z</time>
      </trkpt>
      <trkpt lat="45.05327" lon="4.53541">
        <ele>991.58</ele>
        <time>2021-02-23T09:54:03.000Z</time>
      </trkpt>
      <trkpt lat="45.05338" lon="4.53541">
        <ele>992.61</ele>
        <time>2021-02-23T09:54:13.000Z</time>
      </trkpt>
      <trkpt lat="45.05351" lon="4.53537">
        <ele>992.3</ele>
        <time>2021-02-23T09:54:23.000Z</time>
      </trkpt>
      <trkpt lat="45.05364" lon="4.53536">
        <ele>992.8</ele>
        <time>2021-02-23T09:54:33.000Z</time>
      </trkpt>
      <trkpt lat="45.05377" lon="4.53534">
        <ele>993.33</ele>
        <time>2021-02-23T09:54:43.000Z</time>
      </trkpt>
      <trkpt lat="45.05383" lon="4.5353">
        <ele>992.6</ele>
        <time>2021-02-23T09:54:53.000Z</time>
      </trkpt>
      <trkpt lat="45.05388" lon="4.53527">
        <ele>992.01</ele>
        <time>2021-02-23T09:55:20.000Z</time>
      </trkpt>
      <trkpt lat="45.05399" lon="4.53522">
        <ele>991.88</ele>
        <time>2021-02-23T09:55:30.000Z</time>
      </trkpt>
      <trkpt lat="45.0541" lon="4.53516">
        <ele>991.04</ele>
        <time>2021-02-23T09:55:40.000Z</time>
      </trkpt>
      <trkpt lat="45.05421" lon="4.53505">
        <ele>989.25</ele>
        <time>2021-02-23T09:55:50.000Z</time>
      </trkpt>
      <trkpt lat="45.05433" lon="4.53498">
        <ele>989.93</ele>
        <time>2021-02-23T09:56:00.000Z</time>
      </trkpt>
      <trkpt lat="45.05444" lon="4.53503">
        <ele>994.41</ele>
        <time>2021-02-23T09:56:10.000Z</time>
      </trkpt>
      <trkpt lat="45.05454" lon="4.53485">
        <ele>991.94</ele>
        <time>2021-02-23T09:56:20.000Z</time>
      </trkpt>
      <trkpt lat="45.05462" lon="4.53463">
        <ele>987.88</ele>
        <time>2021-02-23T09:56:30.000Z</time>
      </trkpt>
      <trkpt lat="45.05468" lon="4.53444">
        <ele>983.98</ele>
        <time>2021-02-23T09:56:40.000Z</time>
      </trkpt>
      <trkpt lat="45.05478" lon="4.5343">
        <ele>982.63</ele>
        <time>2021-02-23T09:56:50.000Z</time>
      </trkpt>
      <trkpt lat="45.05487" lon="4.53412">
        <ele>979.96</ele>
        <time>2021-02-23T09:57:00.000Z</time>
      </trkpt>
      <trkpt lat="45.05496" lon="4.53395">
        <ele>977.5</ele>
        <time>2021-02-23T09:57:10.000Z</time>
      </trkpt>
      <trkpt lat="45.05504" lon="4.53384">
        <ele>975.84</ele>
        <time>2021-02-23T09:57:20.000Z</time>
      </trkpt>
      <trkpt lat="45.05513" lon="4.53375">
        <ele>975.09</ele>
        <time>2021-02-23T09:57:30.000Z</time>
      </trkpt>
      <trkpt lat="45.05517" lon="4.53354">
        <ele>970.27</ele>
        <time>2021-02-23T09:57:40.000Z</time>
      </trkpt>
      <trkpt lat="45.0552" lon="4.53341">
        <ele>967.38</ele>
        <time>2021-02-23T09:57:50.000Z</time>
      </trkpt>
      <trkpt lat="45.05521" lon="4.53334">
        <ele>965.93</ele>
        <time>2021-02-23T09:58:12.000Z</time>
      </trkpt>
      <trkpt lat="45.05531" lon="4.53326">
        <ele>965.26</ele>
        <time>2021-02-23T09:58:22.000Z</time>
      </trkpt>
      <trkpt lat="45.0554" lon="4.53314">
        <ele>963.3</ele>
        <time>2021-02-23T09:58:32.000Z</time>
      </trkpt>
      <trkpt lat="45.05551" lon="4.53304">
        <ele>961.43</ele>
        <time>2021-02-23T09:58:42.000Z</time>
      </trkpt>
      <trkpt lat="45.05564" lon="4.53297">
        <ele>959.84</ele>
        <time>2021-02-23T09:58:52.000Z</time>
      </trkpt>
      <trkpt lat="45.05578" lon="4.53294">
        <ele>958.73</ele>
        <time>2021-02-23T09:59:02.000Z</time>
      </trkpt>
      <trkpt lat="45.05592" lon="4.53293">
        <ele>957.29</ele>
        <time>2021-02-23T09:59:12.000Z</time>
      </trkpt>
      <trkpt lat="45.05604" lon="4.53287">
        <ele>953.63</ele>
        <time>2021-02-23T09:59:22.000Z</time>
      </trkpt>
      <trkpt lat="45.0561" lon="4.53283">
        <ele>951.56</ele>
        <time>2021-02-23T09:59:32.000Z</time>
      </trkpt>
      <trkpt lat="45.05616" lon="4.53285">
        <ele>950.62</ele>
        <time>2021-02-23T09:59:46.000Z</time>
      </trkpt>
      <trkpt lat="45.05631" lon="4.53288">
        <ele>947.83</ele>
        <time>2021-02-23T09:59:56.000Z</time>
      </trkpt>
      <trkpt lat="45.05647" lon="4.53298">
        <ele>946.18</ele>
        <time>2021-02-23T10:00:06.000Z</time>
      </trkpt>
      <trkpt lat="45.05648" lon="4.53317">
        <ele>950.78</ele>
        <time>2021-02-23T10:00:16.000Z</time>
      </trkpt>
      <trkpt lat="45.05664" lon="4.53317">
        <ele>946.76</ele>
        <time>2021-02-23T10:00:26.000Z</time>
      </trkpt>
      <trkpt lat="45.0568" lon="4.53326">
        <ele>945.24</ele>
        <time>2021-02-23T10:00:36.000Z</time>
      </trkpt>
      <trkpt lat="45.05692" lon="4.53339">
        <ele>945.75</ele>
        <time>2021-02-23T10:00:46.000Z</time>
      </trkpt>
      <trkpt lat="45.0571" lon="4.53345">
        <ele>943.19</ele>
        <time>2021-02-23T10:00:56.000Z</time>
      </trkpt>
      <trkpt lat="45.05724" lon="4.53347">
        <ele>940.94</ele>
        <time>2021-02-23T10:01:06.000Z</time>
      </trkpt>
      <trkpt lat="45.05736" lon="4.53343">
        <ele>937.55</ele>
        <time>2021-02-23T10:01:16.000Z</time>
      </trkpt>
      <trkpt lat="45.05749" lon="4.53339">
        <ele>934.32</ele>
        <time>2021-02-23T10:01:26.000Z</time>
      </trkpt>
      <trkpt lat="45.05755" lon="4.53335">
        <ele>932.69</ele>
        <time>2021-02-23T10:01:36.000Z</time>
      </trkpt>
      <trkpt lat="45.05771" lon="4.53333">
        <ele>930.43</ele>
        <time>2021-02-23T10:01:46.000Z</time>
      </trkpt>
      <trkpt lat="45.05788" lon="4.5333">
        <ele>928.64</ele>
        <time>2021-02-23T10:01:56.000Z</time>
      </trkpt>
      <trkpt lat="45.058" lon="4.53321">
        <ele>926.13</ele>
        <time>2021-02-23T10:02:06.000Z</time>
      </trkpt>
      <trkpt lat="45.05808" lon="4.53309">
        <ele>923.45</ele>
        <time>2021-02-23T10:02:16.000Z</time>
      </trkpt>
      <trkpt lat="45.05817" lon="4.5331">
        <ele>923.35</ele>
        <time>2021-02-23T10:02:26.000Z</time>
      </trkpt>
      <trkpt lat="45.05827" lon="4.53308">
        <ele>922.6</ele>
        <time>2021-02-23T10:02:36.000Z</time>
      </trkpt>
      <trkpt lat="45.05837" lon="4.53301">
        <ele>921.2</ele>
        <time>2021-02-23T10:02:46.000Z</time>
      </trkpt>
      <trkpt lat="45.05847" lon="4.53302">
        <ele>920.9</ele>
        <time>2021-02-23T10:02:56.000Z</time>
      </trkpt>
      <trkpt lat="45.05856" lon="4.53307">
        <ele>921.04</ele>
        <time>2021-02-23T10:03:06.000Z</time>
      </trkpt>
      <trkpt lat="45.05864" lon="4.53315">
        <ele>921.15</ele>
        <time>2021-02-23T10:03:16.000Z</time>
      </trkpt>
      <trkpt lat="45.05865" lon="4.53325">
        <ele>921.84</ele>
        <time>2021-02-23T10:03:26.000Z</time>
      </trkpt>
      <trkpt lat="45.05867" lon="4.5332">
        <ele>921.25</ele>
        <time>2021-02-23T10:03:47.000Z</time>
      </trkpt>
      <trkpt lat="45.05863" lon="4.53318">
        <ele>921.49</ele>
        <time>2021-02-23T10:04:28.000Z</time>
      </trkpt>
      <trkpt lat="45.05866" lon="4.53323">
        <ele>921.53</ele>
        <time>2021-02-23T10:05:23.000Z</time>
      </trkpt>
      <trkpt lat="45.05871" lon="4.53325">
        <ele>921.24</ele>
        <time>2021-02-23T10:06:13.000Z</time>
      </trkpt>
      <trkpt lat="45.05873" lon="4.5332">
        <ele>920.74</ele>
        <time>2021-02-23T10:06:24.000Z</time>
      </trkpt>
      <trkpt lat="45.05882" lon="4.53314">
        <ele>919.83</ele>
        <time>2021-02-23T10:06:34.000Z</time>
      </trkpt>
      <trkpt lat="45.05884" lon="4.53305">
        <ele>919.48</ele>
        <time>2021-02-23T10:06:44.000Z</time>
      </trkpt>
      <trkpt lat="45.05885" lon="4.53294">
        <ele>919.24</ele>
        <time>2021-02-23T10:06:54.000Z</time>
      </trkpt>
      <trkpt lat="45.05898" lon="4.53294">
        <ele>919.27</ele>
        <time>2021-02-23T10:07:04.000Z</time>
      </trkpt>
      <trkpt lat="45.05908" lon="4.53301">
        <ele>919.1</ele>
        <time>2021-02-23T10:07:14.000Z</time>
      </trkpt>
      <trkpt lat="45.0592" lon="4.53291">
        <ele>919.96</ele>
        <time>2021-02-23T10:07:24.000Z</time>
      </trkpt>
      <trkpt lat="45.0593" lon="4.53283">
        <ele>921.22</ele>
        <time>2021-02-23T10:07:34.000Z</time>
      </trkpt>
      <trkpt lat="45.05937" lon="4.53278">
        <ele>922.31</ele>
        <time>2021-02-23T10:07:44.000Z</time>
      </trkpt>
      <trkpt lat="45.05944" lon="4.53277">
        <ele>923.09</ele>
        <time>2021-02-23T10:07:54.000Z</time>
      </trkpt>
      <trkpt lat="45.0594" lon="4.53278">
        <ele>922.58</ele>
        <time>2021-02-23T10:08:05.000Z</time>
      </trkpt>
      <trkpt lat="45.05935" lon="4.53275">
        <ele>922.43</ele>
        <time>2021-02-23T10:08:38.000Z</time>
      </trkpt>
      <trkpt lat="45.0594" lon="4.53265">
        <ele>923.77</ele>
        <time>2021-02-23T10:08:48.000Z</time>
      </trkpt>
      <trkpt lat="45.05946" lon="4.53263">
        <ele>924.77</ele>
        <time>2021-02-23T10:08:58.000Z</time>
      </trkpt>
      <trkpt lat="45.05955" lon="4.53258">
        <ele>926.48</ele>
        <time>2021-02-23T10:09:08.000Z</time>
      </trkpt>
      <trkpt lat="45.05964" lon="4.53255">
        <ele>928.19</ele>
        <time>2021-02-23T10:09:18.000Z</time>
      </trkpt>
      <trkpt lat="45.05973" lon="4.53255">
        <ele>929.73</ele>
        <time>2021-02-23T10:09:28.000Z</time>
      </trkpt>
      <trkpt lat="45.05981" lon="4.53254">
        <ele>931.22</ele>
        <time>2021-02-23T10:09:38.000Z</time>
      </trkpt>
      <trkpt lat="45.05989" lon="4.53251">
        <ele>932.94</ele>
        <time>2021-02-23T10:09:48.000Z</time>
      </trkpt>
      <trkpt lat="45.05999" lon="4.5325">
        <ele>934.78</ele>
        <time>2021-02-23T10:09:58.000Z</time>
      </trkpt>
      <trkpt lat="45.06004" lon="4.5325">
        <ele>935.7</ele>
        <time>2021-02-23T10:10:11.000Z</time>
      </trkpt>
      <trkpt lat="45.06011" lon="4.53245">
        <ele>937.81</ele>
        <time>2021-02-23T10:10:21.000Z</time>
      </trkpt>
      <trkpt lat="45.06018" lon="4.53238">
        <ele>940.13</ele>
        <time>2021-02-23T10:10:31.000Z</time>
      </trkpt>
      <trkpt lat="45.06027" lon="4.53233">
        <ele>942.55</ele>
        <time>2021-02-23T10:10:41.000Z</time>
      </trkpt>
      <trkpt lat="45.06036" lon="4.53231">
        <ele>944.68</ele>
        <time>2021-02-23T10:10:51.000Z</time>
      </trkpt>
      <trkpt lat="45.06044" lon="4.53228">
        <ele>946.8</ele>
        <time>2021-02-23T10:11:01.000Z</time>
      </trkpt>
      <trkpt lat="45.06053" lon="4.5323">
        <ele>948.38</ele>
        <time>2021-02-23T10:11:11.000Z</time>
      </trkpt>
      <trkpt lat="45.06063" lon="4.53234">
        <ele>949.47</ele>
        <time>2021-02-23T10:11:21.000Z</time>
      </trkpt>
      <trkpt lat="45.06072" lon="4.53233">
        <ele>951.67</ele>
        <time>2021-02-23T10:11:31.000Z</time>
      </trkpt>
      <trkpt lat="45.0608" lon="4.53235">
        <ele>953.1</ele>
        <time>2021-02-23T10:11:41.000Z</time>
      </trkpt>
      <trkpt lat="45.06089" lon="4.53233">
        <ele>955.65</ele>
        <time>2021-02-23T10:11:51.000Z</time>
      </trkpt>
      <trkpt lat="45.06099" lon="4.53233">
        <ele>958.04</ele>
        <time>2021-02-23T10:12:01.000Z</time>
      </trkpt>
      <trkpt lat="45.06107" lon="4.5323">
        <ele>961.1</ele>
        <time>2021-02-23T10:12:11.000Z</time>
      </trkpt>
      <trkpt lat="45.06114" lon="4.53225">
        <ele>964.23</ele>
        <time>2021-02-23T10:12:21.000Z</time>
      </trkpt>
      <trkpt lat="45.0612" lon="4.53226">
        <ele>965.71</ele>
        <time>2021-02-23T10:12:31.000Z</time>
      </trkpt>
      <trkpt lat="45.06128" lon="4.53226">
        <ele>967.99</ele>
        <time>2021-02-23T10:12:41.000Z</time>
      </trkpt>
      <trkpt lat="45.06138" lon="4.53226">
        <ele>970.63</ele>
        <time>2021-02-23T10:12:51.000Z</time>
      </trkpt>
      <trkpt lat="45.06145" lon="4.5322">
        <ele>974.47</ele>
        <time>2021-02-23T10:13:01.000Z</time>
      </trkpt>
      <trkpt lat="45.06154" lon="4.53215">
        <ele>978.39</ele>
        <time>2021-02-23T10:13:11.000Z</time>
      </trkpt>
      <trkpt lat="45.06161" lon="4.5322">
        <ele>978.93</ele>
        <time>2021-02-23T10:13:21.000Z</time>
      </trkpt>
      <trkpt lat="45.06168" lon="4.53218">
        <ele>981.48</ele>
        <time>2021-02-23T10:13:31.000Z</time>
      </trkpt>
      <trkpt lat="45.06174" lon="4.53217">
        <ele>983.77</ele>
        <time>2021-02-23T10:13:41.000Z</time>
      </trkpt>
      <trkpt lat="45.0618" lon="4.53221">
        <ele>984.68</ele>
        <time>2021-02-23T10:13:51.000Z</time>
      </trkpt>
      <trkpt lat="45.06176" lon="4.53224">
        <ele>982.52</ele>
        <time>2021-02-23T10:14:17.000Z</time>
      </trkpt>
      <trkpt lat="45.06181" lon="4.53221">
        <ele>984.91</ele>
        <time>2021-02-23T10:14:28.000Z</time>
      </trkpt>
      <trkpt lat="45.06189" lon="4.53217">
        <ele>989</ele>
        <time>2021-02-23T10:14:38.000Z</time>
      </trkpt>
      <trkpt lat="45.06198" lon="4.53216">
        <ele>992.71</ele>
        <time>2021-02-23T10:14:48.000Z</time>
      </trkpt>
      <trkpt lat="45.06206" lon="4.53231">
        <ele>991.27</ele>
        <time>2021-02-23T10:14:58.000Z</time>
      </trkpt>
      <trkpt lat="45.06214" lon="4.53229">
        <ele>994.71</ele>
        <time>2021-02-23T10:15:08.000Z</time>
      </trkpt>
      <trkpt lat="45.0622" lon="4.5323">
        <ele>996.71</ele>
        <time>2021-02-23T10:15:18.000Z</time>
      </trkpt>
      <trkpt lat="45.06228" lon="4.53234">
        <ele>998.21</ele>
        <time>2021-02-23T10:15:28.000Z</time>
      </trkpt>
      <trkpt lat="45.06237" lon="4.53242">
        <ele>998.41</ele>
        <time>2021-02-23T10:15:38.000Z</time>
      </trkpt>
      <trkpt lat="45.06247" lon="4.53247">
        <ele>999.44</ele>
        <time>2021-02-23T10:15:48.000Z</time>
      </trkpt>
      <trkpt lat="45.06255" lon="4.53251">
        <ele>999.46</ele>
        <time>2021-02-23T10:15:58.000Z</time>
      </trkpt>
      <trkpt lat="45.06262" lon="4.53263">
        <ele>997.48</ele>
        <time>2021-02-23T10:16:08.000Z</time>
      </trkpt>
      <trkpt lat="45.06271" lon="4.53276">
        <ele>995.17</ele>
        <time>2021-02-23T10:16:18.000Z</time>
      </trkpt>
      <trkpt lat="45.06281" lon="4.53284">
        <ele>994.15</ele>
        <time>2021-02-23T10:16:28.000Z</time>
      </trkpt>
      <trkpt lat="45.06289" lon="4.53296">
        <ele>991.83</ele>
        <time>2021-02-23T10:16:38.000Z</time>
      </trkpt>
      <trkpt lat="45.06296" lon="4.53298">
        <ele>991.71</ele>
        <time>2021-02-23T10:16:48.000Z</time>
      </trkpt>
      <trkpt lat="45.06302" lon="4.5329">
        <ele>993.73</ele>
        <time>2021-02-23T10:16:58.000Z</time>
      </trkpt>
      <trkpt lat="45.06304" lon="4.53281">
        <ele>995.61</ele>
        <time>2021-02-23T10:17:08.000Z</time>
      </trkpt>
      <trkpt lat="45.06308" lon="4.53277">
        <ele>996.53</ele>
        <time>2021-02-23T10:17:18.000Z</time>
      </trkpt>
      <trkpt lat="45.06315" lon="4.53266">
        <ele>998.58</ele>
        <time>2021-02-23T10:17:28.000Z</time>
      </trkpt>
      <trkpt lat="45.06322" lon="4.53255">
        <ele>999.81</ele>
        <time>2021-02-23T10:17:38.000Z</time>
      </trkpt>
      <trkpt lat="45.06327" lon="4.53244">
        <ele>1001.3</ele>
        <time>2021-02-23T10:17:48.000Z</time>
      </trkpt>
      <trkpt lat="45.06328" lon="4.53233">
        <ele>1003.19</ele>
        <time>2021-02-23T10:17:58.000Z</time>
      </trkpt>
      <trkpt lat="45.06331" lon="4.53219">
        <ele>1005.01</ele>
        <time>2021-02-23T10:18:08.000Z</time>
      </trkpt>
      <trkpt lat="45.06332" lon="4.53205">
        <ele>1006.98</ele>
        <time>2021-02-23T10:18:18.000Z</time>
      </trkpt>
      <trkpt lat="45.06335" lon="4.53189">
        <ele>1009.05</ele>
        <time>2021-02-23T10:18:28.000Z</time>
      </trkpt>
      <trkpt lat="45.06337" lon="4.53172">
        <ele>1011.08</ele>
        <time>2021-02-23T10:18:38.000Z</time>
      </trkpt>
      <trkpt lat="45.0634" lon="4.53156">
        <ele>1013.19</ele>
        <time>2021-02-23T10:18:48.000Z</time>
      </trkpt>
      <trkpt lat="45.0634" lon="4.5314">
        <ele>1015.82</ele>
        <time>2021-02-23T10:18:58.000Z</time>
      </trkpt>
      <trkpt lat="45.06342" lon="4.53124">
        <ele>1018.23</ele>
        <time>2021-02-23T10:19:08.000Z</time>
      </trkpt>
      <trkpt lat="45.06348" lon="4.53111">
        <ele>1018.24</ele>
        <time>2021-02-23T10:19:18.000Z</time>
      </trkpt>
      <trkpt lat="45.0635" lon="4.53093">
        <ele>1020.52</ele>
        <time>2021-02-23T10:19:28.000Z</time>
      </trkpt>
      <trkpt lat="45.06356" lon="4.53076">
        <ele>1021.42</ele>
        <time>2021-02-23T10:19:38.000Z</time>
      </trkpt>
      <trkpt lat="45.06366" lon="4.53062">
        <ele>1020.33</ele>
        <time>2021-02-23T10:19:48.000Z</time>
      </trkpt>
      <trkpt lat="45.06372" lon="4.53049">
        <ele>1020.33</ele>
        <time>2021-02-23T10:19:58.000Z</time>
      </trkpt>
      <trkpt lat="45.06379" lon="4.53035">
        <ele>1020.82</ele>
        <time>2021-02-23T10:20:08.000Z</time>
      </trkpt>
      <trkpt lat="45.06387" lon="4.53022">
        <ele>1020.74</ele>
        <time>2021-02-23T10:20:18.000Z</time>
      </trkpt>
      <trkpt lat="45.06393" lon="4.53007">
        <ele>1022.37</ele>
        <time>2021-02-23T10:20:28.000Z</time>
      </trkpt>
      <trkpt lat="45.06402" lon="4.52997">
        <ele>1022.67</ele>
        <time>2021-02-23T10:20:38.000Z</time>
      </trkpt>
      <trkpt lat="45.06412" lon="4.52991">
        <ele>1022.77</ele>
        <time>2021-02-23T10:20:48.000Z</time>
      </trkpt>
      <trkpt lat="45.0642" lon="4.5298">
        <ele>1024.78</ele>
        <time>2021-02-23T10:20:58.000Z</time>
      </trkpt>
      <trkpt lat="45.06425" lon="4.52967">
        <ele>1028.18</ele>
        <time>2021-02-23T10:21:08.000Z</time>
      </trkpt>
      <trkpt lat="45.06435" lon="4.52956">
        <ele>1031.01</ele>
        <time>2021-02-23T10:21:18.000Z</time>
      </trkpt>
      <trkpt lat="45.06443" lon="4.52941">
        <ele>1034.78</ele>
        <time>2021-02-23T10:21:28.000Z</time>
      </trkpt>
      <trkpt lat="45.06453" lon="4.52931">
        <ele>1036.98</ele>
        <time>2021-02-23T10:21:38.000Z</time>
      </trkpt>
      <trkpt lat="45.06463" lon="4.52921">
        <ele>1038.66</ele>
        <time>2021-02-23T10:21:48.000Z</time>
      </trkpt>
      <trkpt lat="45.06469" lon="4.52907">
        <ele>1040.04</ele>
        <time>2021-02-23T10:21:58.000Z</time>
      </trkpt>
      <trkpt lat="45.06478" lon="4.52893">
        <ele>1040.68</ele>
        <time>2021-02-23T10:22:08.000Z</time>
      </trkpt>
      <trkpt lat="45.06488" lon="4.52883">
        <ele>1040.85</ele>
        <time>2021-02-23T10:22:18.000Z</time>
      </trkpt>
      <trkpt lat="45.06502" lon="4.5288">
        <ele>1041.15</ele>
        <time>2021-02-23T10:22:28.000Z</time>
      </trkpt>
      <trkpt lat="45.06513" lon="4.52876">
        <ele>1041.49</ele>
        <time>2021-02-23T10:22:38.000Z</time>
      </trkpt>
      <trkpt lat="45.06525" lon="4.52871">
        <ele>1041.95</ele>
        <time>2021-02-23T10:22:48.000Z</time>
      </trkpt>
      <trkpt lat="45.06536" lon="4.52871">
        <ele>1042.61</ele>
        <time>2021-02-23T10:22:58.000Z</time>
      </trkpt>
      <trkpt lat="45.06548" lon="4.52869">
        <ele>1043.35</ele>
        <time>2021-02-23T10:23:08.000Z</time>
      </trkpt>
      <trkpt lat="45.0656" lon="4.52871">
        <ele>1044.11</ele>
        <time>2021-02-23T10:23:18.000Z</time>
      </trkpt>
      <trkpt lat="45.06571" lon="4.52875">
        <ele>1044.73</ele>
        <time>2021-02-23T10:23:28.000Z</time>
      </trkpt>
      <trkpt lat="45.0658" lon="4.52879">
        <ele>1045.18</ele>
        <time>2021-02-23T10:23:38.000Z</time>
      </trkpt>
      <trkpt lat="45.06592" lon="4.52882">
        <ele>1045.45</ele>
        <time>2021-02-23T10:23:48.000Z</time>
      </trkpt>
      <trkpt lat="45.06605" lon="4.52886">
        <ele>1045.69</ele>
        <time>2021-02-23T10:23:58.000Z</time>
      </trkpt>
      <trkpt lat="45.06618" lon="4.52886">
        <ele>1045.73</ele>
        <time>2021-02-23T10:24:08.000Z</time>
      </trkpt>
      <trkpt lat="45.06632" lon="4.52889">
        <ele>1045.73</ele>
        <time>2021-02-23T10:24:18.000Z</time>
      </trkpt>
      <trkpt lat="45.06644" lon="4.52892">
        <ele>1045.61</ele>
        <time>2021-02-23T10:24:28.000Z</time>
      </trkpt>
      <trkpt lat="45.06658" lon="4.52894">
        <ele>1045.32</ele>
        <time>2021-02-23T10:24:38.000Z</time>
      </trkpt>
      <trkpt lat="45.0667" lon="4.52895">
        <ele>1044.89</ele>
        <time>2021-02-23T10:24:48.000Z</time>
      </trkpt>
      <trkpt lat="45.06681" lon="4.52896">
        <ele>1044.44</ele>
        <time>2021-02-23T10:24:58.000Z</time>
      </trkpt>
      <trkpt lat="45.06692" lon="4.52893">
        <ele>1043.44</ele>
        <time>2021-02-23T10:25:08.000Z</time>
      </trkpt>
      <trkpt lat="45.06705" lon="4.52892">
        <ele>1042.39</ele>
        <time>2021-02-23T10:25:18.000Z</time>
      </trkpt>
      <trkpt lat="45.06717" lon="4.52895">
        <ele>1041.74</ele>
        <time>2021-02-23T10:25:28.000Z</time>
      </trkpt>
      <trkpt lat="45.06729" lon="4.52899">
        <ele>1041.18</ele>
        <time>2021-02-23T10:25:38.000Z</time>
      </trkpt>
      <trkpt lat="45.06741" lon="4.52901">
        <ele>1040.47</ele>
        <time>2021-02-23T10:25:48.000Z</time>
      </trkpt>
      <trkpt lat="45.06754" lon="4.52902">
        <ele>1039.37</ele>
        <time>2021-02-23T10:25:58.000Z</time>
      </trkpt>
      <trkpt lat="45.06767" lon="4.52903">
        <ele>1038.14</ele>
        <time>2021-02-23T10:26:08.000Z</time>
      </trkpt>
      <trkpt lat="45.0678" lon="4.52902">
        <ele>1036.26</ele>
        <time>2021-02-23T10:26:18.000Z</time>
      </trkpt>
      <trkpt lat="45.06792" lon="4.52903">
        <ele>1034.91</ele>
        <time>2021-02-23T10:26:28.000Z</time>
      </trkpt>
      <trkpt lat="45.06805" lon="4.52906">
        <ele>1033.67</ele>
        <time>2021-02-23T10:26:38.000Z</time>
      </trkpt>
      <trkpt lat="45.06816" lon="4.52914">
        <ele>1033.85</ele>
        <time>2021-02-23T10:26:48.000Z</time>
      </trkpt>
      <trkpt lat="45.06826" lon="4.52922">
        <ele>1034.03</ele>
        <time>2021-02-23T10:26:58.000Z</time>
      </trkpt>
      <trkpt lat="45.06838" lon="4.52926">
        <ele>1033.8</ele>
        <time>2021-02-23T10:27:08.000Z</time>
      </trkpt>
      <trkpt lat="45.06851" lon="4.52932">
        <ele>1033.73</ele>
        <time>2021-02-23T10:27:18.000Z</time>
      </trkpt>
      <trkpt lat="45.06864" lon="4.52932">
        <ele>1033.57</ele>
        <time>2021-02-23T10:27:28.000Z</time>
      </trkpt>
      <trkpt lat="45.06874" lon="4.52935">
        <ele>1033.49</ele>
        <time>2021-02-23T10:27:38.000Z</time>
      </trkpt>
      <trkpt lat="45.06882" lon="4.52936">
        <ele>1033.46</ele>
        <time>2021-02-23T10:27:48.000Z</time>
      </trkpt>
      <trkpt lat="45.06877" lon="4.52936">
        <ele>1033.47</ele>
        <time>2021-02-23T10:28:02.000Z</time>
      </trkpt>
      <trkpt lat="45.06881" lon="4.5293">
        <ele>1033.73</ele>
        <time>2021-02-23T10:28:13.000Z</time>
      </trkpt>
      <trkpt lat="45.06885" lon="4.52913">
        <ele>1034.15</ele>
        <time>2021-02-23T10:28:23.000Z</time>
      </trkpt>
      <trkpt lat="45.06891" lon="4.52898">
        <ele>1034.23</ele>
        <time>2021-02-23T10:28:33.000Z</time>
      </trkpt>
      <trkpt lat="45.06899" lon="4.52884">
        <ele>1034.49</ele>
        <time>2021-02-23T10:28:43.000Z</time>
      </trkpt>
      <trkpt lat="45.06906" lon="4.52868">
        <ele>1034.42</ele>
        <time>2021-02-23T10:28:53.000Z</time>
      </trkpt>
      <trkpt lat="45.06911" lon="4.52851">
        <ele>1033.81</ele>
        <time>2021-02-23T10:29:03.000Z</time>
      </trkpt>
      <trkpt lat="45.06918" lon="4.52834">
        <ele>1033.35</ele>
        <time>2021-02-23T10:29:13.000Z</time>
      </trkpt>
      <trkpt lat="45.06923" lon="4.52819">
        <ele>1032.56</ele>
        <time>2021-02-23T10:29:23.000Z</time>
      </trkpt>
      <trkpt lat="45.0693" lon="4.52802">
        <ele>1031.49</ele>
        <time>2021-02-23T10:29:33.000Z</time>
      </trkpt>
      <trkpt lat="45.06935" lon="4.52786">
        <ele>1030.13</ele>
        <time>2021-02-23T10:29:43.000Z</time>
      </trkpt>
      <trkpt lat="45.06943" lon="4.52772">
        <ele>1029.74</ele>
        <time>2021-02-23T10:29:53.000Z</time>
      </trkpt>
      <trkpt lat="45.0695" lon="4.52754">
        <ele>1029.06</ele>
        <time>2021-02-23T10:30:03.000Z</time>
      </trkpt>
      <trkpt lat="45.06955" lon="4.52736">
        <ele>1027.98</ele>
        <time>2021-02-23T10:30:13.000Z</time>
      </trkpt>
      <trkpt lat="45.06963" lon="4.52721">
        <ele>1028.37</ele>
        <time>2021-02-23T10:30:23.000Z</time>
      </trkpt>
      <trkpt lat="45.06971" lon="4.52708">
        <ele>1029.6</ele>
        <time>2021-02-23T10:30:33.000Z</time>
      </trkpt>
      <trkpt lat="45.06978" lon="4.52691">
        <ele>1029.17</ele>
        <time>2021-02-23T10:30:43.000Z</time>
      </trkpt>
      <trkpt lat="45.06983" lon="4.52675">
        <ele>1028.27</ele>
        <time>2021-02-23T10:30:53.000Z</time>
      </trkpt>
      <trkpt lat="45.06992" lon="4.52658">
        <ele>1028.76</ele>
        <time>2021-02-23T10:31:03.000Z</time>
      </trkpt>
      <trkpt lat="45.07001" lon="4.52642">
        <ele>1028.35</ele>
        <time>2021-02-23T10:31:13.000Z</time>
      </trkpt>
      <trkpt lat="45.07005" lon="4.52624">
        <ele>1025.96</ele>
        <time>2021-02-23T10:31:23.000Z</time>
      </trkpt>
      <trkpt lat="45.07007" lon="4.52606">
        <ele>1022.65</ele>
        <time>2021-02-23T10:31:33.000Z</time>
      </trkpt>
      <trkpt lat="45.07013" lon="4.52592">
        <ele>1021.77</ele>
        <time>2021-02-23T10:31:43.000Z</time>
      </trkpt>
      <trkpt lat="45.07016" lon="4.52573">
        <ele>1018.98</ele>
        <time>2021-02-23T10:31:53.000Z</time>
      </trkpt>
      <trkpt lat="45.07024" lon="4.52556">
        <ele>1018.26</ele>
        <time>2021-02-23T10:32:03.000Z</time>
      </trkpt>
      <trkpt lat="45.0703" lon="4.52538">
        <ele>1016.48</ele>
        <time>2021-02-23T10:32:13.000Z</time>
      </trkpt>
      <trkpt lat="45.07039" lon="4.52526">
        <ele>1017.34</ele>
        <time>2021-02-23T10:32:23.000Z</time>
      </trkpt>
      <trkpt lat="45.07049" lon="4.52512">
        <ele>1017.98</ele>
        <time>2021-02-23T10:32:33.000Z</time>
      </trkpt>
      <trkpt lat="45.07057" lon="4.52496">
        <ele>1017.59</ele>
        <time>2021-02-23T10:32:43.000Z</time>
      </trkpt>
      <trkpt lat="45.07063" lon="4.52482">
        <ele>1017.29</ele>
        <time>2021-02-23T10:32:53.000Z</time>
      </trkpt>
      <trkpt lat="45.0707" lon="4.5247">
        <ele>1017.07</ele>
        <time>2021-02-23T10:33:03.000Z</time>
      </trkpt>
      <trkpt lat="45.07074" lon="4.52454">
        <ele>1015.82</ele>
        <time>2021-02-23T10:33:13.000Z</time>
      </trkpt>
      <trkpt lat="45.07081" lon="4.52438">
        <ele>1015.04</ele>
        <time>2021-02-23T10:33:23.000Z</time>
      </trkpt>
      <trkpt lat="45.07089" lon="4.52421">
        <ele>1013.98</ele>
        <time>2021-02-23T10:33:33.000Z</time>
      </trkpt>
      <trkpt lat="45.07096" lon="4.52406">
        <ele>1012.81</ele>
        <time>2021-02-23T10:33:43.000Z</time>
      </trkpt>
      <trkpt lat="45.07104" lon="4.52392">
        <ele>1011.58</ele>
        <time>2021-02-23T10:33:53.000Z</time>
      </trkpt>
      <trkpt lat="45.07106" lon="4.52374">
        <ele>1010.4</ele>
        <time>2021-02-23T10:34:03.000Z</time>
      </trkpt>
      <trkpt lat="45.07106" lon="4.52354">
        <ele>1009.39</ele>
        <time>2021-02-23T10:34:13.000Z</time>
      </trkpt>
      <trkpt lat="45.07109" lon="4.52346">
        <ele>1008.7</ele>
        <time>2021-02-23T10:34:23.000Z</time>
      </trkpt>
      <trkpt lat="45.07106" lon="4.5234">
        <ele>1008.71</ele>
        <time>2021-02-23T10:34:41.000Z</time>
      </trkpt>
      <trkpt lat="45.07107" lon="4.52323">
        <ele>1007.6</ele>
        <time>2021-02-23T10:34:51.000Z</time>
      </trkpt>
      <trkpt lat="45.07108" lon="4.52315">
        <ele>1007.02</ele>
        <time>2021-02-23T10:35:02.000Z</time>
      </trkpt>
      <trkpt lat="45.07107" lon="4.52301">
        <ele>1006.08</ele>
        <time>2021-02-23T10:35:12.000Z</time>
      </trkpt>
      <trkpt lat="45.07107" lon="4.52284">
        <ele>1005.07</ele>
        <time>2021-02-23T10:35:22.000Z</time>
      </trkpt>
      <trkpt lat="45.07108" lon="4.52266">
        <ele>1004.1</ele>
        <time>2021-02-23T10:35:32.000Z</time>
      </trkpt>
      <trkpt lat="45.07109" lon="4.52249">
        <ele>1003.53</ele>
        <time>2021-02-23T10:35:42.000Z</time>
      </trkpt>
      <trkpt lat="45.07109" lon="4.52242">
        <ele>1003.4</ele>
        <time>2021-02-23T10:36:12.000Z</time>
      </trkpt>
      <trkpt lat="45.07111" lon="4.52225">
        <ele>1003.34</ele>
        <time>2021-02-23T10:36:22.000Z</time>
      </trkpt>
      <trkpt lat="45.07112" lon="4.52208">
        <ele>1003.57</ele>
        <time>2021-02-23T10:36:32.000Z</time>
      </trkpt>
      <trkpt lat="45.07114" lon="4.52195">
        <ele>1003.59</ele>
        <time>2021-02-23T10:36:42.000Z</time>
      </trkpt>
      <trkpt lat="45.07115" lon="4.52189">
        <ele>1003.67</ele>
        <time>2021-02-23T10:36:56.000Z</time>
      </trkpt>
      <trkpt lat="45.07116" lon="4.52171">
        <ele>1003.74</ele>
        <time>2021-02-23T10:37:06.000Z</time>
      </trkpt>
      <trkpt lat="45.0712" lon="4.52156">
        <ele>1003.06</ele>
        <time>2021-02-23T10:37:16.000Z</time>
      </trkpt>
      <trkpt lat="45.0712" lon="4.52149">
        <ele>1002.97</ele>
        <time>2021-02-23T10:37:47.000Z</time>
      </trkpt>
      <trkpt lat="45.07122" lon="4.52142">
        <ele>1002.55</ele>
        <time>2021-02-23T10:38:11.000Z</time>
      </trkpt>
      <trkpt lat="45.07122" lon="4.52131">
        <ele>1002.55</ele>
        <time>2021-02-23T10:38:21.000Z</time>
      </trkpt>
      <trkpt lat="45.07121" lon="4.52121">
        <ele>1002.77</ele>
        <time>2021-02-23T10:38:31.000Z</time>
      </trkpt>
      <trkpt lat="45.07122" lon="4.5211">
        <ele>1002.4</ele>
        <time>2021-02-23T10:38:41.000Z</time>
      </trkpt>
      <trkpt lat="45.07122" lon="4.52094">
        <ele>1002.34</ele>
        <time>2021-02-23T10:38:51.000Z</time>
      </trkpt>
      <trkpt lat="45.07124" lon="4.52075">
        <ele>1001.74</ele>
        <time>2021-02-23T10:39:01.000Z</time>
      </trkpt>
      <trkpt lat="45.07124" lon="4.52058">
        <ele>1001.69</ele>
        <time>2021-02-23T10:39:11.000Z</time>
      </trkpt>
      <trkpt lat="45.07124" lon="4.52042">
        <ele>1001.52</ele>
        <time>2021-02-23T10:39:21.000Z</time>
      </trkpt>
      <trkpt lat="45.07124" lon="4.52024">
        <ele>1001.2</ele>
        <time>2021-02-23T10:39:31.000Z</time>
      </trkpt>
      <trkpt lat="45.07123" lon="4.52007">
        <ele>1000.91</ele>
        <time>2021-02-23T10:39:41.000Z</time>
      </trkpt>
      <trkpt lat="45.07122" lon="4.5199">
        <ele>1000.31</ele>
        <time>2021-02-23T10:39:51.000Z</time>
      </trkpt>
      <trkpt lat="45.07124" lon="4.51972">
        <ele>998.94</ele>
        <time>2021-02-23T10:40:01.000Z</time>
      </trkpt>
      <trkpt lat="45.07124" lon="4.51953">
        <ele>997.43</ele>
        <time>2021-02-23T10:40:11.000Z</time>
      </trkpt>
      <trkpt lat="45.07125" lon="4.51935">
        <ele>995.7</ele>
        <time>2021-02-23T10:40:21.000Z</time>
      </trkpt>
      <trkpt lat="45.07129" lon="4.51918">
        <ele>993.67</ele>
        <time>2021-02-23T10:40:31.000Z</time>
      </trkpt>
      <trkpt lat="45.07129" lon="4.51904">
        <ele>992.07</ele>
        <time>2021-02-23T10:40:41.000Z</time>
      </trkpt>
      <trkpt lat="45.07133" lon="4.51889">
        <ele>989.87</ele>
        <time>2021-02-23T10:40:51.000Z</time>
      </trkpt>
      <trkpt lat="45.07134" lon="4.51871">
        <ele>987.51</ele>
        <time>2021-02-23T10:41:01.000Z</time>
      </trkpt>
      <trkpt lat="45.07135" lon="4.51853">
        <ele>985.11</ele>
        <time>2021-02-23T10:41:11.000Z</time>
      </trkpt>
      <trkpt lat="45.07138" lon="4.51838">
        <ele>982.94</ele>
        <time>2021-02-23T10:41:21.000Z</time>
      </trkpt>
      <trkpt lat="45.07143" lon="4.51823">
        <ele>980.9</ele>
        <time>2021-02-23T10:41:31.000Z</time>
      </trkpt>
      <trkpt lat="45.07144" lon="4.51807">
        <ele>978.69</ele>
        <time>2021-02-23T10:41:41.000Z</time>
      </trkpt>
      <trkpt lat="45.07144" lon="4.51789">
        <ele>976.05</ele>
        <time>2021-02-23T10:41:51.000Z</time>
      </trkpt>
      <trkpt lat="45.07141" lon="4.51774">
        <ele>973.78</ele>
        <time>2021-02-23T10:42:01.000Z</time>
      </trkpt>
      <trkpt lat="45.07141" lon="4.51756">
        <ele>971.41</ele>
        <time>2021-02-23T10:42:11.000Z</time>
      </trkpt>
      <trkpt lat="45.0714" lon="4.51738">
        <ele>969.28</ele>
        <time>2021-02-23T10:42:21.000Z</time>
      </trkpt>
      <trkpt lat="45.07138" lon="4.51721">
        <ele>967.3</ele>
        <time>2021-02-23T10:42:31.000Z</time>
      </trkpt>
      <trkpt lat="45.07136" lon="4.51701">
        <ele>965.2</ele>
        <time>2021-02-23T10:42:41.000Z</time>
      </trkpt>
      <trkpt lat="45.07133" lon="4.51684">
        <ele>963.45</ele>
        <time>2021-02-23T10:42:51.000Z</time>
      </trkpt>
      <trkpt lat="45.07133" lon="4.51666">
        <ele>962.01</ele>
        <time>2021-02-23T10:43:01.000Z</time>
      </trkpt>
      <trkpt lat="45.07128" lon="4.51651">
        <ele>960.53</ele>
        <time>2021-02-23T10:43:11.000Z</time>
      </trkpt>
      <trkpt lat="45.07129" lon="4.51632">
        <ele>959.5</ele>
        <time>2021-02-23T10:43:21.000Z</time>
      </trkpt>
      <trkpt lat="45.07128" lon="4.51613">
        <ele>958.57</ele>
        <time>2021-02-23T10:43:31.000Z</time>
      </trkpt>
      <trkpt lat="45.07133" lon="4.51597">
        <ele>958.1</ele>
        <time>2021-02-23T10:43:41.000Z</time>
      </trkpt>
      <trkpt lat="45.07136" lon="4.5158">
        <ele>957.38</ele>
        <time>2021-02-23T10:43:51.000Z</time>
      </trkpt>
      <trkpt lat="45.0714" lon="4.51563">
        <ele>956.58</ele>
        <time>2021-02-23T10:44:01.000Z</time>
      </trkpt>
      <trkpt lat="45.07141" lon="4.51545">
        <ele>955.7</ele>
        <time>2021-02-23T10:44:11.000Z</time>
      </trkpt>
      <trkpt lat="45.07139" lon="4.51526">
        <ele>954.96</ele>
        <time>2021-02-23T10:44:21.000Z</time>
      </trkpt>
      <trkpt lat="45.07143" lon="4.51506">
        <ele>953.88</ele>
        <time>2021-02-23T10:44:31.000Z</time>
      </trkpt>
      <trkpt lat="45.07145" lon="4.5149">
        <ele>952.98</ele>
        <time>2021-02-23T10:44:41.000Z</time>
      </trkpt>
      <trkpt lat="45.07152" lon="4.51473">
        <ele>951.62</ele>
        <time>2021-02-23T10:44:51.000Z</time>
      </trkpt>
      <trkpt lat="45.07156" lon="4.51454">
        <ele>950.45</ele>
        <time>2021-02-23T10:45:01.000Z</time>
      </trkpt>
      <trkpt lat="45.07157" lon="4.51434">
        <ele>949.59</ele>
        <time>2021-02-23T10:45:11.000Z</time>
      </trkpt>
      <trkpt lat="45.07157" lon="4.51417">
        <ele>948.98</ele>
        <time>2021-02-23T10:45:21.000Z</time>
      </trkpt>
      <trkpt lat="45.07156" lon="4.51401">
        <ele>948.74</ele>
        <time>2021-02-23T10:45:31.000Z</time>
      </trkpt>
      <trkpt lat="45.07155" lon="4.51385">
        <ele>948.4</ele>
        <time>2021-02-23T10:45:41.000Z</time>
      </trkpt>
      <trkpt lat="45.07155" lon="4.51367">
        <ele>948.09</ele>
        <time>2021-02-23T10:45:51.000Z</time>
      </trkpt>
      <trkpt lat="45.07149" lon="4.51357">
        <ele>948.19</ele>
        <time>2021-02-23T10:46:01.000Z</time>
      </trkpt>
      <trkpt lat="45.0715" lon="4.51347">
        <ele>947.96</ele>
        <time>2021-02-23T10:46:11.000Z</time>
      </trkpt>
      <trkpt lat="45.07155" lon="4.51347">
        <ele>947.74</ele>
        <time>2021-02-23T10:46:21.000Z</time>
      </trkpt>
      <trkpt lat="45.07151" lon="4.51342">
        <ele>947.81</ele>
        <time>2021-02-23T10:46:40.000Z</time>
      </trkpt>
      <trkpt lat="45.07151" lon="4.51324">
        <ele>947.49</ele>
        <time>2021-02-23T10:46:50.000Z</time>
      </trkpt>
      <trkpt lat="45.07152" lon="4.51306">
        <ele>947.22</ele>
        <time>2021-02-23T10:47:00.000Z</time>
      </trkpt>
      <trkpt lat="45.07152" lon="4.51289">
        <ele>947.01</ele>
        <time>2021-02-23T10:47:10.000Z</time>
      </trkpt>
      <trkpt lat="45.07152" lon="4.51273">
        <ele>946.81</ele>
        <time>2021-02-23T10:47:20.000Z</time>
      </trkpt>
      <trkpt lat="45.07153" lon="4.51261">
        <ele>946.66</ele>
        <time>2021-02-23T10:47:30.000Z</time>
      </trkpt>
      <trkpt lat="45.07151" lon="4.51246">
        <ele>946.52</ele>
        <time>2021-02-23T10:47:40.000Z</time>
      </trkpt>
      <trkpt lat="45.07147" lon="4.51233">
        <ele>946.45</ele>
        <time>2021-02-23T10:47:50.000Z</time>
      </trkpt>
      <trkpt lat="45.07139" lon="4.51225">
        <ele>946.42</ele>
        <time>2021-02-23T10:48:00.000Z</time>
      </trkpt>
      <trkpt lat="45.07129" lon="4.51217">
        <ele>946.16</ele>
        <time>2021-02-23T10:48:10.000Z</time>
      </trkpt>
      <trkpt lat="45.07122" lon="4.51201">
        <ele>945.71</ele>
        <time>2021-02-23T10:48:20.000Z</time>
      </trkpt>
      <trkpt lat="45.07118" lon="4.51187">
        <ele>945.21</ele>
        <time>2021-02-23T10:48:30.000Z</time>
      </trkpt>
      <trkpt lat="45.07119" lon="4.51174">
        <ele>944.98</ele>
        <time>2021-02-23T10:48:40.000Z</time>
      </trkpt>
      <trkpt lat="45.07119" lon="4.5116">
        <ele>944.5</ele>
        <time>2021-02-23T10:48:50.000Z</time>
      </trkpt>
      <trkpt lat="45.07124" lon="4.51146">
        <ele>944.24</ele>
        <time>2021-02-23T10:49:00.000Z</time>
      </trkpt>
      <trkpt lat="45.07131" lon="4.51135">
        <ele>944.08</ele>
        <time>2021-02-23T10:49:10.000Z</time>
      </trkpt>
      <trkpt lat="45.07136" lon="4.51122">
        <ele>943.67</ele>
        <time>2021-02-23T10:49:20.000Z</time>
      </trkpt>
      <trkpt lat="45.07143" lon="4.51109">
        <ele>943.32</ele>
        <time>2021-02-23T10:49:30.000Z</time>
      </trkpt>
      <trkpt lat="45.07151" lon="4.51094">
        <ele>942.9</ele>
        <time>2021-02-23T10:49:40.000Z</time>
      </trkpt>
      <trkpt lat="45.0716" lon="4.51081">
        <ele>942.8</ele>
        <time>2021-02-23T10:49:50.000Z</time>
      </trkpt>
      <trkpt lat="45.0717" lon="4.5107">
        <ele>942.78</ele>
        <time>2021-02-23T10:50:00.000Z</time>
      </trkpt>
      <trkpt lat="45.07179" lon="4.51057">
        <ele>942.81</ele>
        <time>2021-02-23T10:50:10.000Z</time>
      </trkpt>
      <trkpt lat="45.07182" lon="4.51039">
        <ele>942.86</ele>
        <time>2021-02-23T10:50:20.000Z</time>
      </trkpt>
      <trkpt lat="45.07185" lon="4.51023">
        <ele>943.01</ele>
        <time>2021-02-23T10:50:30.000Z</time>
      </trkpt>
      <trkpt lat="45.0719" lon="4.51005">
        <ele>943.32</ele>
        <time>2021-02-23T10:50:40.000Z</time>
      </trkpt>
      <trkpt lat="45.07196" lon="4.5099">
        <ele>943.81</ele>
        <time>2021-02-23T10:50:50.000Z</time>
      </trkpt>
      <trkpt lat="45.07203" lon="4.50976">
        <ele>944.68</ele>
        <time>2021-02-23T10:51:00.000Z</time>
      </trkpt>
      <trkpt lat="45.07208" lon="4.50962">
        <ele>945.59</ele>
        <time>2021-02-23T10:51:10.000Z</time>
      </trkpt>
      <trkpt lat="45.07211" lon="4.50948">
        <ele>946.44</ele>
        <time>2021-02-23T10:51:20.000Z</time>
      </trkpt>
      <trkpt lat="45.07217" lon="4.50933">
        <ele>947.5</ele>
        <time>2021-02-23T10:51:30.000Z</time>
      </trkpt>
      <trkpt lat="45.07224" lon="4.5092">
        <ele>948.47</ele>
        <time>2021-02-23T10:51:40.000Z</time>
      </trkpt>
      <trkpt lat="45.07231" lon="4.50905">
        <ele>949.1</ele>
        <time>2021-02-23T10:51:50.000Z</time>
      </trkpt>
      <trkpt lat="45.07233" lon="4.50887">
        <ele>949.14</ele>
        <time>2021-02-23T10:52:00.000Z</time>
      </trkpt>
      <trkpt lat="45.07236" lon="4.50867">
        <ele>948.85</ele>
        <time>2021-02-23T10:52:10.000Z</time>
      </trkpt>
      <trkpt lat="45.07241" lon="4.50851">
        <ele>948.59</ele>
        <time>2021-02-23T10:52:20.000Z</time>
      </trkpt>
      <trkpt lat="45.07241" lon="4.50837">
        <ele>947.84</ele>
        <time>2021-02-23T10:52:30.000Z</time>
      </trkpt>
      <trkpt lat="45.0724" lon="4.50822">
        <ele>946.78</ele>
        <time>2021-02-23T10:52:40.000Z</time>
      </trkpt>
      <trkpt lat="45.07242" lon="4.50805">
        <ele>945.52</ele>
        <time>2021-02-23T10:52:50.000Z</time>
      </trkpt>
      <trkpt lat="45.07248" lon="4.5079">
        <ele>944.53</ele>
        <time>2021-02-23T10:53:00.000Z</time>
      </trkpt>
      <trkpt lat="45.07254" lon="4.50779">
        <ele>943.62</ele>
        <time>2021-02-23T10:53:10.000Z</time>
      </trkpt>
      <trkpt lat="45.07257" lon="4.50774">
        <ele>943.1</ele>
        <time>2021-02-23T10:53:21.000Z</time>
      </trkpt>
      <trkpt lat="45.07261" lon="4.50765">
        <ele>942.19</ele>
        <time>2021-02-23T10:53:31.000Z</time>
      </trkpt>
      <trkpt lat="45.07263" lon="4.5075">
        <ele>940.53</ele>
        <time>2021-02-23T10:53:41.000Z</time>
      </trkpt>
      <trkpt lat="45.07266" lon="4.50742">
        <ele>939.53</ele>
        <time>2021-02-23T10:53:51.000Z</time>
      </trkpt>
      <trkpt lat="45.07268" lon="4.50724">
        <ele>937.2</ele>
        <time>2021-02-23T10:54:01.000Z</time>
      </trkpt>
      <trkpt lat="45.07272" lon="4.50708">
        <ele>935.19</ele>
        <time>2021-02-23T10:54:11.000Z</time>
      </trkpt>
      <trkpt lat="45.0728" lon="4.50697">
        <ele>933.88</ele>
        <time>2021-02-23T10:54:21.000Z</time>
      </trkpt>
      <trkpt lat="45.07287" lon="4.5068">
        <ele>932.14</ele>
        <time>2021-02-23T10:54:31.000Z</time>
      </trkpt>
      <trkpt lat="45.07292" lon="4.50662">
        <ele>930.33</ele>
        <time>2021-02-23T10:54:41.000Z</time>
      </trkpt>
      <trkpt lat="45.07298" lon="4.50648">
        <ele>928.99</ele>
        <time>2021-02-23T10:54:51.000Z</time>
      </trkpt>
      <trkpt lat="45.07306" lon="4.50637">
        <ele>928.01</ele>
        <time>2021-02-23T10:55:01.000Z</time>
      </trkpt>
      <trkpt lat="45.07313" lon="4.50625">
        <ele>926.76</ele>
        <time>2021-02-23T10:55:11.000Z</time>
      </trkpt>
      <trkpt lat="45.07318" lon="4.50609">
        <ele>925.17</ele>
        <time>2021-02-23T10:55:21.000Z</time>
      </trkpt>
      <trkpt lat="45.07318" lon="4.50589">
        <ele>923.25</ele>
        <time>2021-02-23T10:55:31.000Z</time>
      </trkpt>
      <trkpt lat="45.07319" lon="4.50572">
        <ele>921.82</ele>
        <time>2021-02-23T10:55:41.000Z</time>
      </trkpt>
      <trkpt lat="45.07319" lon="4.50558">
        <ele>920.75</ele>
        <time>2021-02-23T10:55:51.000Z</time>
      </trkpt>
      <trkpt lat="45.07317" lon="4.50541">
        <ele>919.25</ele>
        <time>2021-02-23T10:56:01.000Z</time>
      </trkpt>
      <trkpt lat="45.07322" lon="4.50525">
        <ele>918.78</ele>
        <time>2021-02-23T10:56:11.000Z</time>
      </trkpt>
      <trkpt lat="45.07327" lon="4.50511">
        <ele>918.3</ele>
        <time>2021-02-23T10:56:21.000Z</time>
      </trkpt>
      <trkpt lat="45.07331" lon="4.50495">
        <ele>917.44</ele>
        <time>2021-02-23T10:56:31.000Z</time>
      </trkpt>
      <trkpt lat="45.07334" lon="4.50477">
        <ele>916.48</ele>
        <time>2021-02-23T10:56:41.000Z</time>
      </trkpt>
      <trkpt lat="45.07339" lon="4.50461">
        <ele>915.76</ele>
        <time>2021-02-23T10:56:51.000Z</time>
      </trkpt>
      <trkpt lat="45.07344" lon="4.50448">
        <ele>914.99</ele>
        <time>2021-02-23T10:57:01.000Z</time>
      </trkpt>
      <trkpt lat="45.07354" lon="4.50439">
        <ele>914.3</ele>
        <time>2021-02-23T10:57:11.000Z</time>
      </trkpt>
      <trkpt lat="45.07364" lon="4.50426">
        <ele>912.74</ele>
        <time>2021-02-23T10:57:21.000Z</time>
      </trkpt>
      <trkpt lat="45.07358" lon="4.50408">
        <ele>910.81</ele>
        <time>2021-02-23T10:57:31.000Z</time>
      </trkpt>
      <trkpt lat="45.07349" lon="4.50395">
        <ele>908.76</ele>
        <time>2021-02-23T10:57:41.000Z</time>
      </trkpt>
      <trkpt lat="45.0734" lon="4.50384">
        <ele>906.4</ele>
        <time>2021-02-23T10:57:51.000Z</time>
      </trkpt>
      <trkpt lat="45.07331" lon="4.50379">
        <ele>904.6</ele>
        <time>2021-02-23T10:58:01.000Z</time>
      </trkpt>
      <trkpt lat="45.07319" lon="4.50374">
        <ele>902.14</ele>
        <time>2021-02-23T10:58:11.000Z</time>
      </trkpt>
      <trkpt lat="45.07309" lon="4.50369">
        <ele>899.5</ele>
        <time>2021-02-23T10:58:21.000Z</time>
      </trkpt>
      <trkpt lat="45.07296" lon="4.50367">
        <ele>896.57</ele>
        <time>2021-02-23T10:58:31.000Z</time>
      </trkpt>
      <trkpt lat="45.07286" lon="4.50364">
        <ele>893.64</ele>
        <time>2021-02-23T10:58:41.000Z</time>
      </trkpt>
      <trkpt lat="45.07276" lon="4.50358">
        <ele>890.18</ele>
        <time>2021-02-23T10:58:51.000Z</time>
      </trkpt>
      <trkpt lat="45.0727" lon="4.50348">
        <ele>887.13</ele>
        <time>2021-02-23T10:59:01.000Z</time>
      </trkpt>
      <trkpt lat="45.0728" lon="4.50336">
        <ele>887.35</ele>
        <time>2021-02-23T10:59:11.000Z</time>
      </trkpt>
      <trkpt lat="45.07283" lon="4.50326">
        <ele>885.95</ele>
        <time>2021-02-23T10:59:21.000Z</time>
      </trkpt>
      <trkpt lat="45.07288" lon="4.50313">
        <ele>883.98</ele>
        <time>2021-02-23T10:59:31.000Z</time>
      </trkpt>
      <trkpt lat="45.07288" lon="4.50297">
        <ele>880.06</ele>
        <time>2021-02-23T10:59:41.000Z</time>
      </trkpt>
      <trkpt lat="45.07293" lon="4.50286">
        <ele>877.59</ele>
        <time>2021-02-23T10:59:51.000Z</time>
      </trkpt>
      <trkpt lat="45.07299" lon="4.50288">
        <ele>878.76</ele>
        <time>2021-02-23T11:00:01.000Z</time>
      </trkpt>
      <trkpt lat="45.07299" lon="4.50271">
        <ele>873.76</ele>
        <time>2021-02-23T11:00:11.000Z</time>
      </trkpt>
      <trkpt lat="45.07285" lon="4.50266">
        <ele>871.43</ele>
        <time>2021-02-23T11:00:21.000Z</time>
      </trkpt>
      <trkpt lat="45.07274" lon="4.50268">
        <ele>870.83</ele>
        <time>2021-02-23T11:00:31.000Z</time>
      </trkpt>
      <trkpt lat="45.07263" lon="4.50256">
        <ele>866.67</ele>
        <time>2021-02-23T11:00:41.000Z</time>
      </trkpt>
      <trkpt lat="45.07252" lon="4.50247">
        <ele>862.54</ele>
        <time>2021-02-23T11:00:51.000Z</time>
      </trkpt>
      <trkpt lat="45.07245" lon="4.50232">
        <ele>857.72</ele>
        <time>2021-02-23T11:01:01.000Z</time>
      </trkpt>
      <trkpt lat="45.07239" lon="4.50222">
        <ele>854.42</ele>
        <time>2021-02-23T11:01:11.000Z</time>
      </trkpt>
      <trkpt lat="45.07232" lon="4.5021">
        <ele>850.59</ele>
        <time>2021-02-23T11:01:21.000Z</time>
      </trkpt>
      <trkpt lat="45.07224" lon="4.502">
        <ele>847.43</ele>
        <time>2021-02-23T11:01:31.000Z</time>
      </trkpt>
      <trkpt lat="45.07218" lon="4.50187">
        <ele>844.39</ele>
        <time>2021-02-23T11:01:41.000Z</time>
      </trkpt>
      <trkpt lat="45.0721" lon="4.50175">
        <ele>841.86</ele>
        <time>2021-02-23T11:01:51.000Z</time>
      </trkpt>
      <trkpt lat="45.07209" lon="4.50162">
        <ele>839.53</ele>
        <time>2021-02-23T11:02:01.000Z</time>
      </trkpt>
      <trkpt lat="45.07208" lon="4.50149">
        <ele>837.07</ele>
        <time>2021-02-23T11:02:11.000Z</time>
      </trkpt>
      <trkpt lat="45.07201" lon="4.50135">
        <ele>834.69</ele>
        <time>2021-02-23T11:02:21.000Z</time>
      </trkpt>
      <trkpt lat="45.07194" lon="4.50122">
        <ele>832.76</ele>
        <time>2021-02-23T11:02:31.000Z</time>
      </trkpt>
      <trkpt lat="45.0719" lon="4.50107">
        <ele>830.18</ele>
        <time>2021-02-23T11:02:41.000Z</time>
      </trkpt>
      <trkpt lat="45.07182" lon="4.50095">
        <ele>828.27</ele>
        <time>2021-02-23T11:02:51.000Z</time>
      </trkpt>
      <trkpt lat="45.07172" lon="4.50085">
        <ele>826.53</ele>
        <time>2021-02-23T11:03:01.000Z</time>
      </trkpt>
      <trkpt lat="45.07166" lon="4.50072">
        <ele>823.72</ele>
        <time>2021-02-23T11:03:11.000Z</time>
      </trkpt>
      <trkpt lat="45.07158" lon="4.50058">
        <ele>820.41</ele>
        <time>2021-02-23T11:03:21.000Z</time>
      </trkpt>
      <trkpt lat="45.07149" lon="4.50049">
        <ele>817.67</ele>
        <time>2021-02-23T11:03:31.000Z</time>
      </trkpt>
      <trkpt lat="45.07139" lon="4.50039">
        <ele>814.6</ele>
        <time>2021-02-23T11:03:41.000Z</time>
      </trkpt>
      <trkpt lat="45.07131" lon="4.50026">
        <ele>811.31</ele>
        <time>2021-02-23T11:03:51.000Z</time>
      </trkpt>
      <trkpt lat="45.07122" lon="4.50013">
        <ele>808.28</ele>
        <time>2021-02-23T11:04:01.000Z</time>
      </trkpt>
      <trkpt lat="45.07115" lon="4.50005">
        <ele>806.31</ele>
        <time>2021-02-23T11:04:11.000Z</time>
      </trkpt>
      <trkpt lat="45.07109" lon="4.49997">
        <ele>804.54</ele>
        <time>2021-02-23T11:04:21.000Z</time>
      </trkpt>
      <trkpt lat="45.07099" lon="4.49995">
        <ele>803.05</ele>
        <time>2021-02-23T11:04:31.000Z</time>
      </trkpt>
      <trkpt lat="45.07094" lon="4.49991">
        <ele>801.87</ele>
        <time>2021-02-23T11:04:47.000Z</time>
      </trkpt>
      <trkpt lat="45.07087" lon="4.49982">
        <ele>799.46</ele>
        <time>2021-02-23T11:04:57.000Z</time>
      </trkpt>
      <trkpt lat="45.07081" lon="4.4997">
        <ele>796.63</ele>
        <time>2021-02-23T11:05:07.000Z</time>
      </trkpt>
      <trkpt lat="45.07077" lon="4.49955">
        <ele>793.45</ele>
        <time>2021-02-23T11:05:17.000Z</time>
      </trkpt>
      <trkpt lat="45.07072" lon="4.49941">
        <ele>790.07</ele>
        <time>2021-02-23T11:05:27.000Z</time>
      </trkpt>
      <trkpt lat="45.07065" lon="4.4993">
        <ele>786.89</ele>
        <time>2021-02-23T11:05:37.000Z</time>
      </trkpt>
      <trkpt lat="45.07059" lon="4.49921">
        <ele>783.99</ele>
        <time>2021-02-23T11:05:47.000Z</time>
      </trkpt>
      <trkpt lat="45.07053" lon="4.49908">
        <ele>780.76</ele>
        <time>2021-02-23T11:05:57.000Z</time>
      </trkpt>
      <trkpt lat="45.07047" lon="4.49898">
        <ele>777.7</ele>
        <time>2021-02-23T11:06:07.000Z</time>
      </trkpt>
      <trkpt lat="45.07039" lon="4.49887">
        <ele>774.43</ele>
        <time>2021-02-23T11:06:17.000Z</time>
      </trkpt>
      <trkpt lat="45.07032" lon="4.49875">
        <ele>771.34</ele>
        <time>2021-02-23T11:06:27.000Z</time>
      </trkpt>
      <trkpt lat="45.07026" lon="4.49863">
        <ele>768.35</ele>
        <time>2021-02-23T11:06:37.000Z</time>
      </trkpt>
      <trkpt lat="45.07022" lon="4.49849">
        <ele>765.52</ele>
        <time>2021-02-23T11:06:47.000Z</time>
      </trkpt>
      <trkpt lat="45.07027" lon="4.49843">
        <ele>765</ele>
        <time>2021-02-23T11:06:57.000Z</time>
      </trkpt>
      <trkpt lat="45.07037" lon="4.49843">
        <ele>765.63</ele>
        <time>2021-02-23T11:07:07.000Z</time>
      </trkpt>
      <trkpt lat="45.07045" lon="4.49841">
        <ele>765.6</ele>
        <time>2021-02-23T11:07:17.000Z</time>
      </trkpt>
      <trkpt lat="45.0704" lon="4.49837">
        <ele>764.6</ele>
        <time>2021-02-23T11:07:31.000Z</time>
      </trkpt>
      <trkpt lat="45.07031" lon="4.4983">
        <ele>762.79</ele>
        <time>2021-02-23T11:07:41.000Z</time>
      </trkpt>
      <trkpt lat="45.0702" lon="4.49826">
        <ele>761.25</ele>
        <time>2021-02-23T11:07:51.000Z</time>
      </trkpt>
      <trkpt lat="45.0701" lon="4.49817">
        <ele>758.98</ele>
        <time>2021-02-23T11:08:01.000Z</time>
      </trkpt>
      <trkpt lat="45.07004" lon="4.49802">
        <ele>755.82</ele>
        <time>2021-02-23T11:08:11.000Z</time>
      </trkpt>
      <trkpt lat="45.06998" lon="4.49789">
        <ele>753.02</ele>
        <time>2021-02-23T11:08:21.000Z</time>
      </trkpt>
      <trkpt lat="45.06987" lon="4.49782">
        <ele>750.57</ele>
        <time>2021-02-23T11:08:31.000Z</time>
      </trkpt>
      <trkpt lat="45.0698" lon="4.49769">
        <ele>747.6</ele>
        <time>2021-02-23T11:08:41.000Z</time>
      </trkpt>
      <trkpt lat="45.06974" lon="4.49759">
        <ele>744.95</ele>
        <time>2021-02-23T11:08:51.000Z</time>
      </trkpt>
      <trkpt lat="45.06964" lon="4.49753">
        <ele>742.48</ele>
        <time>2021-02-23T11:09:01.000Z</time>
      </trkpt>
      <trkpt lat="45.06964" lon="4.49746">
        <ele>741.44</ele>
        <time>2021-02-23T11:09:14.000Z</time>
      </trkpt>
      <trkpt lat="45.06961" lon="4.49733">
        <ele>739.29</ele>
        <time>2021-02-23T11:09:24.000Z</time>
      </trkpt>
      <trkpt lat="45.06962" lon="4.49725">
        <ele>738.23</ele>
        <time>2021-02-23T11:09:34.000Z</time>
      </trkpt>
      <trkpt lat="45.06969" lon="4.49728">
        <ele>739.68</ele>
        <time>2021-02-23T11:09:44.000Z</time>
      </trkpt>
      <trkpt lat="45.06965" lon="4.49726">
        <ele>738.84</ele>
        <time>2021-02-23T11:10:04.000Z</time>
      </trkpt>
      <trkpt lat="45.06966" lon="4.49726">
        <ele>738.92</ele>
        <time>2021-02-23T11:10:35.000Z</time>
      </trkpt>
      <trkpt lat="45.06961" lon="4.49725">
        <ele>738.15</ele>
        <time>2021-02-23T11:43:25.000Z</time>
      </trkpt>
      <trkpt lat="45.06954" lon="4.49719">
        <ele>736.37</ele>
        <time>2021-02-23T11:43:35.000Z</time>
      </trkpt>
      <trkpt lat="45.06955" lon="4.49707">
        <ele>734.9</ele>
        <time>2021-02-23T11:43:45.000Z</time>
      </trkpt>
      <trkpt lat="45.06951" lon="4.49696">
        <ele>733.04</ele>
        <time>2021-02-23T11:43:55.000Z</time>
      </trkpt>
      <trkpt lat="45.06943" lon="4.4969">
        <ele>731.67</ele>
        <time>2021-02-23T11:44:05.000Z</time>
      </trkpt>
      <trkpt lat="45.06935" lon="4.4968">
        <ele>730</ele>
        <time>2021-02-23T11:44:15.000Z</time>
      </trkpt>
      <trkpt lat="45.06935" lon="4.49666">
        <ele>728.74</ele>
        <time>2021-02-23T11:44:25.000Z</time>
      </trkpt>
      <trkpt lat="45.06934" lon="4.49654">
        <ele>727.64</ele>
        <time>2021-02-23T11:44:35.000Z</time>
      </trkpt>
      <trkpt lat="45.06934" lon="4.49639">
        <ele>726.35</ele>
        <time>2021-02-23T11:44:45.000Z</time>
      </trkpt>
      <trkpt lat="45.06931" lon="4.49624">
        <ele>725.02</ele>
        <time>2021-02-23T11:44:55.000Z</time>
      </trkpt>
      <trkpt lat="45.0693" lon="4.49608">
        <ele>723.64</ele>
        <time>2021-02-23T11:45:05.000Z</time>
      </trkpt>
      <trkpt lat="45.06921" lon="4.49602">
        <ele>723.23</ele>
        <time>2021-02-23T11:45:15.000Z</time>
      </trkpt>
      <trkpt lat="45.06916" lon="4.49616">
        <ele>723.88</ele>
        <time>2021-02-23T11:45:25.000Z</time>
      </trkpt>
      <trkpt lat="45.06914" lon="4.49632">
        <ele>724.63</ele>
        <time>2021-02-23T11:45:35.000Z</time>
      </trkpt>
      <trkpt lat="45.06911" lon="4.49647">
        <ele>725.04</ele>
        <time>2021-02-23T11:45:45.000Z</time>
      </trkpt>
      <trkpt lat="45.0691" lon="4.49659">
        <ele>725.66</ele>
        <time>2021-02-23T11:45:55.000Z</time>
      </trkpt>
      <trkpt lat="45.06911" lon="4.49676">
        <ele>726.5</ele>
        <time>2021-02-23T11:46:05.000Z</time>
      </trkpt>
      <trkpt lat="45.0691" lon="4.49695">
        <ele>727.13</ele>
        <time>2021-02-23T11:46:15.000Z</time>
      </trkpt>
      <trkpt lat="45.06905" lon="4.49714">
        <ele>726.51</ele>
        <time>2021-02-23T11:46:25.000Z</time>
      </trkpt>
      <trkpt lat="45.06902" lon="4.4972">
        <ele>726.13</ele>
        <time>2021-02-23T11:46:35.000Z</time>
      </trkpt>
      <trkpt lat="45.06902" lon="4.49738">
        <ele>726.66</ele>
        <time>2021-02-23T11:46:45.000Z</time>
      </trkpt>
      <trkpt lat="45.069" lon="4.49758">
        <ele>726.47</ele>
        <time>2021-02-23T11:46:55.000Z</time>
      </trkpt>
      <trkpt lat="45.06896" lon="4.4978">
        <ele>725.5</ele>
        <time>2021-02-23T11:47:05.000Z</time>
      </trkpt>
      <trkpt lat="45.0689" lon="4.49801">
        <ele>723.74</ele>
        <time>2021-02-23T11:47:15.000Z</time>
      </trkpt>
      <trkpt lat="45.06887" lon="4.49819">
        <ele>722.96</ele>
        <time>2021-02-23T11:47:25.000Z</time>
      </trkpt>
      <trkpt lat="45.06885" lon="4.49837">
        <ele>722.41</ele>
        <time>2021-02-23T11:47:35.000Z</time>
      </trkpt>
      <trkpt lat="45.06881" lon="4.49855">
        <ele>721.58</ele>
        <time>2021-02-23T11:47:45.000Z</time>
      </trkpt>
      <trkpt lat="45.06879" lon="4.49875">
        <ele>721.28</ele>
        <time>2021-02-23T11:47:55.000Z</time>
      </trkpt>
      <trkpt lat="45.06878" lon="4.49893">
        <ele>721.19</ele>
        <time>2021-02-23T11:48:05.000Z</time>
      </trkpt>
      <trkpt lat="45.06869" lon="4.49909">
        <ele>718.28</ele>
        <time>2021-02-23T11:48:15.000Z</time>
      </trkpt>
      <trkpt lat="45.06861" lon="4.49925">
        <ele>715.42</ele>
        <time>2021-02-23T11:48:25.000Z</time>
      </trkpt>
      <trkpt lat="45.06863" lon="4.49937">
        <ele>716.11</ele>
        <time>2021-02-23T11:48:35.000Z</time>
      </trkpt>
      <trkpt lat="45.06848" lon="4.49952">
        <ele>710.48</ele>
        <time>2021-02-23T11:48:45.000Z</time>
      </trkpt>
      <trkpt lat="45.0684" lon="4.49968">
        <ele>707.33</ele>
        <time>2021-02-23T11:48:55.000Z</time>
      </trkpt>
      <trkpt lat="45.06837" lon="4.49985">
        <ele>705.26</ele>
        <time>2021-02-23T11:49:05.000Z</time>
      </trkpt>
      <trkpt lat="45.06833" lon="4.50005">
        <ele>702.31</ele>
        <time>2021-02-23T11:49:15.000Z</time>
      </trkpt>
      <trkpt lat="45.06836" lon="4.50024">
        <ele>701.62</ele>
        <time>2021-02-23T11:49:25.000Z</time>
      </trkpt>
      <trkpt lat="45.06842" lon="4.50038">
        <ele>701.98</ele>
        <time>2021-02-23T11:49:35.000Z</time>
      </trkpt>
      <trkpt lat="45.06846" lon="4.50053">
        <ele>701.5</ele>
        <time>2021-02-23T11:49:45.000Z</time>
      </trkpt>
      <trkpt lat="45.06856" lon="4.50066">
        <ele>703.36</ele>
        <time>2021-02-23T11:49:55.000Z</time>
      </trkpt>
      <trkpt lat="45.0686" lon="4.50086">
        <ele>701.84</ele>
        <time>2021-02-23T11:50:05.000Z</time>
      </trkpt>
      <trkpt lat="45.06865" lon="4.50102">
        <ele>701.41</ele>
        <time>2021-02-23T11:50:15.000Z</time>
      </trkpt>
      <trkpt lat="45.06863" lon="4.50114">
        <ele>698.34</ele>
        <time>2021-02-23T11:50:25.000Z</time>
      </trkpt>
      <trkpt lat="45.06873" lon="4.50131">
        <ele>698.76</ele>
        <time>2021-02-23T11:50:35.000Z</time>
      </trkpt>
      <trkpt lat="45.06881" lon="4.5014">
        <ele>700.61</ele>
        <time>2021-02-23T11:50:45.000Z</time>
      </trkpt>
      <trkpt lat="45.0688" lon="4.50157">
        <ele>698.17</ele>
        <time>2021-02-23T11:50:55.000Z</time>
      </trkpt>
      <trkpt lat="45.06867" lon="4.50148">
        <ele>694.12</ele>
        <time>2021-02-23T11:51:05.000Z</time>
      </trkpt>
      <trkpt lat="45.06861" lon="4.50131">
        <ele>694.5</ele>
        <time>2021-02-23T11:51:15.000Z</time>
      </trkpt>
      <trkpt lat="45.06855" lon="4.50115">
        <ele>695.1</ele>
        <time>2021-02-23T11:51:25.000Z</time>
      </trkpt>
      <trkpt lat="45.06844" lon="4.50102">
        <ele>693.42</ele>
        <time>2021-02-23T11:51:35.000Z</time>
      </trkpt>
      <trkpt lat="45.06834" lon="4.50088">
        <ele>691.43</ele>
        <time>2021-02-23T11:51:45.000Z</time>
      </trkpt>
      <trkpt lat="45.06824" lon="4.50075">
        <ele>689.12</ele>
        <time>2021-02-23T11:51:55.000Z</time>
      </trkpt>
      <trkpt lat="45.06817" lon="4.50059">
        <ele>688.42</ele>
        <time>2021-02-23T11:52:05.000Z</time>
      </trkpt>
      <trkpt lat="45.06806" lon="4.50053">
        <ele>684.44</ele>
        <time>2021-02-23T11:52:15.000Z</time>
      </trkpt>
      <trkpt lat="45.06795" lon="4.50043">
        <ele>680.88</ele>
        <time>2021-02-23T11:52:25.000Z</time>
      </trkpt>
      <trkpt lat="45.06785" lon="4.50034">
        <ele>677.73</ele>
        <time>2021-02-23T11:52:35.000Z</time>
      </trkpt>
      <trkpt lat="45.06781" lon="4.50018">
        <ele>678.26</ele>
        <time>2021-02-23T11:52:45.000Z</time>
      </trkpt>
      <trkpt lat="45.06779" lon="4.50005">
        <ele>678.86</ele>
        <time>2021-02-23T11:52:55.000Z</time>
      </trkpt>
      <trkpt lat="45.06774" lon="4.49992">
        <ele>677.94</ele>
        <time>2021-02-23T11:53:05.000Z</time>
      </trkpt>
      <trkpt lat="45.06769" lon="4.49975">
        <ele>677.08</ele>
        <time>2021-02-23T11:53:15.000Z</time>
      </trkpt>
      <trkpt lat="45.06767" lon="4.49958">
        <ele>677.5</ele>
        <time>2021-02-23T11:53:25.000Z</time>
      </trkpt>
      <trkpt lat="45.06768" lon="4.49942">
        <ele>678.96</ele>
        <time>2021-02-23T11:53:35.000Z</time>
      </trkpt>
      <trkpt lat="45.06761" lon="4.49925">
        <ele>676.93</ele>
        <time>2021-02-23T11:53:45.000Z</time>
      </trkpt>
      <trkpt lat="45.06753" lon="4.4991">
        <ele>674.38</ele>
        <time>2021-02-23T11:53:55.000Z</time>
      </trkpt>
      <trkpt lat="45.06749" lon="4.49891">
        <ele>673.33</ele>
        <time>2021-02-23T11:54:05.000Z</time>
      </trkpt>
      <trkpt lat="45.06742" lon="4.4988">
        <ele>670.68</ele>
        <time>2021-02-23T11:54:15.000Z</time>
      </trkpt>
      <trkpt lat="45.06735" lon="4.49891">
        <ele>667.64</ele>
        <time>2021-02-23T11:54:25.000Z</time>
      </trkpt>
      <trkpt lat="45.06734" lon="4.49902">
        <ele>666.84</ele>
        <time>2021-02-23T11:54:35.000Z</time>
      </trkpt>
      <trkpt lat="45.06733" lon="4.49918">
        <ele>666.15</ele>
        <time>2021-02-23T11:54:45.000Z</time>
      </trkpt>
      <trkpt lat="45.06729" lon="4.49934">
        <ele>663.7</ele>
        <time>2021-02-23T11:54:55.000Z</time>
      </trkpt>
      <trkpt lat="45.06723" lon="4.49949">
        <ele>660.55</ele>
        <time>2021-02-23T11:55:05.000Z</time>
      </trkpt>
      <trkpt lat="45.0672" lon="4.49967">
        <ele>658.43</ele>
        <time>2021-02-23T11:55:15.000Z</time>
      </trkpt>
      <trkpt lat="45.06717" lon="4.49985">
        <ele>656.83</ele>
        <time>2021-02-23T11:55:25.000Z</time>
      </trkpt>
      <trkpt lat="45.06722" lon="4.49998">
        <ele>658.22</ele>
        <time>2021-02-23T11:55:35.000Z</time>
      </trkpt>
      <trkpt lat="45.06725" lon="4.50016">
        <ele>658.27</ele>
        <time>2021-02-23T11:55:45.000Z</time>
      </trkpt>
      <trkpt lat="45.06727" lon="4.50033">
        <ele>657.62</ele>
        <time>2021-02-23T11:55:55.000Z</time>
      </trkpt>
      <trkpt lat="45.06728" lon="4.50047">
        <ele>657.04</ele>
        <time>2021-02-23T11:56:05.000Z</time>
      </trkpt>
      <trkpt lat="45.06736" lon="4.50057">
        <ele>658.07</ele>
        <time>2021-02-23T11:56:15.000Z</time>
      </trkpt>
      <trkpt lat="45.06744" lon="4.50064">
        <ele>659.46</ele>
        <time>2021-02-23T11:56:25.000Z</time>
      </trkpt>
      <trkpt lat="45.06749" lon="4.50079">
        <ele>659.76</ele>
        <time>2021-02-23T11:56:35.000Z</time>
      </trkpt>
      <trkpt lat="45.06732" lon="4.50088">
        <ele>657.22</ele>
        <time>2021-02-23T11:56:45.000Z</time>
      </trkpt>
      <trkpt lat="45.06727" lon="4.50074">
        <ele>656.03</ele>
        <time>2021-02-23T11:56:55.000Z</time>
      </trkpt>
      <trkpt lat="45.06714" lon="4.50067">
        <ele>654.26</ele>
        <time>2021-02-23T11:57:05.000Z</time>
      </trkpt>
      <trkpt lat="45.06704" lon="4.50054">
        <ele>652.63</ele>
        <time>2021-02-23T11:57:15.000Z</time>
      </trkpt>
      <trkpt lat="45.06696" lon="4.50038">
        <ele>651.09</ele>
        <time>2021-02-23T11:57:25.000Z</time>
      </trkpt>
      <trkpt lat="45.0669" lon="4.50022">
        <ele>649.46</ele>
        <time>2021-02-23T11:57:35.000Z</time>
      </trkpt>
      <trkpt lat="45.06678" lon="4.50013">
        <ele>647.3</ele>
        <time>2021-02-23T11:57:45.000Z</time>
      </trkpt>
      <trkpt lat="45.06671" lon="4.5">
        <ele>645.37</ele>
        <time>2021-02-23T11:57:55.000Z</time>
      </trkpt>
      <trkpt lat="45.06664" lon="4.49986">
        <ele>643.55</ele>
        <time>2021-02-23T11:58:05.000Z</time>
      </trkpt>
      <trkpt lat="45.06662" lon="4.49979">
        <ele>642.91</ele>
        <time>2021-02-23T11:58:34.000Z</time>
      </trkpt>
      <trkpt lat="45.06653" lon="4.49967">
        <ele>641.41</ele>
        <time>2021-02-23T11:58:44.000Z</time>
      </trkpt>
      <trkpt lat="45.06647" lon="4.49966">
        <ele>641.1</ele>
        <time>2021-02-23T11:58:54.000Z</time>
      </trkpt>
      <trkpt lat="45.06638" lon="4.49959">
        <ele>640.49</ele>
        <time>2021-02-23T11:59:04.000Z</time>
      </trkpt>
      <trkpt lat="45.06632" lon="4.49941">
        <ele>638.55</ele>
        <time>2021-02-23T11:59:14.000Z</time>
      </trkpt>
      <trkpt lat="45.06621" lon="4.49933">
        <ele>637.64</ele>
        <time>2021-02-23T11:59:24.000Z</time>
      </trkpt>
      <trkpt lat="45.06612" lon="4.49921">
        <ele>636.13</ele>
        <time>2021-02-23T11:59:34.000Z</time>
      </trkpt>
      <trkpt lat="45.06605" lon="4.49904">
        <ele>633.49</ele>
        <time>2021-02-23T11:59:44.000Z</time>
      </trkpt>
      <trkpt lat="45.06596" lon="4.49894">
        <ele>631.72</ele>
        <time>2021-02-23T11:59:54.000Z</time>
      </trkpt>
      <trkpt lat="45.06592" lon="4.49876">
        <ele>628.55</ele>
        <time>2021-02-23T12:00:04.000Z</time>
      </trkpt>
      <trkpt lat="45.06587" lon="4.49859">
        <ele>625.38</ele>
        <time>2021-02-23T12:00:14.000Z</time>
      </trkpt>
      <trkpt lat="45.06583" lon="4.49845">
        <ele>622.91</ele>
        <time>2021-02-23T12:00:24.000Z</time>
      </trkpt>
      <trkpt lat="45.06577" lon="4.49831">
        <ele>620.72</ele>
        <time>2021-02-23T12:00:34.000Z</time>
      </trkpt>
      <trkpt lat="45.06568" lon="4.49814">
        <ele>618.34</ele>
        <time>2021-02-23T12:00:44.000Z</time>
      </trkpt>
      <trkpt lat="45.0656" lon="4.49798">
        <ele>616.35</ele>
        <time>2021-02-23T12:00:54.000Z</time>
      </trkpt>
      <trkpt lat="45.06553" lon="4.49781">
        <ele>614.03</ele>
        <time>2021-02-23T12:01:04.000Z</time>
      </trkpt>
      <trkpt lat="45.06545" lon="4.49768">
        <ele>612.79</ele>
        <time>2021-02-23T12:01:14.000Z</time>
      </trkpt>
      <trkpt lat="45.06535" lon="4.49759">
        <ele>612.59</ele>
        <time>2021-02-23T12:01:24.000Z</time>
      </trkpt>
      <trkpt lat="45.06522" lon="4.49754">
        <ele>613.46</ele>
        <time>2021-02-23T12:01:34.000Z</time>
      </trkpt>
      <trkpt lat="45.0651" lon="4.4975">
        <ele>614</ele>
        <time>2021-02-23T12:01:44.000Z</time>
      </trkpt>
      <trkpt lat="45.06498" lon="4.49746">
        <ele>614.09</ele>
        <time>2021-02-23T12:01:54.000Z</time>
      </trkpt>
      <trkpt lat="45.06487" lon="4.49737">
        <ele>612.39</ele>
        <time>2021-02-23T12:02:04.000Z</time>
      </trkpt>
      <trkpt lat="45.06476" lon="4.49726">
        <ele>609.68</ele>
        <time>2021-02-23T12:02:14.000Z</time>
      </trkpt>
      <trkpt lat="45.06466" lon="4.49715">
        <ele>606.92</ele>
        <time>2021-02-23T12:02:24.000Z</time>
      </trkpt>
      <trkpt lat="45.06454" lon="4.49714">
        <ele>608.2</ele>
        <time>2021-02-23T12:02:34.000Z</time>
      </trkpt>
      <trkpt lat="45.06442" lon="4.49715">
        <ele>609.94</ele>
        <time>2021-02-23T12:02:44.000Z</time>
      </trkpt>
      <trkpt lat="45.06432" lon="4.49711">
        <ele>609.18</ele>
        <time>2021-02-23T12:02:54.000Z</time>
      </trkpt>
      <trkpt lat="45.06422" lon="4.49702">
        <ele>606.02</ele>
        <time>2021-02-23T12:03:04.000Z</time>
      </trkpt>
      <trkpt lat="45.06412" lon="4.49705">
        <ele>607.4</ele>
        <time>2021-02-23T12:03:14.000Z</time>
      </trkpt>
      <trkpt lat="45.06399" lon="4.49702">
        <ele>605.81</ele>
        <time>2021-02-23T12:03:24.000Z</time>
      </trkpt>
      <trkpt lat="45.06386" lon="4.49694">
        <ele>601.81</ele>
        <time>2021-02-23T12:03:34.000Z</time>
      </trkpt>
      <trkpt lat="45.06372" lon="4.49693">
        <ele>600.11</ele>
        <time>2021-02-23T12:03:44.000Z</time>
      </trkpt>
      <trkpt lat="45.06358" lon="4.49695">
        <ele>599.4</ele>
        <time>2021-02-23T12:03:54.000Z</time>
      </trkpt>
      <trkpt lat="45.06345" lon="4.49699">
        <ele>599.64</ele>
        <time>2021-02-23T12:04:04.000Z</time>
      </trkpt>
      <trkpt lat="45.06331" lon="4.49697">
        <ele>597.15</ele>
        <time>2021-02-23T12:04:14.000Z</time>
      </trkpt>
      <trkpt lat="45.06319" lon="4.49703">
        <ele>597.68</ele>
        <time>2021-02-23T12:04:24.000Z</time>
      </trkpt>
      <trkpt lat="45.0631" lon="4.4971">
        <ele>598.71</ele>
        <time>2021-02-23T12:04:34.000Z</time>
      </trkpt>
      <trkpt lat="45.06296" lon="4.49712">
        <ele>597.27</ele>
        <time>2021-02-23T12:04:44.000Z</time>
      </trkpt>
      <trkpt lat="45.06281" lon="4.49714">
        <ele>594.7</ele>
        <time>2021-02-23T12:04:54.000Z</time>
      </trkpt>
      <trkpt lat="45.06271" lon="4.49722">
        <ele>595.55</ele>
        <time>2021-02-23T12:05:04.000Z</time>
      </trkpt>
      <trkpt lat="45.06257" lon="4.49726">
        <ele>594.16</ele>
        <time>2021-02-23T12:05:14.000Z</time>
      </trkpt>
      <trkpt lat="45.06244" lon="4.49729">
        <ele>592.27</ele>
        <time>2021-02-23T12:05:24.000Z</time>
      </trkpt>
      <trkpt lat="45.06231" lon="4.49735">
        <ele>590.85</ele>
        <time>2021-02-23T12:05:34.000Z</time>
      </trkpt>
      <trkpt lat="45.0622" lon="4.49746">
        <ele>590.66</ele>
        <time>2021-02-23T12:05:44.000Z</time>
      </trkpt>
      <trkpt lat="45.06209" lon="4.49756">
        <ele>589.36</ele>
        <time>2021-02-23T12:05:54.000Z</time>
      </trkpt>
      <trkpt lat="45.06198" lon="4.49766">
        <ele>587.89</ele>
        <time>2021-02-23T12:06:04.000Z</time>
      </trkpt>
      <trkpt lat="45.06188" lon="4.49768">
        <ele>585.83</ele>
        <time>2021-02-23T12:06:14.000Z</time>
      </trkpt>
      <trkpt lat="45.06186" lon="4.49781">
        <ele>587.44</ele>
        <time>2021-02-23T12:06:24.000Z</time>
      </trkpt>
      <trkpt lat="45.06169" lon="4.49794">
        <ele>587.1</ele>
        <time>2021-02-23T12:06:34.000Z</time>
      </trkpt>
      <trkpt lat="45.06156" lon="4.4981">
        <ele>590</ele>
        <time>2021-02-23T12:06:44.000Z</time>
      </trkpt>
      <trkpt lat="45.06151" lon="4.49807">
        <ele>589.91</ele>
        <time>2021-02-23T12:06:54.000Z</time>
      </trkpt>
      <trkpt lat="45.06163" lon="4.49796">
        <ele>587.25</ele>
        <time>2021-02-23T12:07:04.000Z</time>
      </trkpt>
      <trkpt lat="45.0616" lon="4.49775">
        <ele>583.77</ele>
        <time>2021-02-23T12:07:14.000Z</time>
      </trkpt>
      <trkpt lat="45.06157" lon="4.49753">
        <ele>580.63</ele>
        <time>2021-02-23T12:07:24.000Z</time>
      </trkpt>
      <trkpt lat="45.06152" lon="4.49732">
        <ele>578.25</ele>
        <time>2021-02-23T12:07:34.000Z</time>
      </trkpt>
      <trkpt lat="45.06141" lon="4.49718">
        <ele>577.86</ele>
        <time>2021-02-23T12:07:44.000Z</time>
      </trkpt>
      <trkpt lat="45.0613" lon="4.49707">
        <ele>577.96</ele>
        <time>2021-02-23T12:07:54.000Z</time>
      </trkpt>
      <trkpt lat="45.0612" lon="4.49705">
        <ele>579.34</ele>
        <time>2021-02-23T12:08:04.000Z</time>
      </trkpt>
      <trkpt lat="45.0611" lon="4.49708">
        <ele>581.63</ele>
        <time>2021-02-23T12:08:14.000Z</time>
      </trkpt>
      <trkpt lat="45.06101" lon="4.49688">
        <ele>579.49</ele>
        <time>2021-02-23T12:08:24.000Z</time>
      </trkpt>
      <trkpt lat="45.06089" lon="4.49675">
        <ele>578.42</ele>
        <time>2021-02-23T12:08:34.000Z</time>
      </trkpt>
      <trkpt lat="45.06076" lon="4.49666">
        <ele>577.71</ele>
        <time>2021-02-23T12:08:44.000Z</time>
      </trkpt>
      <trkpt lat="45.06068" lon="4.49673">
        <ele>580.57</ele>
        <time>2021-02-23T12:08:54.000Z</time>
      </trkpt>
      <trkpt lat="45.06052" lon="4.49664">
        <ele>580.59</ele>
        <time>2021-02-23T12:09:04.000Z</time>
      </trkpt>
      <trkpt lat="45.06038" lon="4.49652">
        <ele>579</ele>
        <time>2021-02-23T12:09:14.000Z</time>
      </trkpt>
      <trkpt lat="45.06025" lon="4.49643">
        <ele>577.75</ele>
        <time>2021-02-23T12:09:24.000Z</time>
      </trkpt>
      <trkpt lat="45.06013" lon="4.49642">
        <ele>578.54</ele>
        <time>2021-02-23T12:09:34.000Z</time>
      </trkpt>
      <trkpt lat="45.05998" lon="4.49634">
        <ele>576.62</ele>
        <time>2021-02-23T12:09:44.000Z</time>
      </trkpt>
      <trkpt lat="45.05987" lon="4.49627">
        <ele>574.61</ele>
        <time>2021-02-23T12:09:54.000Z</time>
      </trkpt>
      <trkpt lat="45.05974" lon="4.49617">
        <ele>571.72</ele>
        <time>2021-02-23T12:10:04.000Z</time>
      </trkpt>
      <trkpt lat="45.05961" lon="4.49618">
        <ele>571.76</ele>
        <time>2021-02-23T12:10:14.000Z</time>
      </trkpt>
      <trkpt lat="45.05946" lon="4.49618">
        <ele>571.49</ele>
        <time>2021-02-23T12:10:24.000Z</time>
      </trkpt>
      <trkpt lat="45.05932" lon="4.49616">
        <ele>570.19</ele>
        <time>2021-02-23T12:10:34.000Z</time>
      </trkpt>
      <trkpt lat="45.05919" lon="4.49624">
        <ele>571.47</ele>
        <time>2021-02-23T12:10:44.000Z</time>
      </trkpt>
      <trkpt lat="45.05907" lon="4.4963">
        <ele>571.88</ele>
        <time>2021-02-23T12:10:54.000Z</time>
      </trkpt>
      <trkpt lat="45.05893" lon="4.49627">
        <ele>568.54</ele>
        <time>2021-02-23T12:11:04.000Z</time>
      </trkpt>
      <trkpt lat="45.05883" lon="4.49632">
        <ele>567.51</ele>
        <time>2021-02-23T12:11:14.000Z</time>
      </trkpt>
      <trkpt lat="45.05872" lon="4.49642">
        <ele>566.89</ele>
        <time>2021-02-23T12:11:24.000Z</time>
      </trkpt>
      <trkpt lat="45.0586" lon="4.49651">
        <ele>565.21</ele>
        <time>2021-02-23T12:11:34.000Z</time>
      </trkpt>
      <trkpt lat="45.05853" lon="4.49663">
        <ele>564.96</ele>
        <time>2021-02-23T12:11:44.000Z</time>
      </trkpt>
      <trkpt lat="45.05842" lon="4.49672">
        <ele>563.61</ele>
        <time>2021-02-23T12:11:54.000Z</time>
      </trkpt>
      <trkpt lat="45.05836" lon="4.49683">
        <ele>563.77</ele>
        <time>2021-02-23T12:12:04.000Z</time>
      </trkpt>
      <trkpt lat="45.05832" lon="4.49696">
        <ele>565.19</ele>
        <time>2021-02-23T12:12:14.000Z</time>
      </trkpt>
      <trkpt lat="45.05826" lon="4.49711">
        <ele>566.11</ele>
        <time>2021-02-23T12:12:24.000Z</time>
      </trkpt>
      <trkpt lat="45.05819" lon="4.49724">
        <ele>565.74</ele>
        <time>2021-02-23T12:12:34.000Z</time>
      </trkpt>
      <trkpt lat="45.0581" lon="4.49737">
        <ele>564</ele>
        <time>2021-02-23T12:12:44.000Z</time>
      </trkpt>
      <trkpt lat="45.05808" lon="4.49752">
        <ele>564.94</ele>
        <time>2021-02-23T12:12:54.000Z</time>
      </trkpt>
      <trkpt lat="45.05804" lon="4.49769">
        <ele>565.12</ele>
        <time>2021-02-23T12:13:04.000Z</time>
      </trkpt>
      <trkpt lat="45.05804" lon="4.49786">
        <ele>566.81</ele>
        <time>2021-02-23T12:13:14.000Z</time>
      </trkpt>
      <trkpt lat="45.05799" lon="4.49802">
        <ele>566.59</ele>
        <time>2021-02-23T12:13:24.000Z</time>
      </trkpt>
      <trkpt lat="45.05793" lon="4.49822">
        <ele>565.24</ele>
        <time>2021-02-23T12:13:34.000Z</time>
      </trkpt>
      <trkpt lat="45.05795" lon="4.49839">
        <ele>567.93</ele>
        <time>2021-02-23T12:13:44.000Z</time>
      </trkpt>
      <trkpt lat="45.05791" lon="4.49851">
        <ele>567.15</ele>
        <time>2021-02-23T12:13:54.000Z</time>
      </trkpt>
      <trkpt lat="45.05781" lon="4.49866">
        <ele>563.32</ele>
        <time>2021-02-23T12:14:04.000Z</time>
      </trkpt>
      <trkpt lat="45.0578" lon="4.49885">
        <ele>564.3</ele>
        <time>2021-02-23T12:14:14.000Z</time>
      </trkpt>
      <trkpt lat="45.05785" lon="4.49901">
        <ele>568.18</ele>
        <time>2021-02-23T12:14:24.000Z</time>
      </trkpt>
      <trkpt lat="45.05784" lon="4.4992">
        <ele>569.33</ele>
        <time>2021-02-23T12:14:34.000Z</time>
      </trkpt>
      <trkpt lat="45.05782" lon="4.4994">
        <ele>569.42</ele>
        <time>2021-02-23T12:14:44.000Z</time>
      </trkpt>
      <trkpt lat="45.05782" lon="4.49955">
        <ele>570.6</ele>
        <time>2021-02-23T12:14:54.000Z</time>
      </trkpt>
      <trkpt lat="45.05783" lon="4.49968">
        <ele>571.61</ele>
        <time>2021-02-23T12:15:04.000Z</time>
      </trkpt>
      <trkpt lat="45.05795" lon="4.49966">
        <ele>576.43</ele>
        <time>2021-02-23T12:15:14.000Z</time>
      </trkpt>
      <trkpt lat="45.058" lon="4.49968">
        <ele>578.65</ele>
        <time>2021-02-23T12:15:24.000Z</time>
      </trkpt>
      <trkpt lat="45.05792" lon="4.5">
        <ele>575.98</ele>
        <time>2021-02-23T12:15:34.000Z</time>
      </trkpt>
      <trkpt lat="45.0579" lon="4.5002">
        <ele>575.73</ele>
        <time>2021-02-23T12:15:44.000Z</time>
      </trkpt>
      <trkpt lat="45.05795" lon="4.50034">
        <ele>577.27</ele>
        <time>2021-02-23T12:15:54.000Z</time>
      </trkpt>
      <trkpt lat="45.05796" lon="4.50051">
        <ele>577.56</ele>
        <time>2021-02-23T12:16:04.000Z</time>
      </trkpt>
      <trkpt lat="45.05804" lon="4.50065">
        <ele>579.9</ele>
        <time>2021-02-23T12:16:14.000Z</time>
      </trkpt>
      <trkpt lat="45.05811" lon="4.50077">
        <ele>582.12</ele>
        <time>2021-02-23T12:16:24.000Z</time>
      </trkpt>
      <trkpt lat="45.05818" lon="4.50085">
        <ele>584.2</ele>
        <time>2021-02-23T12:16:34.000Z</time>
      </trkpt>
      <trkpt lat="45.05821" lon="4.50098">
        <ele>585.36</ele>
        <time>2021-02-23T12:16:44.000Z</time>
      </trkpt>
      <trkpt lat="45.05829" lon="4.50108">
        <ele>587.7</ele>
        <time>2021-02-23T12:16:54.000Z</time>
      </trkpt>
      <trkpt lat="45.05839" lon="4.50108">
        <ele>590.63</ele>
        <time>2021-02-23T12:17:04.000Z</time>
      </trkpt>
      <trkpt lat="45.05842" lon="4.50122">
        <ele>591.43</ele>
        <time>2021-02-23T12:17:14.000Z</time>
      </trkpt>
      <trkpt lat="45.05848" lon="4.50132">
        <ele>593.37</ele>
        <time>2021-02-23T12:17:24.000Z</time>
      </trkpt>
      <trkpt lat="45.05854" lon="4.50152">
        <ele>595.6</ele>
        <time>2021-02-23T12:17:34.000Z</time>
      </trkpt>
      <trkpt lat="45.05866" lon="4.50152">
        <ele>598.9</ele>
        <time>2021-02-23T12:17:44.000Z</time>
      </trkpt>
      <trkpt lat="45.05863" lon="4.50172">
        <ele>600.16</ele>
        <time>2021-02-23T12:17:54.000Z</time>
      </trkpt>
      <trkpt lat="45.05854" lon="4.5018">
        <ele>599.23</ele>
        <time>2021-02-23T12:18:04.000Z</time>
      </trkpt>
      <trkpt lat="45.05843" lon="4.50184">
        <ele>597.41</ele>
        <time>2021-02-23T12:18:14.000Z</time>
      </trkpt>
      <trkpt lat="45.05838" lon="4.50197">
        <ele>599</ele>
        <time>2021-02-23T12:18:24.000Z</time>
      </trkpt>
      <trkpt lat="45.05831" lon="4.50202">
        <ele>598.68</ele>
        <time>2021-02-23T12:18:34.000Z</time>
      </trkpt>
      <trkpt lat="45.05828" lon="4.50217">
        <ele>601.87</ele>
        <time>2021-02-23T12:18:44.000Z</time>
      </trkpt>
      <trkpt lat="45.05824" lon="4.50235">
        <ele>605.41</ele>
        <time>2021-02-23T12:18:54.000Z</time>
      </trkpt>
      <trkpt lat="45.05821" lon="4.50253">
        <ele>609.12</ele>
        <time>2021-02-23T12:19:04.000Z</time>
      </trkpt>
      <trkpt lat="45.05817" lon="4.50258">
        <ele>609.27</ele>
        <time>2021-02-23T12:19:14.000Z</time>
      </trkpt>
      <trkpt lat="45.05816" lon="4.50271">
        <ele>612.32</ele>
        <time>2021-02-23T12:19:24.000Z</time>
      </trkpt>
      <trkpt lat="45.05807" lon="4.50287">
        <ele>613.47</ele>
        <time>2021-02-23T12:19:34.000Z</time>
      </trkpt>
      <trkpt lat="45.058" lon="4.503">
        <ele>614.49</ele>
        <time>2021-02-23T12:19:44.000Z</time>
      </trkpt>
      <trkpt lat="45.05789" lon="4.50308">
        <ele>612.64</ele>
        <time>2021-02-23T12:19:54.000Z</time>
      </trkpt>
      <trkpt lat="45.05779" lon="4.50321">
        <ele>612.5</ele>
        <time>2021-02-23T12:20:04.000Z</time>
      </trkpt>
      <trkpt lat="45.05793" lon="4.50323">
        <ele>617.5</ele>
        <time>2021-02-23T12:20:14.000Z</time>
      </trkpt>
      <trkpt lat="45.05806" lon="4.50309">
        <ele>618.65</ele>
        <time>2021-02-23T12:20:24.000Z</time>
      </trkpt>
      <trkpt lat="45.05808" lon="4.50315">
        <ele>620.97</ele>
        <time>2021-02-23T12:20:36.000Z</time>
      </trkpt>
      <trkpt lat="45.05799" lon="4.50323">
        <ele>619.59</ele>
        <time>2021-02-23T12:20:46.000Z</time>
      </trkpt>
      <trkpt lat="45.05794" lon="4.50323">
        <ele>618.11</ele>
        <time>2021-02-23T12:20:56.000Z</time>
      </trkpt>
      <trkpt lat="45.05798" lon="4.5032">
        <ele>618.89</ele>
        <time>2021-02-23T12:21:14.000Z</time>
      </trkpt>
      <trkpt lat="45.05797" lon="4.50327">
        <ele>620</ele>
        <time>2021-02-23T12:21:58.000Z</time>
      </trkpt>
      <trkpt lat="45.05792" lon="4.50329">
        <ele>618.77</ele>
        <time>2021-02-23T12:22:11.000Z</time>
      </trkpt>
      <trkpt lat="45.05789" lon="4.50333">
        <ele>618.6</ele>
        <time>2021-02-23T12:22:38.000Z</time>
      </trkpt>
      <trkpt lat="45.05786" lon="4.50344">
        <ele>619.84</ele>
        <time>2021-02-23T12:22:48.000Z</time>
      </trkpt>
      <trkpt lat="45.0578" lon="4.50353">
        <ele>619.56</ele>
        <time>2021-02-23T12:22:58.000Z</time>
      </trkpt>
      <trkpt lat="45.05772" lon="4.50361">
        <ele>618.03</ele>
        <time>2021-02-23T12:23:08.000Z</time>
      </trkpt>
      <trkpt lat="45.05766" lon="4.50373">
        <ele>617.7</ele>
        <time>2021-02-23T12:23:18.000Z</time>
      </trkpt>
      <trkpt lat="45.05763" lon="4.5039">
        <ele>619.46</ele>
        <time>2021-02-23T12:23:28.000Z</time>
      </trkpt>
      <trkpt lat="45.0577" lon="4.50404">
        <ele>624.63</ele>
        <time>2021-02-23T12:23:38.000Z</time>
      </trkpt>
      <trkpt lat="45.05778" lon="4.50408">
        <ele>628.93</ele>
        <time>2021-02-23T12:23:48.000Z</time>
      </trkpt>
      <trkpt lat="45.05778" lon="4.50424">
        <ele>632.69</ele>
        <time>2021-02-23T12:23:58.000Z</time>
      </trkpt>
      <trkpt lat="45.05779" lon="4.50439">
        <ele>637.54</ele>
        <time>2021-02-23T12:24:08.000Z</time>
      </trkpt>
      <trkpt lat="45.0578" lon="4.50447">
        <ele>640.4</ele>
        <time>2021-02-23T12:24:18.000Z</time>
      </trkpt>
      <trkpt lat="45.05771" lon="4.50455">
        <ele>639.41</ele>
        <time>2021-02-23T12:24:28.000Z</time>
      </trkpt>
      <trkpt lat="45.0576" lon="4.50462">
        <ele>637.83</ele>
        <time>2021-02-23T12:24:38.000Z</time>
      </trkpt>
      <trkpt lat="45.05748" lon="4.50465">
        <ele>635.01</ele>
        <time>2021-02-23T12:24:48.000Z</time>
      </trkpt>
      <trkpt lat="45.05742" lon="4.5048">
        <ele>638.23</ele>
        <time>2021-02-23T12:24:58.000Z</time>
      </trkpt>
      <trkpt lat="45.05739" lon="4.50496">
        <ele>641.75</ele>
        <time>2021-02-23T12:25:08.000Z</time>
      </trkpt>
      <trkpt lat="45.05731" lon="4.50509">
        <ele>642.42</ele>
        <time>2021-02-23T12:25:18.000Z</time>
      </trkpt>
      <trkpt lat="45.05727" lon="4.50522">
        <ele>644.1</ele>
        <time>2021-02-23T12:25:28.000Z</time>
      </trkpt>
      <trkpt lat="45.05726" lon="4.50533">
        <ele>646.16</ele>
        <time>2021-02-23T12:25:38.000Z</time>
      </trkpt>
      <trkpt lat="45.05719" lon="4.5055">
        <ele>647.32</ele>
        <time>2021-02-23T12:25:48.000Z</time>
      </trkpt>
      <trkpt lat="45.05715" lon="4.50561">
        <ele>648.17</ele>
        <time>2021-02-23T12:25:58.000Z</time>
      </trkpt>
      <trkpt lat="45.05705" lon="4.50558">
        <ele>646.01</ele>
        <time>2021-02-23T12:26:08.000Z</time>
      </trkpt>
      <trkpt lat="45.057" lon="4.50569">
        <ele>646.67</ele>
        <time>2021-02-23T12:26:18.000Z</time>
      </trkpt>
      <trkpt lat="45.05691" lon="4.50576">
        <ele>646.21</ele>
        <time>2021-02-23T12:26:28.000Z</time>
      </trkpt>
      <trkpt lat="45.05682" lon="4.50578">
        <ele>645.32</ele>
        <time>2021-02-23T12:26:38.000Z</time>
      </trkpt>
      <trkpt lat="45.05674" lon="4.50584">
        <ele>644.91</ele>
        <time>2021-02-23T12:26:48.000Z</time>
      </trkpt>
      <trkpt lat="45.05664" lon="4.50587">
        <ele>643.96</ele>
        <time>2021-02-23T12:26:58.000Z</time>
      </trkpt>
      <trkpt lat="45.05655" lon="4.50589">
        <ele>643.06</ele>
        <time>2021-02-23T12:27:08.000Z</time>
      </trkpt>
      <trkpt lat="45.05644" lon="4.50592">
        <ele>642.15</ele>
        <time>2021-02-23T12:27:18.000Z</time>
      </trkpt>
      <trkpt lat="45.05635" lon="4.50597">
        <ele>641.21</ele>
        <time>2021-02-23T12:27:28.000Z</time>
      </trkpt>
      <trkpt lat="45.05629" lon="4.50599">
        <ele>640.53</ele>
        <time>2021-02-23T12:27:38.000Z</time>
      </trkpt>
      <trkpt lat="45.05621" lon="4.50594">
        <ele>640.07</ele>
        <time>2021-02-23T12:27:48.000Z</time>
      </trkpt>
      <trkpt lat="45.05616" lon="4.50583">
        <ele>639.96</ele>
        <time>2021-02-23T12:27:58.000Z</time>
      </trkpt>
      <trkpt lat="45.05609" lon="4.50573">
        <ele>639.26</ele>
        <time>2021-02-23T12:28:08.000Z</time>
      </trkpt>
      <trkpt lat="45.056" lon="4.50562">
        <ele>638.46</ele>
        <time>2021-02-23T12:28:18.000Z</time>
      </trkpt>
      <trkpt lat="45.0559" lon="4.50554">
        <ele>637.78</ele>
        <time>2021-02-23T12:28:28.000Z</time>
      </trkpt>
      <trkpt lat="45.05579" lon="4.50549">
        <ele>637.15</ele>
        <time>2021-02-23T12:28:38.000Z</time>
      </trkpt>
      <trkpt lat="45.05569" lon="4.50546">
        <ele>636.65</ele>
        <time>2021-02-23T12:28:48.000Z</time>
      </trkpt>
      <trkpt lat="45.05565" lon="4.50543">
        <ele>636.51</ele>
        <time>2021-02-23T12:28:58.000Z</time>
      </trkpt>
      <trkpt lat="45.05555" lon="4.50542">
        <ele>636.1</ele>
        <time>2021-02-23T12:29:08.000Z</time>
      </trkpt>
      <trkpt lat="45.05552" lon="4.50555">
        <ele>634.92</ele>
        <time>2021-02-23T12:29:18.000Z</time>
      </trkpt>
      <trkpt lat="45.05542" lon="4.50558">
        <ele>633.5</ele>
        <time>2021-02-23T12:29:28.000Z</time>
      </trkpt>
      <trkpt lat="45.05532" lon="4.50555">
        <ele>632.96</ele>
        <time>2021-02-23T12:29:38.000Z</time>
      </trkpt>
      <trkpt lat="45.05524" lon="4.50558">
        <ele>631.45</ele>
        <time>2021-02-23T12:29:48.000Z</time>
      </trkpt>
      <trkpt lat="45.05518" lon="4.50567">
        <ele>629.16</ele>
        <time>2021-02-23T12:29:58.000Z</time>
      </trkpt>
      <trkpt lat="45.05508" lon="4.50569">
        <ele>627.5</ele>
        <time>2021-02-23T12:30:08.000Z</time>
      </trkpt>
      <trkpt lat="45.05496" lon="4.50569">
        <ele>626.49</ele>
        <time>2021-02-23T12:30:18.000Z</time>
      </trkpt>
      <trkpt lat="45.05486" lon="4.50573">
        <ele>624.51</ele>
        <time>2021-02-23T12:30:28.000Z</time>
      </trkpt>
      <trkpt lat="45.05476" lon="4.50573">
        <ele>623.86</ele>
        <time>2021-02-23T12:30:38.000Z</time>
      </trkpt>
      <trkpt lat="45.05464" lon="4.50576">
        <ele>622.45</ele>
        <time>2021-02-23T12:30:48.000Z</time>
      </trkpt>
      <trkpt lat="45.05449" lon="4.50579">
        <ele>620.83</ele>
        <time>2021-02-23T12:30:58.000Z</time>
      </trkpt>
      <trkpt lat="45.05436" lon="4.5058">
        <ele>619.76</ele>
        <time>2021-02-23T12:31:08.000Z</time>
      </trkpt>
      <trkpt lat="45.05427" lon="4.50594">
        <ele>616.5</ele>
        <time>2021-02-23T12:31:18.000Z</time>
      </trkpt>
      <trkpt lat="45.05414" lon="4.50597">
        <ele>615.09</ele>
        <time>2021-02-23T12:31:28.000Z</time>
      </trkpt>
      <trkpt lat="45.05405" lon="4.50598">
        <ele>614.7</ele>
        <time>2021-02-23T12:31:38.000Z</time>
      </trkpt>
      <trkpt lat="45.05402" lon="4.50604">
        <ele>613.61</ele>
        <time>2021-02-23T12:31:53.000Z</time>
      </trkpt>
      <trkpt lat="45.05399" lon="4.50593">
        <ele>615.58</ele>
        <time>2021-02-23T12:32:03.000Z</time>
      </trkpt>
      <trkpt lat="45.05387" lon="4.50598">
        <ele>614.53</ele>
        <time>2021-02-23T12:32:13.000Z</time>
      </trkpt>
      <trkpt lat="45.05373" lon="4.50605">
        <ele>613.17</ele>
        <time>2021-02-23T12:32:23.000Z</time>
      </trkpt>
      <trkpt lat="45.05363" lon="4.50614">
        <ele>611.43</ele>
        <time>2021-02-23T12:32:33.000Z</time>
      </trkpt>
      <trkpt lat="45.0535" lon="4.50625">
        <ele>608.96</ele>
        <time>2021-02-23T12:32:43.000Z</time>
      </trkpt>
      <trkpt lat="45.05337" lon="4.50635">
        <ele>606.62</ele>
        <time>2021-02-23T12:32:53.000Z</time>
      </trkpt>
      <trkpt lat="45.05322" lon="4.50644">
        <ele>604.05</ele>
        <time>2021-02-23T12:33:03.000Z</time>
      </trkpt>
      <trkpt lat="45.05309" lon="4.50649">
        <ele>601.86</ele>
        <time>2021-02-23T12:33:13.000Z</time>
      </trkpt>
      <trkpt lat="45.05299" lon="4.50642">
        <ele>600.57</ele>
        <time>2021-02-23T12:33:23.000Z</time>
      </trkpt>
      <trkpt lat="45.05287" lon="4.50625">
        <ele>598.6</ele>
        <time>2021-02-23T12:33:33.000Z</time>
      </trkpt>
      <trkpt lat="45.05276" lon="4.50613">
        <ele>596.46</ele>
        <time>2021-02-23T12:33:43.000Z</time>
      </trkpt>
      <trkpt lat="45.05266" lon="4.50603">
        <ele>594.09</ele>
        <time>2021-02-23T12:33:53.000Z</time>
      </trkpt>
      <trkpt lat="45.05257" lon="4.50591">
        <ele>592.17</ele>
        <time>2021-02-23T12:34:03.000Z</time>
      </trkpt>
      <trkpt lat="45.05248" lon="4.50581">
        <ele>590.74</ele>
        <time>2021-02-23T12:34:13.000Z</time>
      </trkpt>
      <trkpt lat="45.0524" lon="4.50569">
        <ele>590.07</ele>
        <time>2021-02-23T12:34:23.000Z</time>
      </trkpt>
      <trkpt lat="45.05238" lon="4.50552">
        <ele>590.7</ele>
        <time>2021-02-23T12:34:33.000Z</time>
      </trkpt>
      <trkpt lat="45.05235" lon="4.50532">
        <ele>591.43</ele>
        <time>2021-02-23T12:34:43.000Z</time>
      </trkpt>
      <trkpt lat="45.05229" lon="4.50511">
        <ele>591.13</ele>
        <time>2021-02-23T12:34:53.000Z</time>
      </trkpt>
      <trkpt lat="45.05222" lon="4.50493">
        <ele>589.39</ele>
        <time>2021-02-23T12:35:03.000Z</time>
      </trkpt>
      <trkpt lat="45.05222" lon="4.50477">
        <ele>588.71</ele>
        <time>2021-02-23T12:35:13.000Z</time>
      </trkpt>
      <trkpt lat="45.05218" lon="4.50461">
        <ele>586.85</ele>
        <time>2021-02-23T12:35:23.000Z</time>
      </trkpt>
      <trkpt lat="45.05221" lon="4.50447">
        <ele>586.75</ele>
        <time>2021-02-23T12:35:33.000Z</time>
      </trkpt>
      <trkpt lat="45.05228" lon="4.50436">
        <ele>588.54</ele>
        <time>2021-02-23T12:35:43.000Z</time>
      </trkpt>
      <trkpt lat="45.05234" lon="4.50418">
        <ele>589.54</ele>
        <time>2021-02-23T12:35:53.000Z</time>
      </trkpt>
      <trkpt lat="45.05231" lon="4.50395">
        <ele>587.15</ele>
        <time>2021-02-23T12:36:03.000Z</time>
      </trkpt>
      <trkpt lat="45.0523" lon="4.50377">
        <ele>585.71</ele>
        <time>2021-02-23T12:36:13.000Z</time>
      </trkpt>
      <trkpt lat="45.05231" lon="4.50359">
        <ele>585.08</ele>
        <time>2021-02-23T12:36:23.000Z</time>
      </trkpt>
      <trkpt lat="45.05232" lon="4.50344">
        <ele>584.69</ele>
        <time>2021-02-23T12:36:33.000Z</time>
      </trkpt>
      <trkpt lat="45.05236" lon="4.50328">
        <ele>585.13</ele>
        <time>2021-02-23T12:36:43.000Z</time>
      </trkpt>
      <trkpt lat="45.05235" lon="4.50311">
        <ele>583.5</ele>
        <time>2021-02-23T12:36:53.000Z</time>
      </trkpt>
      <trkpt lat="45.05235" lon="4.50294">
        <ele>582.78</ele>
        <time>2021-02-23T12:37:03.000Z</time>
      </trkpt>
      <trkpt lat="45.05236" lon="4.50278">
        <ele>581.95</ele>
        <time>2021-02-23T12:37:13.000Z</time>
      </trkpt>
      <trkpt lat="45.05236" lon="4.5026">
        <ele>580.74</ele>
        <time>2021-02-23T12:37:23.000Z</time>
      </trkpt>
      <trkpt lat="45.05233" lon="4.50244">
        <ele>578.66</ele>
        <time>2021-02-23T12:37:33.000Z</time>
      </trkpt>
      <trkpt lat="45.05231" lon="4.5023">
        <ele>576.86</ele>
        <time>2021-02-23T12:37:43.000Z</time>
      </trkpt>
      <trkpt lat="45.0524" lon="4.50214">
        <ele>577.94</ele>
        <time>2021-02-23T12:37:53.000Z</time>
      </trkpt>
      <trkpt lat="45.05245" lon="4.50199">
        <ele>578.01</ele>
        <time>2021-02-23T12:38:03.000Z</time>
      </trkpt>
      <trkpt lat="45.05251" lon="4.5018">
        <ele>577.75</ele>
        <time>2021-02-23T12:38:13.000Z</time>
      </trkpt>
      <trkpt lat="45.05258" lon="4.50169">
        <ele>579.06</ele>
        <time>2021-02-23T12:38:23.000Z</time>
      </trkpt>
      <trkpt lat="45.05261" lon="4.50152">
        <ele>578.07</ele>
        <time>2021-02-23T12:38:33.000Z</time>
      </trkpt>
      <trkpt lat="45.0526" lon="4.50134">
        <ele>575.44</ele>
        <time>2021-02-23T12:38:43.000Z</time>
      </trkpt>
      <trkpt lat="45.05262" lon="4.50118">
        <ele>574.21</ele>
        <time>2021-02-23T12:38:53.000Z</time>
      </trkpt>
      <trkpt lat="45.05268" lon="4.501">
        <ele>574.35</ele>
        <time>2021-02-23T12:39:03.000Z</time>
      </trkpt>
      <trkpt lat="45.05276" lon="4.50086">
        <ele>575.63</ele>
        <time>2021-02-23T12:39:13.000Z</time>
      </trkpt>
      <trkpt lat="45.05283" lon="4.50074">
        <ele>576.91</ele>
        <time>2021-02-23T12:39:23.000Z</time>
      </trkpt>
      <trkpt lat="45.05284" lon="4.50057">
        <ele>574.53</ele>
        <time>2021-02-23T12:39:33.000Z</time>
      </trkpt>
      <trkpt lat="45.05282" lon="4.50042">
        <ele>571.29</ele>
        <time>2021-02-23T12:39:43.000Z</time>
      </trkpt>
      <trkpt lat="45.05285" lon="4.50023">
        <ele>569.47</ele>
        <time>2021-02-23T12:39:53.000Z</time>
      </trkpt>
      <trkpt lat="45.05288" lon="4.50006">
        <ele>567.28</ele>
        <time>2021-02-23T12:40:03.000Z</time>
      </trkpt>
      <trkpt lat="45.05286" lon="4.49992">
        <ele>564.43</ele>
        <time>2021-02-23T12:40:13.000Z</time>
      </trkpt>
      <trkpt lat="45.05287" lon="4.4998">
        <ele>562.37</ele>
        <time>2021-02-23T12:40:23.000Z</time>
      </trkpt>
      <trkpt lat="45.05284" lon="4.49964">
        <ele>559.2</ele>
        <time>2021-02-23T12:40:33.000Z</time>
      </trkpt>
      <trkpt lat="45.05287" lon="4.49951">
        <ele>557.19</ele>
        <time>2021-02-23T12:40:43.000Z</time>
      </trkpt>
      <trkpt lat="45.05289" lon="4.49936">
        <ele>554.77</ele>
        <time>2021-02-23T12:40:53.000Z</time>
      </trkpt>
      <trkpt lat="45.05283" lon="4.49926">
        <ele>553.06</ele>
        <time>2021-02-23T12:41:03.000Z</time>
      </trkpt>
      <trkpt lat="45.05277" lon="4.49913">
        <ele>551.31</ele>
        <time>2021-02-23T12:41:13.000Z</time>
      </trkpt>
      <trkpt lat="45.05269" lon="4.49927">
        <ele>552.87</ele>
        <time>2021-02-23T12:41:23.000Z</time>
      </trkpt>
      <trkpt lat="45.05271" lon="4.49943">
        <ele>554.84</ele>
        <time>2021-02-23T12:41:33.000Z</time>
      </trkpt>
      <trkpt lat="45.05266" lon="4.49953">
        <ele>555.55</ele>
        <time>2021-02-23T12:41:43.000Z</time>
      </trkpt>
      <trkpt lat="45.05263" lon="4.49948">
        <ele>554.89</ele>
        <time>2021-02-23T12:42:06.000Z</time>
      </trkpt>
      <trkpt lat="45.05258" lon="4.49946">
        <ele>554.57</ele>
        <time>2021-02-23T12:42:23.000Z</time>
      </trkpt>
      <trkpt lat="45.0525" lon="4.4994">
        <ele>554.1</ele>
        <time>2021-02-23T12:42:33.000Z</time>
      </trkpt>
      <trkpt lat="45.05246" lon="4.4993">
        <ele>553.34</ele>
        <time>2021-02-23T12:42:43.000Z</time>
      </trkpt>
      <trkpt lat="45.05244" lon="4.49921">
        <ele>552.63</ele>
        <time>2021-02-23T12:42:53.000Z</time>
      </trkpt>
      <trkpt lat="45.05239" lon="4.49916">
        <ele>552.38</ele>
        <time>2021-02-23T12:43:03.000Z</time>
      </trkpt>
      <trkpt lat="45.05234" lon="4.49916">
        <ele>552.64</ele>
        <time>2021-02-23T12:43:16.000Z</time>
      </trkpt>
      <trkpt lat="45.0523" lon="4.4991">
        <ele>552.23</ele>
        <time>2021-02-23T12:43:26.000Z</time>
      </trkpt>
      <trkpt lat="45.05228" lon="4.49917">
        <ele>553.16</ele>
        <time>2021-02-23T12:43:44.000Z</time>
      </trkpt>
      <trkpt lat="45.05219" lon="4.4991">
        <ele>552.85</ele>
        <time>2021-02-23T12:43:54.000Z</time>
      </trkpt>
      <trkpt lat="45.05207" lon="4.49903">
        <ele>552.61</ele>
        <time>2021-02-23T12:44:04.000Z</time>
      </trkpt>
      <trkpt lat="45.05194" lon="4.49904">
        <ele>553.49</ele>
        <time>2021-02-23T12:44:14.000Z</time>
      </trkpt>
      <trkpt lat="45.05183" lon="4.49906">
        <ele>554.24</ele>
        <time>2021-02-23T12:44:24.000Z</time>
      </trkpt>
      <trkpt lat="45.05179" lon="4.49911">
        <ele>555.14</ele>
        <time>2021-02-23T12:44:34.000Z</time>
      </trkpt>
      <trkpt lat="45.05176" lon="4.49919">
        <ele>556.56</ele>
        <time>2021-02-23T12:44:44.000Z</time>
      </trkpt>
      <trkpt lat="45.05166" lon="4.49926">
        <ele>557.71</ele>
        <time>2021-02-23T12:44:54.000Z</time>
      </trkpt>
      <trkpt lat="45.05156" lon="4.49933">
        <ele>558.45</ele>
        <time>2021-02-23T12:45:04.000Z</time>
      </trkpt>
      <trkpt lat="45.05147" lon="4.49938">
        <ele>558.6</ele>
        <time>2021-02-23T12:45:14.000Z</time>
      </trkpt>
      <trkpt lat="45.05137" lon="4.49938">
        <ele>557.45</ele>
        <time>2021-02-23T12:45:24.000Z</time>
      </trkpt>
      <trkpt lat="45.05132" lon="4.49946">
        <ele>558.71</ele>
        <time>2021-02-23T12:45:34.000Z</time>
      </trkpt>
      <trkpt lat="45.05126" lon="4.49954">
        <ele>560.21</ele>
        <time>2021-02-23T12:45:44.000Z</time>
      </trkpt>
      <trkpt lat="45.05113" lon="4.49962">
        <ele>560.96</ele>
        <time>2021-02-23T12:45:54.000Z</time>
      </trkpt>
      <trkpt lat="45.051" lon="4.49969">
        <ele>561.32</ele>
        <time>2021-02-23T12:46:04.000Z</time>
      </trkpt>
      <trkpt lat="45.05092" lon="4.49971">
        <ele>561.07</ele>
        <time>2021-02-23T12:46:14.000Z</time>
      </trkpt>
      <trkpt lat="45.05092" lon="4.49988">
        <ele>566.61</ele>
        <time>2021-02-23T12:46:24.000Z</time>
      </trkpt>
      <trkpt lat="45.05091" lon="4.50002">
        <ele>570.19</ele>
        <time>2021-02-23T12:46:34.000Z</time>
      </trkpt>
      <trkpt lat="45.05087" lon="4.50004">
        <ele>570.39</ele>
        <time>2021-02-23T12:46:47.000Z</time>
      </trkpt>
      <trkpt lat="45.05083" lon="4.50008">
        <ele>570.93</ele>
        <time>2021-02-23T12:47:24.000Z</time>
      </trkpt>
      <trkpt lat="45.05076" lon="4.50004">
        <ele>569.24</ele>
        <time>2021-02-23T12:47:34.000Z</time>
      </trkpt>
      <trkpt lat="45.05073" lon="4.5001">
        <ele>570.2</ele>
        <time>2021-02-23T12:47:49.000Z</time>
      </trkpt>
      <trkpt lat="45.05062" lon="4.5001">
        <ele>568.18</ele>
        <time>2021-02-23T12:47:59.000Z</time>
      </trkpt>
      <trkpt lat="45.05054" lon="4.50014">
        <ele>567.55</ele>
        <time>2021-02-23T12:48:09.000Z</time>
      </trkpt>
      <trkpt lat="45.0505" lon="4.50023">
        <ele>568.89</ele>
        <time>2021-02-23T12:48:19.000Z</time>
      </trkpt>
      <trkpt lat="45.05049" lon="4.50036">
        <ele>572.02</ele>
        <time>2021-02-23T12:48:29.000Z</time>
      </trkpt>
      <trkpt lat="45.05041" lon="4.50045">
        <ele>572.38</ele>
        <time>2021-02-23T12:48:39.000Z</time>
      </trkpt>
      <trkpt lat="45.05032" lon="4.50048">
        <ele>570.99</ele>
        <time>2021-02-23T12:48:49.000Z</time>
      </trkpt>
      <trkpt lat="45.05025" lon="4.50056">
        <ele>571.58</ele>
        <time>2021-02-23T12:48:59.000Z</time>
      </trkpt>
      <trkpt lat="45.05019" lon="4.50059">
        <ele>571.11</ele>
        <time>2021-02-23T12:49:09.000Z</time>
      </trkpt>
      <trkpt lat="45.05015" lon="4.50062">
        <ele>570.92</ele>
        <time>2021-02-23T12:49:23.000Z</time>
      </trkpt>
      <trkpt lat="45.05009" lon="4.50059">
        <ele>569.34</ele>
        <time>2021-02-23T12:49:33.000Z</time>
      </trkpt>
      <trkpt lat="45.05" lon="4.50057">
        <ele>567.98</ele>
        <time>2021-02-23T12:49:43.000Z</time>
      </trkpt>
      <trkpt lat="45.04992" lon="4.50059">
        <ele>568.4</ele>
        <time>2021-02-23T12:49:53.000Z</time>
      </trkpt>
      <trkpt lat="45.04985" lon="4.50064">
        <ele>569.54</ele>
        <time>2021-02-23T12:50:03.000Z</time>
      </trkpt>
      <trkpt lat="45.04981" lon="4.50059">
        <ele>568.25</ele>
        <time>2021-02-23T12:50:28.000Z</time>
      </trkpt>
      <trkpt lat="45.04975" lon="4.50048">
        <ele>565.49</ele>
        <time>2021-02-23T12:50:38.000Z</time>
      </trkpt>
      <trkpt lat="45.04971" lon="4.50053">
        <ele>566.84</ele>
        <time>2021-02-23T12:50:52.000Z</time>
      </trkpt>
      <trkpt lat="45.04957" lon="4.50047">
        <ele>566.02</ele>
        <time>2021-02-23T12:51:02.000Z</time>
      </trkpt>
      <trkpt lat="45.04943" lon="4.5004">
        <ele>565.53</ele>
        <time>2021-02-23T12:51:12.000Z</time>
      </trkpt>
      <trkpt lat="45.04936" lon="4.50025">
        <ele>562.03</ele>
        <time>2021-02-23T12:51:22.000Z</time>
      </trkpt>
      <trkpt lat="45.04932" lon="4.50007">
        <ele>557.4</ele>
        <time>2021-02-23T12:51:32.000Z</time>
      </trkpt>
      <trkpt lat="45.04921" lon="4.50009">
        <ele>559.78</ele>
        <time>2021-02-23T12:51:42.000Z</time>
      </trkpt>
      <trkpt lat="45.04917" lon="4.49999">
        <ele>557.84</ele>
        <time>2021-02-23T12:51:52.000Z</time>
      </trkpt>
      <trkpt lat="45.04922" lon="4.49996">
        <ele>555.82</ele>
        <time>2021-02-23T12:52:02.000Z</time>
      </trkpt>
      <trkpt lat="45.04926" lon="4.5">
        <ele>556.42</ele>
        <time>2021-02-23T12:52:19.000Z</time>
      </trkpt>
      <trkpt lat="45.04918" lon="4.50001">
        <ele>558.11</ele>
        <time>2021-02-23T12:52:29.000Z</time>
      </trkpt>
      <trkpt lat="45.04907" lon="4.49993">
        <ele>558.08</ele>
        <time>2021-02-23T12:52:39.000Z</time>
      </trkpt>
      <trkpt lat="45.04899" lon="4.49993">
        <ele>560.43</ele>
        <time>2021-02-23T12:52:49.000Z</time>
      </trkpt>
      <trkpt lat="45.04891" lon="4.49989">
        <ele>561.71</ele>
        <time>2021-02-23T12:52:59.000Z</time>
      </trkpt>
      <trkpt lat="45.04881" lon="4.49984">
        <ele>563.41</ele>
        <time>2021-02-23T12:53:09.000Z</time>
      </trkpt>
      <trkpt lat="45.04874" lon="4.49976">
        <ele>563.52</ele>
        <time>2021-02-23T12:53:19.000Z</time>
      </trkpt>
      <trkpt lat="45.04866" lon="4.49974">
        <ele>566.06</ele>
        <time>2021-02-23T12:53:29.000Z</time>
      </trkpt>
      <trkpt lat="45.04865" lon="4.49967">
        <ele>564.75</ele>
        <time>2021-02-23T12:53:40.000Z</time>
      </trkpt>
      <trkpt lat="45.04857" lon="4.49965">
        <ele>567.41</ele>
        <time>2021-02-23T12:53:50.000Z</time>
      </trkpt>
      <trkpt lat="45.0485" lon="4.49958">
        <ele>568.52</ele>
        <time>2021-02-23T12:54:00.000Z</time>
      </trkpt>
      <trkpt lat="45.04843" lon="4.49948">
        <ele>568.91</ele>
        <time>2021-02-23T12:54:10.000Z</time>
      </trkpt>
      <trkpt lat="45.04835" lon="4.49933">
        <ele>568.43</ele>
        <time>2021-02-23T12:54:20.000Z</time>
      </trkpt>
      <trkpt lat="45.04832" lon="4.49922">
        <ele>567.89</ele>
        <time>2021-02-23T12:54:30.000Z</time>
      </trkpt>
      <trkpt lat="45.04826" lon="4.49913">
        <ele>568.41</ele>
        <time>2021-02-23T12:54:40.000Z</time>
      </trkpt>
      <trkpt lat="45.04826" lon="4.49898">
        <ele>565.53</ele>
        <time>2021-02-23T12:54:50.000Z</time>
      </trkpt>
      <trkpt lat="45.04823" lon="4.49888">
        <ele>565.28</ele>
        <time>2021-02-23T12:55:00.000Z</time>
      </trkpt>
      <trkpt lat="45.04818" lon="4.49876">
        <ele>565.1</ele>
        <time>2021-02-23T12:55:10.000Z</time>
      </trkpt>
      <trkpt lat="45.04821" lon="4.4986">
        <ele>561.52</ele>
        <time>2021-02-23T12:55:20.000Z</time>
      </trkpt>
      <trkpt lat="45.04816" lon="4.49847">
        <ele>561.06</ele>
        <time>2021-02-23T12:55:30.000Z</time>
      </trkpt>
      <trkpt lat="45.04816" lon="4.49828">
        <ele>558.51</ele>
        <time>2021-02-23T12:55:40.000Z</time>
      </trkpt>
      <trkpt lat="45.04816" lon="4.49814">
        <ele>557.23</ele>
        <time>2021-02-23T12:55:50.000Z</time>
      </trkpt>
      <trkpt lat="45.04807" lon="4.49804">
        <ele>558.52</ele>
        <time>2021-02-23T12:56:00.000Z</time>
      </trkpt>
      <trkpt lat="45.04797" lon="4.49799">
        <ele>560.17</ele>
        <time>2021-02-23T12:56:10.000Z</time>
      </trkpt>
      <trkpt lat="45.04786" lon="4.4981">
        <ele>564.69</ele>
        <time>2021-02-23T12:56:20.000Z</time>
      </trkpt>
      <trkpt lat="45.04779" lon="4.49823">
        <ele>569.18</ele>
        <time>2021-02-23T12:56:30.000Z</time>
      </trkpt>
      <trkpt lat="45.04767" lon="4.49827">
        <ele>573.5</ele>
        <time>2021-02-23T12:56:40.000Z</time>
      </trkpt>
      <trkpt lat="45.04756" lon="4.4983">
        <ele>576.93</ele>
        <time>2021-02-23T12:56:50.000Z</time>
      </trkpt>
      <trkpt lat="45.04743" lon="4.49832">
        <ele>579.82</ele>
        <time>2021-02-23T12:57:00.000Z</time>
      </trkpt>
      <trkpt lat="45.0473" lon="4.49825">
        <ele>579.46</ele>
        <time>2021-02-23T12:57:10.000Z</time>
      </trkpt>
      <trkpt lat="45.04723" lon="4.4983">
        <ele>581.84</ele>
        <time>2021-02-23T12:57:20.000Z</time>
      </trkpt>
      <trkpt lat="45.04718" lon="4.49825">
        <ele>580.76</ele>
        <time>2021-02-23T12:57:30.000Z</time>
      </trkpt>
      <trkpt lat="45.0471" lon="4.49821">
        <ele>580.07</ele>
        <time>2021-02-23T12:57:40.000Z</time>
      </trkpt>
      <trkpt lat="45.04701" lon="4.49818">
        <ele>579.44</ele>
        <time>2021-02-23T12:57:50.000Z</time>
      </trkpt>
      <trkpt lat="45.04689" lon="4.49813">
        <ele>578.37</ele>
        <time>2021-02-23T12:58:00.000Z</time>
      </trkpt>
      <trkpt lat="45.0468" lon="4.49805">
        <ele>575.7</ele>
        <time>2021-02-23T12:58:10.000Z</time>
      </trkpt>
      <trkpt lat="45.0467" lon="4.49791">
        <ele>570.67</ele>
        <time>2021-02-23T12:58:20.000Z</time>
      </trkpt>
      <trkpt lat="45.0466" lon="4.49794">
        <ele>571.88</ele>
        <time>2021-02-23T12:58:30.000Z</time>
      </trkpt>
      <trkpt lat="45.04652" lon="4.498">
        <ele>573.99</ele>
        <time>2021-02-23T12:58:40.000Z</time>
      </trkpt>
      <trkpt lat="45.04646" lon="4.49778">
        <ele>566.75</ele>
        <time>2021-02-23T12:58:50.000Z</time>
      </trkpt>
      <trkpt lat="45.04644" lon="4.49784">
        <ele>569</ele>
        <time>2021-02-23T12:59:00.000Z</time>
      </trkpt>
      <trkpt lat="45.04645" lon="4.49794">
        <ele>572.03</ele>
        <time>2021-02-23T12:59:10.000Z</time>
      </trkpt>
      <trkpt lat="45.04638" lon="4.498">
        <ele>574.02</ele>
        <time>2021-02-23T12:59:20.000Z</time>
      </trkpt>
      <trkpt lat="45.04632" lon="4.49782">
        <ele>568.51</ele>
        <time>2021-02-23T12:59:30.000Z</time>
      </trkpt>
      <trkpt lat="45.04624" lon="4.49764">
        <ele>563.55</ele>
        <time>2021-02-23T12:59:40.000Z</time>
      </trkpt>
      <trkpt lat="45.04619" lon="4.49745">
        <ele>558.7</ele>
        <time>2021-02-23T12:59:50.000Z</time>
      </trkpt>
      <trkpt lat="45.04615" lon="4.49727">
        <ele>553.79</ele>
        <time>2021-02-23T13:00:00.000Z</time>
      </trkpt>
      <trkpt lat="45.0461" lon="4.49712">
        <ele>549.95</ele>
        <time>2021-02-23T13:00:10.000Z</time>
      </trkpt>
      <trkpt lat="45.04601" lon="4.49703">
        <ele>547.73</ele>
        <time>2021-02-23T13:00:20.000Z</time>
      </trkpt>
      <trkpt lat="45.04591" lon="4.497">
        <ele>546.85</ele>
        <time>2021-02-23T13:00:30.000Z</time>
      </trkpt>
      <trkpt lat="45.04583" lon="4.49708">
        <ele>548.49</ele>
        <time>2021-02-23T13:00:40.000Z</time>
      </trkpt>
      <trkpt lat="45.04577" lon="4.49719">
        <ele>550.77</ele>
        <time>2021-02-23T13:00:50.000Z</time>
      </trkpt>
      <trkpt lat="45.04573" lon="4.4972">
        <ele>550.19</ele>
        <time>2021-02-23T13:01:01.000Z</time>
      </trkpt>
      <trkpt lat="45.04566" lon="4.49725">
        <ele>549.95</ele>
        <time>2021-02-23T13:01:11.000Z</time>
      </trkpt>
      <trkpt lat="45.0456" lon="4.49739">
        <ele>551.3</ele>
        <time>2021-02-23T13:01:21.000Z</time>
      </trkpt>
      <trkpt lat="45.04555" lon="4.49754">
        <ele>552.6</ele>
        <time>2021-02-23T13:01:31.000Z</time>
      </trkpt>
      <trkpt lat="45.04551" lon="4.49768">
        <ele>553.42</ele>
        <time>2021-02-23T13:01:41.000Z</time>
      </trkpt>
      <trkpt lat="45.04542" lon="4.49774">
        <ele>551.13</ele>
        <time>2021-02-23T13:01:51.000Z</time>
      </trkpt>
      <trkpt lat="45.04542" lon="4.49791">
        <ele>553.5</ele>
        <time>2021-02-23T13:02:01.000Z</time>
      </trkpt>
      <trkpt lat="45.04535" lon="4.49807">
        <ele>552.53</ele>
        <time>2021-02-23T13:02:11.000Z</time>
      </trkpt>
      <trkpt lat="45.04527" lon="4.49818">
        <ele>550.38</ele>
        <time>2021-02-23T13:02:21.000Z</time>
      </trkpt>
      <trkpt lat="45.04522" lon="4.49832">
        <ele>549.27</ele>
        <time>2021-02-23T13:02:31.000Z</time>
      </trkpt>
      <trkpt lat="45.04519" lon="4.49847">
        <ele>549.29</ele>
        <time>2021-02-23T13:02:41.000Z</time>
      </trkpt>
      <trkpt lat="45.04517" lon="4.4986">
        <ele>549.24</ele>
        <time>2021-02-23T13:02:51.000Z</time>
      </trkpt>
      <trkpt lat="45.04516" lon="4.49874">
        <ele>549.61</ele>
        <time>2021-02-23T13:03:01.000Z</time>
      </trkpt>
      <trkpt lat="45.04516" lon="4.49881">
        <ele>549.79</ele>
        <time>2021-02-23T13:03:11.000Z</time>
      </trkpt>
      <trkpt lat="45.04515" lon="4.4989">
        <ele>549.8</ele>
        <time>2021-02-23T13:03:21.000Z</time>
      </trkpt>
      <trkpt lat="45.04513" lon="4.49905">
        <ele>549.59</ele>
        <time>2021-02-23T13:03:31.000Z</time>
      </trkpt>
      <trkpt lat="45.04514" lon="4.4992">
        <ele>550.68</ele>
        <time>2021-02-23T13:03:41.000Z</time>
      </trkpt>
      <trkpt lat="45.04513" lon="4.49938">
        <ele>550.87</ele>
        <time>2021-02-23T13:03:51.000Z</time>
      </trkpt>
      <trkpt lat="45.04513" lon="4.49954">
        <ele>551.36</ele>
        <time>2021-02-23T13:04:01.000Z</time>
      </trkpt>
      <trkpt lat="45.0451" lon="4.49959">
        <ele>550.25</ele>
        <time>2021-02-23T13:04:16.000Z</time>
      </trkpt>
      <trkpt lat="45.04507" lon="4.49974">
        <ele>549.76</ele>
        <time>2021-02-23T13:04:26.000Z</time>
      </trkpt>
      <trkpt lat="45.04511" lon="4.49988">
        <ele>551.32</ele>
        <time>2021-02-23T13:04:36.000Z</time>
      </trkpt>
      <trkpt lat="45.04512" lon="4.50001">
        <ele>551.97</ele>
        <time>2021-02-23T13:04:46.000Z</time>
      </trkpt>
      <trkpt lat="45.04517" lon="4.50012">
        <ele>553.76</ele>
        <time>2021-02-23T13:04:56.000Z</time>
      </trkpt>
      <trkpt lat="45.04521" lon="4.50025">
        <ele>554.84</ele>
        <time>2021-02-23T13:05:06.000Z</time>
      </trkpt>
      <trkpt lat="45.04524" lon="4.50039">
        <ele>555.57</ele>
        <time>2021-02-23T13:05:16.000Z</time>
      </trkpt>
      <trkpt lat="45.04525" lon="4.50053">
        <ele>555.75</ele>
        <time>2021-02-23T13:05:26.000Z</time>
      </trkpt>
      <trkpt lat="45.04525" lon="4.50069">
        <ele>555.37</ele>
        <time>2021-02-23T13:05:36.000Z</time>
      </trkpt>
      <trkpt lat="45.04526" lon="4.50085">
        <ele>555.48</ele>
        <time>2021-02-23T13:05:46.000Z</time>
      </trkpt>
      <trkpt lat="45.04526" lon="4.50102">
        <ele>555.39</ele>
        <time>2021-02-23T13:05:56.000Z</time>
      </trkpt>
      <trkpt lat="45.04531" lon="4.50116">
        <ele>556.97</ele>
        <time>2021-02-23T13:06:06.000Z</time>
      </trkpt>
      <trkpt lat="45.0453" lon="4.50132">
        <ele>556.87</ele>
        <time>2021-02-23T13:06:16.000Z</time>
      </trkpt>
      <trkpt lat="45.04529" lon="4.50149">
        <ele>556.83</ele>
        <time>2021-02-23T13:06:26.000Z</time>
      </trkpt>
      <trkpt lat="45.04528" lon="4.50165">
        <ele>557.28</ele>
        <time>2021-02-23T13:06:36.000Z</time>
      </trkpt>
      <trkpt lat="45.04529" lon="4.50179">
        <ele>558.11</ele>
        <time>2021-02-23T13:06:46.000Z</time>
      </trkpt>
      <trkpt lat="45.04525" lon="4.50184">
        <ele>557.31</ele>
        <time>2021-02-23T13:06:56.000Z</time>
      </trkpt>
      <trkpt lat="45.04524" lon="4.50198">
        <ele>557.7</ele>
        <time>2021-02-23T13:07:06.000Z</time>
      </trkpt>
      <trkpt lat="45.04523" lon="4.50214">
        <ele>558.33</ele>
        <time>2021-02-23T13:07:16.000Z</time>
      </trkpt>
      <trkpt lat="45.04518" lon="4.5023">
        <ele>558.1</ele>
        <time>2021-02-23T13:07:26.000Z</time>
      </trkpt>
      <trkpt lat="45.04514" lon="4.50245">
        <ele>558.35</ele>
        <time>2021-02-23T13:07:36.000Z</time>
      </trkpt>
      <trkpt lat="45.0451" lon="4.5026">
        <ele>558.31</ele>
        <time>2021-02-23T13:07:46.000Z</time>
      </trkpt>
      <trkpt lat="45.04509" lon="4.50274">
        <ele>559.03</ele>
        <time>2021-02-23T13:07:56.000Z</time>
      </trkpt>
      <trkpt lat="45.0451" lon="4.50289">
        <ele>560.26</ele>
        <time>2021-02-23T13:08:06.000Z</time>
      </trkpt>
      <trkpt lat="45.04508" lon="4.50305">
        <ele>561</ele>
        <time>2021-02-23T13:08:16.000Z</time>
      </trkpt>
      <trkpt lat="45.04508" lon="4.50323">
        <ele>562.28</ele>
        <time>2021-02-23T13:08:26.000Z</time>
      </trkpt>
      <trkpt lat="45.04507" lon="4.50338">
        <ele>563.3</ele>
        <time>2021-02-23T13:08:36.000Z</time>
      </trkpt>
      <trkpt lat="45.04511" lon="4.50353">
        <ele>565.84</ele>
        <time>2021-02-23T13:08:46.000Z</time>
      </trkpt>
      <trkpt lat="45.04508" lon="4.50369">
        <ele>566.23</ele>
        <time>2021-02-23T13:08:56.000Z</time>
      </trkpt>
      <trkpt lat="45.04498" lon="4.50382">
        <ele>564.8</ele>
        <time>2021-02-23T13:09:06.000Z</time>
      </trkpt>
      <trkpt lat="45.04487" lon="4.50394">
        <ele>563.14</ele>
        <time>2021-02-23T13:09:16.000Z</time>
      </trkpt>
      <trkpt lat="45.0448" lon="4.50407">
        <ele>563.04</ele>
        <time>2021-02-23T13:09:26.000Z</time>
      </trkpt>
      <trkpt lat="45.04467" lon="4.50415">
        <ele>561.6</ele>
        <time>2021-02-23T13:09:36.000Z</time>
      </trkpt>
      <trkpt lat="45.04459" lon="4.50426">
        <ele>561.92</ele>
        <time>2021-02-23T13:09:46.000Z</time>
      </trkpt>
      <trkpt lat="45.04449" lon="4.50427">
        <ele>560.72</ele>
        <time>2021-02-23T13:09:56.000Z</time>
      </trkpt>
      <trkpt lat="45.04438" lon="4.50424">
        <ele>558.81</ele>
        <time>2021-02-23T13:10:06.000Z</time>
      </trkpt>
      <trkpt lat="45.04426" lon="4.5042">
        <ele>556.79</ele>
        <time>2021-02-23T13:10:16.000Z</time>
      </trkpt>
      <trkpt lat="45.04419" lon="4.50408">
        <ele>553.74</ele>
        <time>2021-02-23T13:10:26.000Z</time>
      </trkpt>
      <trkpt lat="45.04407" lon="4.50407">
        <ele>552.25</ele>
        <time>2021-02-23T13:10:36.000Z</time>
      </trkpt>
      <trkpt lat="45.04396" lon="4.50408">
        <ele>551.55</ele>
        <time>2021-02-23T13:10:46.000Z</time>
      </trkpt>
      <trkpt lat="45.04385" lon="4.5041">
        <ele>551.26</ele>
        <time>2021-02-23T13:10:56.000Z</time>
      </trkpt>
      <trkpt lat="45.04373" lon="4.5041">
        <ele>550.8</ele>
        <time>2021-02-23T13:11:06.000Z</time>
      </trkpt>
      <trkpt lat="45.04362" lon="4.50419">
        <ele>551.95</ele>
        <time>2021-02-23T13:11:16.000Z</time>
      </trkpt>
      <trkpt lat="45.04353" lon="4.5043">
        <ele>553.74</ele>
        <time>2021-02-23T13:11:26.000Z</time>
      </trkpt>
      <trkpt lat="45.04341" lon="4.5043">
        <ele>553.07</ele>
        <time>2021-02-23T13:11:36.000Z</time>
      </trkpt>
      <trkpt lat="45.04328" lon="4.50426">
        <ele>551.22</ele>
        <time>2021-02-23T13:11:46.000Z</time>
      </trkpt>
      <trkpt lat="45.04315" lon="4.5043">
        <ele>550.8</ele>
        <time>2021-02-23T13:11:56.000Z</time>
      </trkpt>
      <trkpt lat="45.04303" lon="4.50436">
        <ele>550.34</ele>
        <time>2021-02-23T13:12:06.000Z</time>
      </trkpt>
      <trkpt lat="45.04291" lon="4.50441">
        <ele>549.6</ele>
        <time>2021-02-23T13:12:16.000Z</time>
      </trkpt>
      <trkpt lat="45.04279" lon="4.50447">
        <ele>548.85</ele>
        <time>2021-02-23T13:12:26.000Z</time>
      </trkpt>
      <trkpt lat="45.04268" lon="4.50451">
        <ele>547.85</ele>
        <time>2021-02-23T13:12:36.000Z</time>
      </trkpt>
      <trkpt lat="45.04257" lon="4.50459">
        <ele>547.65</ele>
        <time>2021-02-23T13:12:46.000Z</time>
      </trkpt>
      <trkpt lat="45.04247" lon="4.5047">
        <ele>548.14</ele>
        <time>2021-02-23T13:12:56.000Z</time>
      </trkpt>
      <trkpt lat="45.04238" lon="4.50474">
        <ele>548.06</ele>
        <time>2021-02-23T13:13:06.000Z</time>
      </trkpt>
      <trkpt lat="45.04239" lon="4.5045">
        <ele>545.41</ele>
        <time>2021-02-23T13:13:16.000Z</time>
      </trkpt>
      <trkpt lat="45.04239" lon="4.50433">
        <ele>543.36</ele>
        <time>2021-02-23T13:13:26.000Z</time>
      </trkpt>
      <trkpt lat="45.04239" lon="4.50417">
        <ele>541.26</ele>
        <time>2021-02-23T13:13:36.000Z</time>
      </trkpt>
      <trkpt lat="45.04228" lon="4.50419">
        <ele>540.76</ele>
        <time>2021-02-23T13:13:46.000Z</time>
      </trkpt>
      <trkpt lat="45.04225" lon="4.50438">
        <ele>543.1</ele>
        <time>2021-02-23T13:13:56.000Z</time>
      </trkpt>
      <trkpt lat="45.04218" lon="4.50452">
        <ele>544.64</ele>
        <time>2021-02-23T13:14:06.000Z</time>
      </trkpt>
      <trkpt lat="45.04207" lon="4.50442">
        <ele>542.87</ele>
        <time>2021-02-23T13:14:16.000Z</time>
      </trkpt>
      <trkpt lat="45.04194" lon="4.50434">
        <ele>541.22</ele>
        <time>2021-02-23T13:14:26.000Z</time>
      </trkpt>
      <trkpt lat="45.04182" lon="4.50436">
        <ele>541.51</ele>
        <time>2021-02-23T13:14:36.000Z</time>
      </trkpt>
      <trkpt lat="45.04168" lon="4.50438">
        <ele>542.29</ele>
        <time>2021-02-23T13:14:46.000Z</time>
      </trkpt>
      <trkpt lat="45.04155" lon="4.50435">
        <ele>542.42</ele>
        <time>2021-02-23T13:14:56.000Z</time>
      </trkpt>
      <trkpt lat="45.04144" lon="4.50435">
        <ele>543.25</ele>
        <time>2021-02-23T13:15:06.000Z</time>
      </trkpt>
      <trkpt lat="45.04132" lon="4.50429">
        <ele>542.94</ele>
        <time>2021-02-23T13:15:16.000Z</time>
      </trkpt>
      <trkpt lat="45.04121" lon="4.50429">
        <ele>544.09</ele>
        <time>2021-02-23T13:15:26.000Z</time>
      </trkpt>
      <trkpt lat="45.0411" lon="4.50433">
        <ele>546.72</ele>
        <time>2021-02-23T13:15:36.000Z</time>
      </trkpt>
      <trkpt lat="45.04096" lon="4.50429">
        <ele>547.54</ele>
        <time>2021-02-23T13:15:46.000Z</time>
      </trkpt>
      <trkpt lat="45.04084" lon="4.50427">
        <ele>548.87</ele>
        <time>2021-02-23T13:15:56.000Z</time>
      </trkpt>
      <trkpt lat="45.04072" lon="4.50436">
        <ele>553.74</ele>
        <time>2021-02-23T13:16:06.000Z</time>
      </trkpt>
      <trkpt lat="45.0406" lon="4.50442">
        <ele>558.61</ele>
        <time>2021-02-23T13:16:16.000Z</time>
      </trkpt>
      <trkpt lat="45.04047" lon="4.5044">
        <ele>560.8</ele>
        <time>2021-02-23T13:16:26.000Z</time>
      </trkpt>
      <trkpt lat="45.04041" lon="4.50426">
        <ele>556.99</ele>
        <time>2021-02-23T13:16:36.000Z</time>
      </trkpt>
      <trkpt lat="45.04031" lon="4.5041">
        <ele>553.93</ele>
        <time>2021-02-23T13:16:46.000Z</time>
      </trkpt>
      <trkpt lat="45.04019" lon="4.504">
        <ele>552.69</ele>
        <time>2021-02-23T13:16:56.000Z</time>
      </trkpt>
      <trkpt lat="45.0401" lon="4.50391">
        <ele>551.19</ele>
        <time>2021-02-23T13:17:06.000Z</time>
      </trkpt>
      <trkpt lat="45.04" lon="4.50386">
        <ele>551.67</ele>
        <time>2021-02-23T13:17:16.000Z</time>
      </trkpt>
      <trkpt lat="45.03992" lon="4.50377">
        <ele>550.39</ele>
        <time>2021-02-23T13:17:26.000Z</time>
      </trkpt>
      <trkpt lat="45.03976" lon="4.50374">
        <ele>553.7</ele>
        <time>2021-02-23T13:17:36.000Z</time>
      </trkpt>
      <trkpt lat="45.03963" lon="4.50372">
        <ele>556.88</ele>
        <time>2021-02-23T13:17:46.000Z</time>
      </trkpt>
      <trkpt lat="45.03959" lon="4.50354">
        <ele>552.37</ele>
        <time>2021-02-23T13:17:56.000Z</time>
      </trkpt>
      <trkpt lat="45.03956" lon="4.5034">
        <ele>549.24</ele>
        <time>2021-02-23T13:18:06.000Z</time>
      </trkpt>
      <trkpt lat="45.03943" lon="4.50334">
        <ele>551.86</ele>
        <time>2021-02-23T13:18:16.000Z</time>
      </trkpt>
      <trkpt lat="45.03933" lon="4.50333">
        <ele>554.77</ele>
        <time>2021-02-23T13:18:26.000Z</time>
      </trkpt>
      <trkpt lat="45.03918" lon="4.50334">
        <ele>558.75</ele>
        <time>2021-02-23T13:18:36.000Z</time>
      </trkpt>
      <trkpt lat="45.03904" lon="4.50335">
        <ele>561.78</ele>
        <time>2021-02-23T13:18:46.000Z</time>
      </trkpt>
      <trkpt lat="45.03892" lon="4.50339">
        <ele>564.12</ele>
        <time>2021-02-23T13:18:56.000Z</time>
      </trkpt>
      <trkpt lat="45.03882" lon="4.50353">
        <ele>568.15</ele>
        <time>2021-02-23T13:19:06.000Z</time>
      </trkpt>
      <trkpt lat="45.03872" lon="4.50368">
        <ele>571.97</ele>
        <time>2021-02-23T13:19:16.000Z</time>
      </trkpt>
      <trkpt lat="45.03861" lon="4.50376">
        <ele>574.26</ele>
        <time>2021-02-23T13:19:26.000Z</time>
      </trkpt>
      <trkpt lat="45.03852" lon="4.50387">
        <ele>577.04</ele>
        <time>2021-02-23T13:19:36.000Z</time>
      </trkpt>
      <trkpt lat="45.03837" lon="4.50392">
        <ele>579.11</ele>
        <time>2021-02-23T13:19:46.000Z</time>
      </trkpt>
      <trkpt lat="45.03828" lon="4.50401">
        <ele>582.15</ele>
        <time>2021-02-23T13:19:56.000Z</time>
      </trkpt>
      <trkpt lat="45.03814" lon="4.50405">
        <ele>583.87</ele>
        <time>2021-02-23T13:20:06.000Z</time>
      </trkpt>
      <trkpt lat="45.03799" lon="4.50404">
        <ele>584.63</ele>
        <time>2021-02-23T13:20:16.000Z</time>
      </trkpt>
      <trkpt lat="45.03791" lon="4.504">
        <ele>584.76</ele>
        <time>2021-02-23T13:20:26.000Z</time>
      </trkpt>
      <trkpt lat="45.03796" lon="4.5038">
        <ele>581.88</ele>
        <time>2021-02-23T13:20:36.000Z</time>
      </trkpt>
      <trkpt lat="45.03805" lon="4.5036">
        <ele>578.43</ele>
        <time>2021-02-23T13:20:46.000Z</time>
      </trkpt>
      <trkpt lat="45.03814" lon="4.50341">
        <ele>575.22</ele>
        <time>2021-02-23T13:20:56.000Z</time>
      </trkpt>
      <trkpt lat="45.03826" lon="4.50322">
        <ele>571.29</ele>
        <time>2021-02-23T13:21:06.000Z</time>
      </trkpt>
      <trkpt lat="45.03834" lon="4.50307">
        <ele>569.67</ele>
        <time>2021-02-23T13:21:16.000Z</time>
      </trkpt>
      <trkpt lat="45.03841" lon="4.50288">
        <ele>568.14</ele>
        <time>2021-02-23T13:21:26.000Z</time>
      </trkpt>
      <trkpt lat="45.03853" lon="4.50276">
        <ele>564.59</ele>
        <time>2021-02-23T13:21:36.000Z</time>
      </trkpt>
      <trkpt lat="45.03848" lon="4.50259">
        <ele>566.73</ele>
        <time>2021-02-23T13:21:46.000Z</time>
      </trkpt>
      <trkpt lat="45.03858" lon="4.50248">
        <ele>562.31</ele>
        <time>2021-02-23T13:21:56.000Z</time>
      </trkpt>
      <trkpt lat="45.03864" lon="4.50237">
        <ele>559.5</ele>
        <time>2021-02-23T13:22:06.000Z</time>
      </trkpt>
      <trkpt lat="45.03869" lon="4.50216">
        <ele>557.17</ele>
        <time>2021-02-23T13:22:16.000Z</time>
      </trkpt>
      <trkpt lat="45.03862" lon="4.50199">
        <ele>560.36</ele>
        <time>2021-02-23T13:22:26.000Z</time>
      </trkpt>
      <trkpt lat="45.03849" lon="4.50185">
        <ele>565.98</ele>
        <time>2021-02-23T13:22:36.000Z</time>
      </trkpt>
      <trkpt lat="45.03838" lon="4.50174">
        <ele>569.97</ele>
        <time>2021-02-23T13:22:46.000Z</time>
      </trkpt>
      <trkpt lat="45.03829" lon="4.50163">
        <ele>572.4</ele>
        <time>2021-02-23T13:22:56.000Z</time>
      </trkpt>
      <trkpt lat="45.0382" lon="4.5015">
        <ele>573.22</ele>
        <time>2021-02-23T13:23:06.000Z</time>
      </trkpt>
      <trkpt lat="45.0381" lon="4.50139">
        <ele>574.76</ele>
        <time>2021-02-23T13:23:16.000Z</time>
      </trkpt>
      <trkpt lat="45.03803" lon="4.50126">
        <ele>574.32</ele>
        <time>2021-02-23T13:23:26.000Z</time>
      </trkpt>
      <trkpt lat="45.03797" lon="4.50111">
        <ele>572.83</ele>
        <time>2021-02-23T13:23:36.000Z</time>
      </trkpt>
      <trkpt lat="45.0379" lon="4.50095">
        <ele>571.54</ele>
        <time>2021-02-23T13:23:46.000Z</time>
      </trkpt>
      <trkpt lat="45.03785" lon="4.50078">
        <ele>570.31</ele>
        <time>2021-02-23T13:23:56.000Z</time>
      </trkpt>
      <trkpt lat="45.0378" lon="4.50061">
        <ele>569.17</ele>
        <time>2021-02-23T13:24:06.000Z</time>
      </trkpt>
      <trkpt lat="45.03772" lon="4.5005">
        <ele>570.62</ele>
        <time>2021-02-23T13:24:16.000Z</time>
      </trkpt>
      <trkpt lat="45.03763" lon="4.50043">
        <ele>573.14</ele>
        <time>2021-02-23T13:24:26.000Z</time>
      </trkpt>
      <trkpt lat="45.03752" lon="4.50042">
        <ele>576.64</ele>
        <time>2021-02-23T13:24:36.000Z</time>
      </trkpt>
      <trkpt lat="45.0374" lon="4.50036">
        <ele>578.14</ele>
        <time>2021-02-23T13:24:46.000Z</time>
      </trkpt>
      <trkpt lat="45.03729" lon="4.50024">
        <ele>577.32</ele>
        <time>2021-02-23T13:24:56.000Z</time>
      </trkpt>
      <trkpt lat="45.03719" lon="4.50018">
        <ele>576.96</ele>
        <time>2021-02-23T13:25:06.000Z</time>
      </trkpt>
      <trkpt lat="45.03711" lon="4.50007">
        <ele>575.01</ele>
        <time>2021-02-23T13:25:16.000Z</time>
      </trkpt>
      <trkpt lat="45.03707" lon="4.50004">
        <ele>574.48</ele>
        <time>2021-02-23T13:25:43.000Z</time>
      </trkpt>
      <trkpt lat="45.03703" lon="4.50009">
        <ele>575.58</ele>
        <time>2021-02-23T13:25:53.000Z</time>
      </trkpt>
      <trkpt lat="45.03691" lon="4.50013">
        <ele>576.78</ele>
        <time>2021-02-23T13:26:03.000Z</time>
      </trkpt>
      <trkpt lat="45.03681" lon="4.50021">
        <ele>578.84</ele>
        <time>2021-02-23T13:26:13.000Z</time>
      </trkpt>
      <trkpt lat="45.03669" lon="4.5003">
        <ele>581.68</ele>
        <time>2021-02-23T13:26:23.000Z</time>
      </trkpt>
      <trkpt lat="45.03656" lon="4.50031">
        <ele>582.81</ele>
        <time>2021-02-23T13:26:33.000Z</time>
      </trkpt>
      <trkpt lat="45.03645" lon="4.50025">
        <ele>582.28</ele>
        <time>2021-02-23T13:26:43.000Z</time>
      </trkpt>
      <trkpt lat="45.03632" lon="4.50021">
        <ele>582.27</ele>
        <time>2021-02-23T13:26:53.000Z</time>
      </trkpt>
      <trkpt lat="45.03623" lon="4.50013">
        <ele>581.38</ele>
        <time>2021-02-23T13:27:03.000Z</time>
      </trkpt>
      <trkpt lat="45.03618" lon="4.49998">
        <ele>578.99</ele>
        <time>2021-02-23T13:27:13.000Z</time>
      </trkpt>
      <trkpt lat="45.03608" lon="4.49989">
        <ele>578.58</ele>
        <time>2021-02-23T13:27:23.000Z</time>
      </trkpt>
      <trkpt lat="45.03595" lon="4.49984">
        <ele>579.52</ele>
        <time>2021-02-23T13:27:33.000Z</time>
      </trkpt>
      <trkpt lat="45.03582" lon="4.49982">
        <ele>581.4</ele>
        <time>2021-02-23T13:27:43.000Z</time>
      </trkpt>
      <trkpt lat="45.03568" lon="4.49977">
        <ele>583.39</ele>
        <time>2021-02-23T13:27:53.000Z</time>
      </trkpt>
      <trkpt lat="45.03557" lon="4.49977">
        <ele>585.79</ele>
        <time>2021-02-23T13:28:03.000Z</time>
      </trkpt>
      <trkpt lat="45.03552" lon="4.49961">
        <ele>584.93</ele>
        <time>2021-02-23T13:28:13.000Z</time>
      </trkpt>
      <trkpt lat="45.03552" lon="4.4994">
        <ele>582.05</ele>
        <time>2021-02-23T13:28:23.000Z</time>
      </trkpt>
      <trkpt lat="45.03549" lon="4.49925">
        <ele>580.67</ele>
        <time>2021-02-23T13:28:33.000Z</time>
      </trkpt>
      <trkpt lat="45.03543" lon="4.4991">
        <ele>580.2</ele>
        <time>2021-02-23T13:28:43.000Z</time>
      </trkpt>
      <trkpt lat="45.03535" lon="4.49895">
        <ele>580.67</ele>
        <time>2021-02-23T13:28:53.000Z</time>
      </trkpt>
      <trkpt lat="45.03529" lon="4.4988">
        <ele>580.74</ele>
        <time>2021-02-23T13:29:03.000Z</time>
      </trkpt>
      <trkpt lat="45.03518" lon="4.49871">
        <ele>583.06</ele>
        <time>2021-02-23T13:29:13.000Z</time>
      </trkpt>
      <trkpt lat="45.03507" lon="4.4986">
        <ele>585.17</ele>
        <time>2021-02-23T13:29:23.000Z</time>
      </trkpt>
      <trkpt lat="45.03495" lon="4.49853">
        <ele>587.88</ele>
        <time>2021-02-23T13:29:33.000Z</time>
      </trkpt>
      <trkpt lat="45.03486" lon="4.49846">
        <ele>590.13</ele>
        <time>2021-02-23T13:29:43.000Z</time>
      </trkpt>
      <trkpt lat="45.03477" lon="4.49835">
        <ele>591.42</ele>
        <time>2021-02-23T13:29:53.000Z</time>
      </trkpt>
      <trkpt lat="45.0347" lon="4.49825">
        <ele>592.26</ele>
        <time>2021-02-23T13:30:03.000Z</time>
      </trkpt>
      <trkpt lat="45.03466" lon="4.49812">
        <ele>591.84</ele>
        <time>2021-02-23T13:30:13.000Z</time>
      </trkpt>
      <trkpt lat="45.03463" lon="4.49799">
        <ele>590.97</ele>
        <time>2021-02-23T13:30:23.000Z</time>
      </trkpt>
      <trkpt lat="45.03454" lon="4.4979">
        <ele>591.96</ele>
        <time>2021-02-23T13:30:33.000Z</time>
      </trkpt>
      <trkpt lat="45.03447" lon="4.49784">
        <ele>592.84</ele>
        <time>2021-02-23T13:30:43.000Z</time>
      </trkpt>
      <trkpt lat="45.03439" lon="4.49785">
        <ele>595.06</ele>
        <time>2021-02-23T13:30:53.000Z</time>
      </trkpt>
      <trkpt lat="45.03429" lon="4.49775">
        <ele>595.14</ele>
        <time>2021-02-23T13:31:03.000Z</time>
      </trkpt>
      <trkpt lat="45.03419" lon="4.49767">
        <ele>595.07</ele>
        <time>2021-02-23T13:31:13.000Z</time>
      </trkpt>
      <trkpt lat="45.03409" lon="4.49756">
        <ele>593.38</ele>
        <time>2021-02-23T13:31:23.000Z</time>
      </trkpt>
      <trkpt lat="45.03399" lon="4.49751">
        <ele>592.78</ele>
        <time>2021-02-23T13:31:33.000Z</time>
      </trkpt>
      <trkpt lat="45.03389" lon="4.49745">
        <ele>591.58</ele>
        <time>2021-02-23T13:31:43.000Z</time>
      </trkpt>
      <trkpt lat="45.03378" lon="4.4975">
        <ele>593.35</ele>
        <time>2021-02-23T13:31:53.000Z</time>
      </trkpt>
      <trkpt lat="45.03367" lon="4.49754">
        <ele>594.63</ele>
        <time>2021-02-23T13:32:03.000Z</time>
      </trkpt>
      <trkpt lat="45.03359" lon="4.49762">
        <ele>597.42</ele>
        <time>2021-02-23T13:32:13.000Z</time>
      </trkpt>
      <trkpt lat="45.03351" lon="4.49767">
        <ele>599.29</ele>
        <time>2021-02-23T13:32:23.000Z</time>
      </trkpt>
      <trkpt lat="45.03342" lon="4.49773">
        <ele>601.53</ele>
        <time>2021-02-23T13:32:33.000Z</time>
      </trkpt>
      <trkpt lat="45.03331" lon="4.49778">
        <ele>603.17</ele>
        <time>2021-02-23T13:32:43.000Z</time>
      </trkpt>
      <trkpt lat="45.03319" lon="4.4978">
        <ele>603.42</ele>
        <time>2021-02-23T13:32:53.000Z</time>
      </trkpt>
      <trkpt lat="45.03312" lon="4.49778">
        <ele>601.79</ele>
        <time>2021-02-23T13:33:03.000Z</time>
      </trkpt>
      <trkpt lat="45.033" lon="4.49783">
        <ele>602.55</ele>
        <time>2021-02-23T13:33:13.000Z</time>
      </trkpt>
      <trkpt lat="45.03288" lon="4.49777">
        <ele>598.78</ele>
        <time>2021-02-23T13:33:23.000Z</time>
      </trkpt>
      <trkpt lat="45.03279" lon="4.49775">
        <ele>596.64</ele>
        <time>2021-02-23T13:33:33.000Z</time>
      </trkpt>
      <trkpt lat="45.03268" lon="4.49775">
        <ele>594.76</ele>
        <time>2021-02-23T13:33:43.000Z</time>
      </trkpt>
      <trkpt lat="45.03256" lon="4.49777">
        <ele>593.66</ele>
        <time>2021-02-23T13:33:53.000Z</time>
      </trkpt>
      <trkpt lat="45.03252" lon="4.49768">
        <ele>589.09</ele>
        <time>2021-02-23T13:34:03.000Z</time>
      </trkpt>
      <trkpt lat="45.03265" lon="4.49759">
        <ele>587.29</ele>
        <time>2021-02-23T13:34:13.000Z</time>
      </trkpt>
      <trkpt lat="45.03274" lon="4.49748">
        <ele>584.04</ele>
        <time>2021-02-23T13:34:23.000Z</time>
      </trkpt>
      <trkpt lat="45.03286" lon="4.49744">
        <ele>584.13</ele>
        <time>2021-02-23T13:34:33.000Z</time>
      </trkpt>
      <trkpt lat="45.03299" lon="4.49743">
        <ele>585.52</ele>
        <time>2021-02-23T13:34:43.000Z</time>
      </trkpt>
      <trkpt lat="45.03286" lon="4.49746">
        <ele>584.96</ele>
        <time>2021-02-23T13:34:53.000Z</time>
      </trkpt>
      <trkpt lat="45.03274" lon="4.49746">
        <ele>582.8</ele>
        <time>2021-02-23T13:35:03.000Z</time>
      </trkpt>
      <trkpt lat="45.03262" lon="4.49743">
        <ele>579.79</ele>
        <time>2021-02-23T13:35:13.000Z</time>
      </trkpt>
      <trkpt lat="45.03256" lon="4.49742">
        <ele>578.5</ele>
        <time>2021-02-23T13:35:23.000Z</time>
      </trkpt>
      <trkpt lat="45.03251" lon="4.49744">
        <ele>578.6</ele>
        <time>2021-02-23T13:35:45.000Z</time>
      </trkpt>
      <trkpt lat="45.03242" lon="4.49749">
        <ele>579.36</ele>
        <time>2021-02-23T13:35:55.000Z</time>
      </trkpt>
      <trkpt lat="45.03231" lon="4.49753">
        <ele>578.78</ele>
        <time>2021-02-23T13:36:05.000Z</time>
      </trkpt>
      <trkpt lat="45.03217" lon="4.49755">
        <ele>576.84</ele>
        <time>2021-02-23T13:36:15.000Z</time>
      </trkpt>
      <trkpt lat="45.03206" lon="4.49757">
        <ele>575.68</ele>
        <time>2021-02-23T13:36:25.000Z</time>
      </trkpt>
      <trkpt lat="45.03194" lon="4.49762">
        <ele>575.44</ele>
        <time>2021-02-23T13:36:35.000Z</time>
      </trkpt>
      <trkpt lat="45.03182" lon="4.49764">
        <ele>574.31</ele>
        <time>2021-02-23T13:36:45.000Z</time>
      </trkpt>
      <trkpt lat="45.03172" lon="4.49757">
        <ele>569.78</ele>
        <time>2021-02-23T13:36:55.000Z</time>
      </trkpt>
      <trkpt lat="45.03159" lon="4.49761">
        <ele>569.42</ele>
        <time>2021-02-23T13:37:05.000Z</time>
      </trkpt>
      <trkpt lat="45.03148" lon="4.49765">
        <ele>569.88</ele>
        <time>2021-02-23T13:37:15.000Z</time>
      </trkpt>
      <trkpt lat="45.03137" lon="4.49769">
        <ele>570.31</ele>
        <time>2021-02-23T13:37:25.000Z</time>
      </trkpt>
      <trkpt lat="45.03127" lon="4.49779">
        <ele>573.23</ele>
        <time>2021-02-23T13:37:35.000Z</time>
      </trkpt>
      <trkpt lat="45.03116" lon="4.4979">
        <ele>576.35</ele>
        <time>2021-02-23T13:37:45.000Z</time>
      </trkpt>
      <trkpt lat="45.03109" lon="4.49796">
        <ele>578.25</ele>
        <time>2021-02-23T13:37:55.000Z</time>
      </trkpt>
      <trkpt lat="45.03103" lon="4.49786">
        <ele>573.94</ele>
        <time>2021-02-23T13:38:05.000Z</time>
      </trkpt>
      <trkpt lat="45.03089" lon="4.49779">
        <ele>570.87</ele>
        <time>2021-02-23T13:38:15.000Z</time>
      </trkpt>
      <trkpt lat="45.03078" lon="4.49775">
        <ele>569.35</ele>
        <time>2021-02-23T13:38:25.000Z</time>
      </trkpt>
      <trkpt lat="45.03072" lon="4.49765">
        <ele>566.08</ele>
        <time>2021-02-23T13:38:35.000Z</time>
      </trkpt>
      <trkpt lat="45.03064" lon="4.49757">
        <ele>563.69</ele>
        <time>2021-02-23T13:38:45.000Z</time>
      </trkpt>
      <trkpt lat="45.03054" lon="4.49747">
        <ele>560.49</ele>
        <time>2021-02-23T13:38:55.000Z</time>
      </trkpt>
      <trkpt lat="45.03041" lon="4.49742">
        <ele>560.24</ele>
        <time>2021-02-23T13:39:05.000Z</time>
      </trkpt>
      <trkpt lat="45.03029" lon="4.49733">
        <ele>557.86</ele>
        <time>2021-02-23T13:39:15.000Z</time>
      </trkpt>
      <trkpt lat="45.03016" lon="4.49738">
        <ele>561.57</ele>
        <time>2021-02-23T13:39:25.000Z</time>
      </trkpt>
      <trkpt lat="45.03001" lon="4.49734">
        <ele>562.08</ele>
        <time>2021-02-23T13:39:35.000Z</time>
      </trkpt>
      <trkpt lat="45.0299" lon="4.49721">
        <ele>558.54</ele>
        <time>2021-02-23T13:39:45.000Z</time>
      </trkpt>
      <trkpt lat="45.02979" lon="4.49713">
        <ele>558.27</ele>
        <time>2021-02-23T13:39:55.000Z</time>
      </trkpt>
      <trkpt lat="45.02978" lon="4.49704">
        <ele>555.25</ele>
        <time>2021-02-23T13:40:05.000Z</time>
      </trkpt>
      <trkpt lat="45.02973" lon="4.49687">
        <ele>550.53</ele>
        <time>2021-02-23T13:40:15.000Z</time>
      </trkpt>
      <trkpt lat="45.02961" lon="4.49676">
        <ele>550.34</ele>
        <time>2021-02-23T13:40:25.000Z</time>
      </trkpt>
      <trkpt lat="45.02952" lon="4.49667">
        <ele>550.46</ele>
        <time>2021-02-23T13:40:35.000Z</time>
      </trkpt>
      <trkpt lat="45.02944" lon="4.4966">
        <ele>550.71</ele>
        <time>2021-02-23T13:40:45.000Z</time>
      </trkpt>
      <trkpt lat="45.02938" lon="4.49645">
        <ele>547.2</ele>
        <time>2021-02-23T13:40:55.000Z</time>
      </trkpt>
      <trkpt lat="45.02933" lon="4.49628">
        <ele>542.59</ele>
        <time>2021-02-23T13:41:05.000Z</time>
      </trkpt>
      <trkpt lat="45.02927" lon="4.4961">
        <ele>537.78</ele>
        <time>2021-02-23T13:41:15.000Z</time>
      </trkpt>
      <trkpt lat="45.02918" lon="4.49602">
        <ele>535.64</ele>
        <time>2021-02-23T13:41:25.000Z</time>
      </trkpt>
      <trkpt lat="45.02915" lon="4.49596">
        <ele>533.87</ele>
        <time>2021-02-23T13:41:44.000Z</time>
      </trkpt>
      <trkpt lat="45.02907" lon="4.49592">
        <ele>532.01</ele>
        <time>2021-02-23T13:41:54.000Z</time>
      </trkpt>
      <trkpt lat="45.02897" lon="4.49597">
        <ele>531.73</ele>
        <time>2021-02-23T13:42:04.000Z</time>
      </trkpt>
      <trkpt lat="45.02886" lon="4.49601">
        <ele>530.18</ele>
        <time>2021-02-23T13:42:14.000Z</time>
      </trkpt>
      <trkpt lat="45.02875" lon="4.49609">
        <ele>528.57</ele>
        <time>2021-02-23T13:42:24.000Z</time>
      </trkpt>
      <trkpt lat="45.02871" lon="4.49621">
        <ele>530.43</ele>
        <time>2021-02-23T13:42:34.000Z</time>
      </trkpt>
      <trkpt lat="45.02865" lon="4.49631">
        <ele>530.86</ele>
        <time>2021-02-23T13:42:44.000Z</time>
      </trkpt>
      <trkpt lat="45.02855" lon="4.4964">
        <ele>529.22</ele>
        <time>2021-02-23T13:42:54.000Z</time>
      </trkpt>
      <trkpt lat="45.02844" lon="4.49651">
        <ele>527.97</ele>
        <time>2021-02-23T13:43:04.000Z</time>
      </trkpt>
      <trkpt lat="45.02838" lon="4.49663">
        <ele>528.66</ele>
        <time>2021-02-23T13:43:14.000Z</time>
      </trkpt>
      <trkpt lat="45.0283" lon="4.4967">
        <ele>527.82</ele>
        <time>2021-02-23T13:43:24.000Z</time>
      </trkpt>
      <trkpt lat="45.02825" lon="4.49669">
        <ele>525.74</ele>
        <time>2021-02-23T13:43:34.000Z</time>
      </trkpt>
      <trkpt lat="45.0283" lon="4.49652">
        <ele>523.16</ele>
        <time>2021-02-23T13:43:44.000Z</time>
      </trkpt>
      <trkpt lat="45.02822" lon="4.49649">
        <ele>519.3</ele>
        <time>2021-02-23T13:43:54.000Z</time>
      </trkpt>
      <trkpt lat="45.02815" lon="4.4966">
        <ele>519.66</ele>
        <time>2021-02-23T13:44:04.000Z</time>
      </trkpt>
      <trkpt lat="45.02808" lon="4.49671">
        <ele>519.44</ele>
        <time>2021-02-23T13:44:14.000Z</time>
      </trkpt>
      <trkpt lat="45.02802" lon="4.4968">
        <ele>519.49</ele>
        <time>2021-02-23T13:44:24.000Z</time>
      </trkpt>
      <trkpt lat="45.02795" lon="4.49689">
        <ele>518.94</ele>
        <time>2021-02-23T13:44:34.000Z</time>
      </trkpt>
      <trkpt lat="45.02784" lon="4.4969">
        <ele>514.75</ele>
        <time>2021-02-23T13:44:44.000Z</time>
      </trkpt>
      <trkpt lat="45.02789" lon="4.49676">
        <ele>512.96</ele>
        <time>2021-02-23T13:44:54.000Z</time>
      </trkpt>
      <trkpt lat="45.02795" lon="4.49661">
        <ele>511.82</ele>
        <time>2021-02-23T13:45:04.000Z</time>
      </trkpt>
      <trkpt lat="45.02798" lon="4.49645">
        <ele>509.88</ele>
        <time>2021-02-23T13:45:14.000Z</time>
      </trkpt>
      <trkpt lat="45.02803" lon="4.49629">
        <ele>508.77</ele>
        <time>2021-02-23T13:45:24.000Z</time>
      </trkpt>
      <trkpt lat="45.02807" lon="4.49612">
        <ele>506.72</ele>
        <time>2021-02-23T13:45:34.000Z</time>
      </trkpt>
      <trkpt lat="45.02805" lon="4.49593">
        <ele>503.14</ele>
        <time>2021-02-23T13:45:44.000Z</time>
      </trkpt>
      <trkpt lat="45.02799" lon="4.49578">
        <ele>500.11</ele>
        <time>2021-02-23T13:45:54.000Z</time>
      </trkpt>
      <trkpt lat="45.02793" lon="4.49564">
        <ele>497.53</ele>
        <time>2021-02-23T13:46:04.000Z</time>
      </trkpt>
      <trkpt lat="45.02785" lon="4.4955">
        <ele>495.27</ele>
        <time>2021-02-23T13:46:14.000Z</time>
      </trkpt>
      <trkpt lat="45.0278" lon="4.49532">
        <ele>493.58</ele>
        <time>2021-02-23T13:46:24.000Z</time>
      </trkpt>
      <trkpt lat="45.02774" lon="4.49516">
        <ele>492.63</ele>
        <time>2021-02-23T13:46:34.000Z</time>
      </trkpt>
      <trkpt lat="45.02769" lon="4.495">
        <ele>492.47</ele>
        <time>2021-02-23T13:46:44.000Z</time>
      </trkpt>
      <trkpt lat="45.02764" lon="4.49484">
        <ele>493.04</ele>
        <time>2021-02-23T13:46:54.000Z</time>
      </trkpt>
      <trkpt lat="45.02758" lon="4.49469">
        <ele>494.23</ele>
        <time>2021-02-23T13:47:04.000Z</time>
      </trkpt>
      <trkpt lat="45.02752" lon="4.49454">
        <ele>496.39</ele>
        <time>2021-02-23T13:47:14.000Z</time>
      </trkpt>
      <trkpt lat="45.02746" lon="4.49439">
        <ele>499.29</ele>
        <time>2021-02-23T13:47:24.000Z</time>
      </trkpt>
      <trkpt lat="45.02736" lon="4.49428">
        <ele>503.18</ele>
        <time>2021-02-23T13:47:34.000Z</time>
      </trkpt>
      <trkpt lat="45.02726" lon="4.49427">
        <ele>505.32</ele>
        <time>2021-02-23T13:47:44.000Z</time>
      </trkpt>
      <trkpt lat="45.02713" lon="4.49438">
        <ele>505.38</ele>
        <time>2021-02-23T13:47:54.000Z</time>
      </trkpt>
      <trkpt lat="45.02708" lon="4.49452">
        <ele>502.73</ele>
        <time>2021-02-23T13:48:04.000Z</time>
      </trkpt>
      <trkpt lat="45.02705" lon="4.49469">
        <ele>498.97</ele>
        <time>2021-02-23T13:48:14.000Z</time>
      </trkpt>
      <trkpt lat="45.02699" lon="4.49486">
        <ele>495.95</ele>
        <time>2021-02-23T13:48:24.000Z</time>
      </trkpt>
      <trkpt lat="45.02693" lon="4.49504">
        <ele>493.25</ele>
        <time>2021-02-23T13:48:34.000Z</time>
      </trkpt>
      <trkpt lat="45.0269" lon="4.49522">
        <ele>491.58</ele>
        <time>2021-02-23T13:48:44.000Z</time>
      </trkpt>
      <trkpt lat="45.02685" lon="4.49539">
        <ele>490.75</ele>
        <time>2021-02-23T13:48:54.000Z</time>
      </trkpt>
      <trkpt lat="45.02685" lon="4.49535">
        <ele>490.92</ele>
        <time>2021-02-23T13:49:19.000Z</time>
      </trkpt>
    </trkseg>
  </trk>
</gpx>